[[{"header":{"parameterUnit":"m.s-1","parameterCategory":1,"la1":30.6,"la2":28.766,"lo1":-90.7593,"lo2":-88.6598,"dy":0.0162,"dx":0.0183,"nx":116,"ny":114,"refTime":"2023-07-19T06:00:00:Z","depth":0,"parameterNumber":2,"parameterNumberName":"U-component_of_WINDS"},"data":[0.0,0.0,0.0,0.0,0.0,0.0,0.0,0.0,0.0,0.0,0.0,0.0,0.0,0.0,0.0,0.0,0.0,0.0,0.0,0.0,0.0,0.0,0.0,0.0,0.0,0.0,0.0,0.0,0.0,0.0,0.0,0.0,0.0,0.0,0.0,0.0,0.0,0.0,0.0,0.0,0.0,0.0,0.0,0.0,0.0,0.0,0.0,0.0,0.0,0.0,0.0,0.0,0.0,0.0,0.0,0.0,0.0,0.0,0.0,0.0,0.0,0.0,0.0,0.0,0.0,0.0,0.0,0.0,0.0,0.0,0.0,0.0,0.0,0.0,0.0,0.0,0.0,0.0,0.0,0.0,0.0,0.0,0.0,0.0,0.0,0.0,0.0,0.0,0.0,0.0,0.0,0.0,0.0,0.0,0.0,0.0,0.0,0.0,0.0,0.0,0.0,0.0,0.0,0.0,0.0,0.0,0.0,0.0,0.0,0.0,0.0,0.0,0.0,0.0,0.0,0.0,0.0,0.0,0.0,0.0,0.0,0.0,0.0,0.0,0.0,0.0,0.0,0.0,0.0,0.0,0.0,0.0,0.0,0.0,0.0,0.0,0.0,0.0,0.0,0.0,0.0,0.0,0.0,0.0,0.0,0.0,0.0,0.0,0.0,0.0,0.0,0.0,0.0,0.0,0.0,0.0,0.0,0.0,0.0,0.0,0.0,0.0,0.0,0.0,0.0,0.0,0.0,0.0,0.0,0.0,0.0,0.0,0.0,0.0,0.0,0.0,0.0,0.0,0.0,0.0,0.0,0.0,0.0,0.0,0.0,0.0,0.0,0.0,0.0,0.0,0.0,0.0,0.0,0.0,0.0,0.0,0.0,0.0,0.0,0.0,0.0,0.0,0.0,0.0,0.0,0.0,0.0,0.0,0.0,0.0,0.0,0.0,0.0,0.0,0.0,0.0,0.0,0.0,0.0,0.0,0.0,0.0,0.0,0.0,0.0,0.0,0.0,0.0,0.0,0.0,0.0,0.0,0.0,0.0,0.0,0.0,0.0,0.0,0.0,0.0,0.0,0.0,0.0,0.0,0.0,0.0,0.0,0.0,0.0,0.0,0.0,0.0,0.0,0.0,0.0,0.0,0.0,0.0,0.0,0.0,0.0,0.0,0.0,0.0,0.0,0.0,0.0,0.0,0.0,0.0,0.0,0.0,0.0,0.0,0.0,0.0,0.0,0.0,0.0,0.0,0.0,0.0,0.0,0.0,0.0,0.0,0.0,0.0,0.0,0.0,0.0,0.0,0.0,0.0,0.0,0.0,0.0,0.0,0.0,0.0,0.0,0.0,0.0,0.0,0.0,0.0,0.0,0.0,0.0,0.0,0.0,0.0,0.0,0.0,0.0,0.0,0.0,0.0,0.0,0.0,0.0,0.0,0.0,0.0,0.0,0.0,0.0,0.0,0.0,0.0,0.0,0.0,0.0,0.0,0.0,0.0,0.0,0.0,0.0,0.0,0.0,0.0,0.0,0.0,0.0,0.0,0.0,0.0,0.0,0.0,0.0,0.0,0.0,0.0,0.0,0.0,0.0,0.0,0.0,0.0,0.0,0.0,0.0,0.0,0.0,0.0,0.0,0.0,0.0,0.0,0.0,0.0,0.0,0.0,0.0,0.0,0.0,0.0,0.0,0.0,0.0,0.0,0.0,0.0,0.0,0.0,0.0,0.0,0.0,0.0,0.0,0.0,0.0,0.0,0.0,0.0,0.0,0.0,0.0,0.0,0.0,0.0,0.0,0.0,0.0,0.0,0.0,0.0,0.0,0.0,0.0,0.0,0.0,0.0,0.0,0.0,0.0,0.0,0.0,0.0,0.0,0.0,0.0,0.0,0.0,0.0,0.0,0.0,0.0,0.0,0.0,0.0,0.0,0.0,0.0,0.0,0.0,0.0,0.0,0.0,0.0,0.0,0.0,0.0,0.0,0.0,0.0,0.0,0.0,0.0,0.0,0.0,0.0,0.0,0.0,0.0,0.0,0.0,0.0,0.0,0.0,0.0,0.0,0.0,0.0,0.0,0.0,0.0,0.0,0.0,0.0,0.0,0.0,0.0,0.0,0.0,0.0,0.0,0.0,0.0,0.0,0.0,0.0,0.0,0.0,0.0,0.0,0.0,0.0,0.0,0.0,0.0,0.0,0.0,0.0,0.0,0.0,0.0,0.0,0.0,0.0,0.0,0.0,0.0,0.0,0.0,0.0,0.0,0.0,0.0,0.0,0.0,0.0,0.0,0.0,0.0,0.0,0.0,0.0,0.0,0.0,0.0,0.0,0.0,0.0,0.0,0.0,0.0,0.0,0.0,0.0,0.0,0.0,0.0,0.0,0.0,0.0,0.0,0.0,0.0,0.0,0.0,0.0,0.0,0.0,0.0,0.0,0.0,0.0,0.0,0.0,0.0,0.0,0.0,0.0,0.0,0.0,0.0,0.0,0.0,0.0,0.0,0.0,0.0,0.0,0.0,0.0,0.0,0.0,0.0,0.0,0.0,0.0,0.0,0.0,0.0,0.0,0.0,0.0,0.0,0.0,0.0,0.0,0.0,0.0,0.0,0.0,0.0,0.0,0.0,0.0,0.0,0.0,0.0,0.0,0.0,0.0,0.0,0.0,0.0,0.0,0.0,0.0,0.0,0.0,0.0,0.0,0.0,0.0,0.0,0.0,0.0,0.0,0.0,0.0,0.0,0.0,0.0,0.0,0.0,0.0,0.0,0.0,0.0,0.0,0.0,0.0,0.0,0.0,0.0,0.0,0.0,0.0,0.0,0.0,0.0,0.0,0.0,0.0,0.0,0.0,0.0,0.0,0.0,0.0,0.0,0.0,0.0,0.0,0.0,0.0,0.0,0.0,0.0,0.0,0.0,0.0,0.0,0.0,0.0,0.0,0.0,0.0,0.0,0.0,0.0,0.0,0.0,0.0,0.0,0.0,0.0,0.0,0.0,0.0,0.0,0.0,0.0,0.0,0.0,0.0,0.0,0.0,0.0,0.0,0.0,0.0,0.0,0.0,0.0,0.0,0.0,0.0,0.0,0.0,0.0,0.0,0.0,0.0,0.0,0.0,0.0,0.0,0.0,0.0,0.0,0.0,0.0,0.0,0.0,0.0,0.0,0.0,0.0,0.0,0.0,0.0,0.0,0.0,0.0,0.0,0.0,0.0,0.0,0.0,0.0,0.0,0.0,0.0,0.0,0.0,0.0,0.0,0.0,0.0,0.0,0.0,0.0,0.0,0.0,0.0,0.0,0.0,0.0,0.0,0.0,0.0,0.0,0.0,0.0,0.0,0.0,0.0,0.0,0.0,0.0,0.0,0.0,0.0,0.0,0.0,0.0,0.0,0.0,0.0,0.0,0.0,0.0,0.0,0.0,0.0,0.0,0.0,0.0,0.0,0.0,0.0,0.0,0.0,0.0,0.0,0.0,0.0,0.0,0.0,0.0,0.0,0.0,0.0,0.0,0.0,0.0,0.0,0.0,0.0,0.0,0.0,0.0,0.0,0.0,0.0,0.0,0.0,0.0,0.0,0.0,0.0,0.0,0.0,0.0,0.0,0.0,0.0,0.0,0.0,0.0,0.0,0.0,0.0,0.0,0.0,0.0,0.0,0.0,0.0,0.0,0.0,0.0,0.0,0.0,0.0,0.0,0.0,0.0,0.0,0.0,0.0,0.0,0.0,0.0,0.0,0.0,0.0,0.0,0.0,0.0,0.0,0.0,0.0,0.0,0.0,0.0,0.0,0.0,0.0,0.0,0.0,0.0,0.0,0.0,0.0,0.0,0.0,0.0,0.0,0.0,0.0,0.0,0.0,0.0,0.0,0.0,0.0,0.0,0.0,0.0,0.0,0.0,0.0,0.0,0.0,0.0,0.0,0.0,0.0,0.0,0.0,0.0,0.0,0.0,0.0,0.0,0.0,0.0,0.0,0.0,0.0,0.0,0.0,0.0,0.0,0.0,0.0,0.0,0.0,0.0,0.0,0.0,0.0,0.0,0.0,0.0,0.0,0.0,0.0,0.0,0.0,0.0,0.0,0.0,0.0,0.0,0.0,0.0,0.0,0.0,0.0,0.0,0.0,0.0,0.0,0.0,0.0,0.0,0.0,0.0,0.0,0.0,0.0,0.0,0.0,0.0,0.0,0.0,0.0,0.0,0.0,0.0,0.0,0.0,0.0,0.0,0.0,0.0,0.0,0.0,0.0,0.0,0.0,0.0,0.0,0.0,0.0,0.0,0.0,0.0,0.0,0.0,0.0,0.0,0.0,0.0,0.0,0.0,0.0,0.0,0.0,0.0,0.0,0.0,0.0,0.0,0.0,0.0,0.0,0.0,0.0,0.0,0.0,0.0,0.0,0.0,0.0,0.0,0.0,0.0,0.0,0.0,0.0,0.0,0.0,0.0,0.0,0.0,0.0,0.0,0.0,0.0,0.0,0.0,0.0,0.0,0.0,0.0,0.0,0.0,0.0,0.0,0.0,0.0,0.0,0.0,0.0,0.0,0.0,0.0,0.0,0.0,0.0,0.0,0.0,0.0,0.0,0.0,0.0,0.0,0.0,0.0,0.0,0.0,0.0,0.0,0.0,0.0,0.0,0.0,0.0,0.0,0.0,0.0,0.0,0.0,0.0,0.0,0.0,0.0,0.0,0.0,0.0,0.0,0.0,0.0,0.0,0.0,0.0,0.0,0.0,0.0,0.0,0.0,0.0,0.0,0.0,0.0,0.0,0.0,0.0,0.0,0.0,0.0,0.0,0.0,0.0,0.0,0.0,0.0,0.0,0.0,0.0,0.0,0.0,0.0,0.0,0.0,0.0,0.0,0.0,0.0,0.0,0.0,0.0,0.0,0.0,0.0,0.0,0.0,0.0,0.0,0.0,0.0,0.0,0.0,0.0,0.0,0.0,0.0,0.0,0.0,0.0,0.0,0.0,0.0,0.0,0.0,0.0,0.0,0.0,0.0,0.0,0.0,0.0,0.0,0.0,0.0,0.0,0.0,0.0,0.0,0.0,0.0,0.0,0.0,0.0,0.0,0.0,0.0,0.0,0.0,0.0,0.0,0.0,0.0,0.0,0.0,0.0,0.0,0.0,0.0,0.0,0.0,0.0,0.0,0.0,0.0,0.0,0.0,0.0,0.0,0.0,0.0,0.0,0.0,0.0,0.0,0.0,0.0,0.0,0.0,0.0,0.0,0.0,0.0,0.0,0.0,0.0,0.0,0.0,0.0,0.0,0.0,0.0,0.0,0.0,0.0,0.0,0.0,0.0,0.0,0.0,0.0,0.0,0.0,0.0,0.0,0.0,0.0,0.0,0.0,0.0,0.0,0.0,0.0,0.0,0.0,0.0,0.0,0.0,0.0,0.0,0.0,0.0,0.0,0.0,0.0,0.0,0.0,0.0,0.0,0.0,0.0,0.0,0.0,0.0,0.0,0.0,0.0,0.0,0.0,0.0,0.0,0.0,0.0,0.0,0.0,0.0,0.0,0.0,0.0,0.0,0.0,0.0,0.0,0.0,0.0,0.0,0.0,0.0,0.0,0.0,0.0,0.0,0.0,0.0,0.0,0.0,0.0,0.0,0.0,0.0,0.0,0.0,0.0,0.0,0.0,0.0,0.0,0.0,0.0,0.0,0.0,0.0,0.0,0.0,0.0,0.0,0.0,0.0,0.0,0.0,0.0,0.0,0.0,0.0,0.0,0.0,0.0,0.0,0.0,0.0,0.0,0.0,0.0,0.0,0.0,0.0,0.0,0.0,0.0,0.0,0.0,0.0,0.0,0.0,0.0,0.0,0.0,0.0,0.0,0.0,0.0,0.0,0.0,0.0,0.0,0.0,0.0,0.0,0.0,0.0,0.0,0.0,0.0,0.0,0.0,0.0,0.0,0.0,0.0,0.0,0.0,0.0,0.0,0.0,0.0,0.0,0.0,0.0,0.0,0.0,0.0,0.0,0.0,0.0,0.0,0.0,0.0,0.0,0.0,0.0,0.0,0.0,0.0,0.0,0.0,0.0,0.0,0.0,0.0,0.0,0.0,0.0,0.0,0.0,0.0,0.0,0.0,0.0,0.0,0.0,0.0,-2.9596,0.0,0.0,0.0,0.0,0.0,0.0,0.0,0.0,0.0,0.0,0.0,0.0,0.0,0.0,0.0,0.0,0.0,0.0,0.0,0.0,0.0,0.0,0.0,0.0,0.0,0.0,0.0,0.0,0.0,0.0,0.0,0.0,0.0,0.0,0.0,0.0,0.0,0.0,0.0,-3.07,-3.1014,-3.1513,-3.1962,-3.2225,-3.2324,0.0,0.0,0.0,0.0,0.0,0.0,0.0,0.0,0.0,0.0,0.0,0.0,0.0,0.0,0.0,0.0,0.0,0.0,0.0,0.0,0.0,0.0,0.0,0.0,0.0,0.0,0.0,0.0,0.0,0.0,0.0,0.0,0.0,0.0,0.0,0.0,0.0,0.0,0.0,0.0,0.0,0.0,0.0,0.0,0.0,0.0,0.0,0.0,0.0,0.0,0.0,0.0,0.0,0.0,0.0,0.0,0.0,0.0,0.0,0.0,0.0,0.0,0.0,0.0,0.0,0.0,0.0,0.0,0.0,0.0,0.0,-3.0874,0.0,0.0,0.0,0.0,0.0,0.0,0.0,0.0,0.0,0.0,0.0,0.0,0.0,0.0,0.0,0.0,0.0,0.0,0.0,0.0,0.0,0.0,0.0,0.0,0.0,0.0,0.0,0.0,0.0,0.0,0.0,0.0,0.0,0.0,0.0,-2.9975,-3.0511,-3.1328,-3.1752,-3.2452,-3.3378,-3.4257,-3.4385,-3.3877,-3.3563,0.0,0.0,0.0,0.0,0.0,0.0,0.0,0.0,0.0,0.0,0.0,0.0,0.0,0.0,0.0,0.0,0.0,0.0,0.0,0.0,0.0,0.0,0.0,0.0,0.0,0.0,0.0,0.0,0.0,0.0,0.0,0.0,0.0,0.0,0.0,0.0,0.0,0.0,0.0,0.0,0.0,0.0,0.0,0.0,0.0,0.0,0.0,0.0,0.0,0.0,0.0,0.0,0.0,0.0,0.0,0.0,0.0,0.0,0.0,0.0,0.0,0.0,0.0,0.0,-3.7045,-3.7025,-3.7045,-3.7038,-3.6922,-3.4757,-3.3647,-3.3269,0.0,0.0,0.0,0.0,0.0,0.0,0.0,0.0,0.0,0.0,0.0,0.0,0.0,0.0,0.0,0.0,0.0,0.0,0.0,0.0,0.0,0.0,0.0,0.0,0.0,0.0,0.0,0.0,0.0,0.0,0.0,0.0,0.0,0.0,-3.0559,-3.1086,-3.1386,-3.3036,-3.4289,-3.5188,-3.6042,-3.6794,-3.7366,-3.5843,-3.5207,-3.5212,0.0,0.0,0.0,0.0,0.0,0.0,0.0,0.0,0.0,0.0,0.0,0.0,0.0,0.0,0.0,0.0,0.0,0.0,0.0,0.0,0.0,0.0,0.0,0.0,0.0,0.0,0.0,0.0,0.0,0.0,0.0,0.0,0.0,0.0,0.0,0.0,0.0,0.0,0.0,0.0,0.0,-3.0609,-3.1475,0.0,0.0,0.0,0.0,0.0,0.0,0.0,0.0,0.0,0.0,0.0,0.0,0.0,0.0,-3.7596,-3.7668,-3.7733,-3.7841,-3.7964,-3.7971,-3.7926,-3.7983,-3.8026,-3.8007,-3.7653,0.0,-3.5238,-3.5007,0.0,0.0,0.0,0.0,0.0,0.0,0.0,0.0,0.0,0.0,0.0,0.0,0.0,0.0,0.0,0.0,0.0,0.0,0.0,0.0,0.0,0.0,0.0,0.0,0.0,0.0,0.0,0.0,0.0,0.0,0.0,-2.9927,-3.0525,-3.0941,-3.1995,-3.3693,-3.5508,-3.6588,-3.6967,-3.7353,-3.7996,-3.88,-3.8028,-3.745,-3.6922,-3.5622,0.0,0.0,0.0,0.0,0.0,0.0,0.0,0.0,0.0,0.0,0.0,0.0,0.0,0.0,0.0,0.0,0.0,0.0,0.0,0.0,0.0,0.0,0.0,0.0,0.0,0.0,0.0,0.0,0.0,0.0,0.0,0.0,0.0,0.0,0.0,0.0,0.0,0.0,0.0,-3.0128,-3.1662,-3.2044,-3.2533,-3.2679,0.0,0.0,0.0,0.0,0.0,0.0,0.0,0.0,0.0,-3.7183,-3.802,-3.8811,-3.9541,-3.9541,-3.9771,-4.02,-3.9751,-3.9528,-3.9514,-3.9599,-3.9669,-3.9669,-3.9669,-3.8941,-3.768,-3.6213,-3.4679,-3.3172,0.0,0.0,0.0,0.0,0.0,-2.9581,0.0,0.0,0.0,0.0,0.0,0.0,0.0,0.0,0.0,0.0,0.0,0.0,0.0,0.0,0.0,-2.9851,0.0,0.0,0.0,0.0,0.0,0.0,0.0,-3.033,-3.1117,-3.1855,-3.3536,-3.615,-3.7681,-3.8428,-3.846,-3.8659,-3.9219,-4.0062,-3.9837,-3.9257,-3.835,-3.7096,-3.6213,-3.5461,0.0,0.0,0.0,0.0,0.0,0.0,0.0,0.0,0.0,0.0,0.0,0.0,0.0,0.0,0.0,0.0,0.0,0.0,0.0,0.0,0.0,0.0,0.0,0.0,0.0,0.0,0.0,0.0,0.0,0.0,0.0,0.0,0.0,0.0,0.0,0.0,0.0,-3.1421,-3.2576,-3.3042,-3.3671,-3.415,0.0,0.0,0.0,0.0,0.0,0.0,-3.6835,-3.7711,-3.8521,-3.927,-4.0121,-4.0825,-4.1351,-4.1298,-4.1584,-4.2206,-4.1345,-4.0935,-4.0935,-4.0829,-4.0784,-4.0797,-4.0797,-4.0429,-3.9655,-3.7485,-3.6297,-3.5708,-3.4385,-3.3264,0.0,-3.2359,-3.2412,-3.2479,0.0,0.0,0.0,0.0,0.0,0.0,0.0,0.0,0.0,0.0,0.0,0.0,0.0,0.0,-3.0011,-3.0857,-3.1788,-3.1975,0.0,0.0,0.0,0.0,-3.0618,-3.1079,-3.1183,-3.3762,-3.6003,-3.7879,-3.8852,-3.9361,-3.9456,-4.0211,-4.1023,-4.1828,-4.1003,-4.0153,-3.9322,-3.9245,-3.786,-3.569,-3.5562,0.0,0.0,0.0,0.0,0.0,0.0,0.0,0.0,0.0,0.0,0.0,0.0,0.0,0.0,0.0,0.0,0.0,0.0,0.0,0.0,0.0,0.0,0.0,0.0,0.0,0.0,0.0,0.0,0.0,0.0,0.0,0.0,0.0,0.0,0.0,0.0,0.0,0.0,-3.5591,-3.5846,0.0,0.0,0.0,0.0,-3.7037,-3.7092,-3.7808,-3.9513,-4.0363,-4.1178,-4.1989,-4.2789,-4.3206,-4.3176,-4.3104,-4.306,-4.3034,-4.2213,-4.1822,-4.1815,-4.1047,-4.0739,-4.0797,-4.0797,-4.0777,-4.0661,-3.9694,-3.8285,-3.6723,-3.6561,-3.5882,-3.5002,-3.4937,-3.5362,-3.5931,0.0,0.0,0.0,0.0,0.0,0.0,0.0,0.0,0.0,0.0,0.0,0.0,0.0,-3.0293,-3.1676,-3.26,-3.3015,-3.3117,-3.2869,0.0,0.0,0.0,-3.181,-3.2524,-3.3818,-3.6458,-3.8178,-3.891,-4.0366,-4.11,-4.1195,-4.2034,-4.2596,-4.2892,-4.257,-4.2247,-4.1796,-4.0108,-3.8891,-3.7937,-3.6306,-3.5123,0.0,0.0,0.0,0.0,0.0,0.0,0.0,0.0,0.0,0.0,0.0,0.0,0.0,0.0,0.0,0.0,0.0,0.0,0.0,0.0,0.0,0.0,0.0,0.0,0.0,0.0,0.0,0.0,0.0,0.0,0.0,0.0,0.0,0.0,0.0,0.0,0.0,-3.6625,-3.7798,0.0,-3.8945,-3.9159,-3.9405,-3.9717,-4.0246,-4.0791,-4.137,-4.2206,-4.2773,-4.3024,-4.382,-4.423,-4.4208,-4.4137,-4.4097,-4.4049,-4.3166,-4.2463,-4.1954,-4.166,-4.1261,-4.0797,-4.0797,-4.0797,-4.0777,-4.0468,-3.9605,-3.8415,-3.7777,-3.7286,-3.6916,-3.6809,-3.6919,-3.7081,0.0,0.0,0.0,0.0,0.0,0.0,0.0,0.0,0.0,0.0,0.0,-2.7825,-2.9549,-3.1242,-3.2638,-3.3545,-3.3941,-3.4044,-3.3812,0.0,0.0,-3.2553,-3.3084,-3.4394,-3.6569,-3.8368,-3.9604,-4.0275,-4.1461,-4.2214,-4.2548,-4.3123,-4.3568,-4.384,-4.353,-4.3537,-4.3647,-4.1615,-4.0417,-3.9708,-3.7704,-3.6439,-3.5507,0.0,0.0,0.0,0.0,0.0,0.0,0.0,0.0,0.0,0.0,0.0,0.0,0.0,0.0,0.0,0.0,0.0,0.0,0.0,0.0,0.0,0.0,0.0,0.0,0.0,0.0,0.0,0.0,0.0,0.0,0.0,0.0,0.0,0.0,0.0,-3.7212,-3.8387,-3.983,-4.0857,-4.1151,-4.1655,-4.1978,-4.1974,-4.2485,-4.2916,-4.3166,-4.3716,-4.4132,-4.4379,-4.487,-4.5138,-4.5148,-4.5079,-4.5041,-4.4994,-4.4103,-4.338,-4.2818,-4.2266,-4.1706,-4.1184,-4.0913,-4.0803,-4.0809,-4.0809,-4.0429,-3.9818,-3.9147,-3.8815,-3.8725,-3.8581,-3.8527,-3.8442,0.0,0.0,0.0,0.0,0.0,0.0,0.0,0.0,0.0,0.0,-2.6798,-2.7991,-2.9693,-3.1399,-3.2787,-3.3657,-3.4499,-3.4659,-3.3894,-3.3836,0.0,-3.2748,-3.4462,-3.6615,-3.9154,-3.9385,-4.0301,-4.1996,-4.2121,-4.2615,-4.3449,-4.3468,-4.3934,-4.4703,-4.3856,-4.3953,-4.4684,-4.3817,-4.2476,-4.0839,-3.9909,-3.805,-3.5794,0.0,0.0,0.0,0.0,0.0,0.0,0.0,0.0,0.0,0.0,0.0,0.0,0.0,0.0,0.0,0.0,0.0,0.0,0.0,0.0,0.0,0.0,0.0,0.0,0.0,0.0,0.0,0.0,0.0,0.0,0.0,0.0,0.0,-3.5927,-3.7461,-3.9228,-4.0973,-4.1942,-4.2811,-4.3666,-4.3777,-4.3788,-4.3788,-4.3726,-4.4042,-4.4899,-4.4945,-4.5301,-4.6078,-4.6032,-4.6011,-4.5997,-4.5949,-4.588,-4.5787,-4.5021,-4.4587,-4.4448,-4.2806,-4.2034,-4.1951,-4.1145,-4.079,-4.0794,-4.0794,-4.0794,-4.0788,-4.0653,-4.0523,-4.0389,-4.027,-4.0205,-4.01,0.0,0.0,0.0,0.0,0.0,0.0,0.0,0.0,0.0,0.0,-2.7762,-2.9116,-3.1434,-3.2637,-3.362,-3.4491,-3.4878,-3.4988,-3.4769,0.0,0.0,-3.5477,-3.7222,-3.8561,-3.9341,-4.0617,-4.1544,-4.2069,-4.3363,-4.4128,-4.4422,-4.5064,-4.5453,-4.5626,-4.5393,-4.539,-4.5524,-4.4688,-4.4081,-4.3445,-4.1296,-3.9615,-3.8252,0.0,0.0,0.0,0.0,0.0,0.0,0.0,0.0,0.0,0.0,0.0,0.0,0.0,0.0,0.0,0.0,0.0,0.0,0.0,0.0,0.0,0.0,0.0,0.0,0.0,0.0,0.0,0.0,0.0,0.0,0.0,0.0,-3.8579,-3.8618,-3.963,-4.1027,-4.2786,-4.3741,-4.4375,-4.4623,-4.5203,-4.5584,-4.5584,-4.5528,-4.5593,-4.5835,-4.5838,-4.5932,-4.6181,-4.6113,-4.6066,-4.6075,-4.6011,-4.5958,-4.5937,-4.566,-4.5234,-4.4602,-4.3512,-4.2679,-4.2027,-4.117,-4.079,-4.0794,-4.0794,-4.0792,-4.0784,-4.0707,-4.0628,-4.053,-4.0397,-4.0304,-4.026,0.0,0.0,0.0,0.0,0.0,0.0,0.0,0.0,0.0,0.0,-2.792,-2.9273,-3.2172,-3.2905,-3.3665,-3.4878,-3.5066,-3.5101,-3.5138,0.0,0.0,-3.7659,-3.8772,-3.9532,-3.9934,-4.1342,-4.2286,-4.2692,-4.4068,-4.4948,-4.5352,-4.5857,-4.6081,-4.6037,-4.6037,-4.5991,-4.5908,-4.5448,-4.5023,-4.4523,-4.2627,-4.1074,-3.9792,-3.8434,-3.7347,-3.644,-3.5525,-3.4283,-3.3022,-3.2588,0.0,0.0,0.0,0.0,0.0,0.0,0.0,0.0,0.0,0.0,0.0,0.0,0.0,0.0,0.0,0.0,0.0,0.0,0.0,0.0,0.0,0.0,0.0,0.0,-3.8913,-4.0582,-4.1716,-4.235,-4.3077,-4.4114,-4.5012,-4.5547,-4.5541,-4.6003,-4.6308,-4.6292,-4.6238,-4.6203,-4.6195,-4.6209,-4.6204,-4.6209,-4.6166,-4.6126,-4.61,-4.6066,-4.6035,-4.5997,-4.596,-4.5691,-4.5168,-4.4336,-4.3465,0.0,-4.1718,-4.1131,-4.08,-4.0792,-4.079,0.0,0.0,0.0,0.0,0.0,-4.043,-4.0392,0.0,0.0,0.0,0.0,0.0,0.0,0.0,0.0,0.0,0.0,0.0,-2.8928,-3.2004,-3.2507,-3.3252,-3.4824,-3.4977,-3.5079,0.0,0.0,-3.7525,-3.9234,-3.9467,-3.9928,-4.0718,-4.1698,-4.2588,-4.335,-4.4232,-4.5105,-4.5966,-4.5966,-4.6016,-4.611,-4.611,-4.6071,-4.6002,-4.5994,-4.5553,-4.4736,-4.3705,-4.2299,-4.0733,-3.9795,-3.8898,-3.8036,-3.7247,-3.6309,-3.5319,-3.4534,0.0,0.0,0.0,0.0,0.0,0.0,0.0,0.0,0.0,0.0,0.0,0.0,0.0,0.0,0.0,0.0,0.0,0.0,0.0,0.0,0.0,0.0,0.0,0.0,-4.0693,-4.2248,-4.4565,-4.4988,-4.5067,-4.5129,-4.5812,-4.6308,-4.6303,-4.6296,-4.6308,-4.6302,-4.6243,-4.6209,-4.6206,0.0,0.0,0.0,0.0,-4.6174,-4.6105,-4.6105,-4.6075,-4.6003,-4.6003,-4.5966,-4.5879,-4.5078,-4.4284,-4.3485,-4.2516,-4.1664,-4.0947,-4.0859,-4.0812,-4.0807,-4.0744,-4.0719,-4.0687,-4.0648,-4.0571,0.0,0.0,0.0,0.0,0.0,0.0,0.0,0.0,0.0,0.0,-2.5697,-2.7585,-2.9302,-3.0591,-3.1907,-3.3081,-3.4042,-3.4189,-3.4829,0.0,-3.7203,-3.8226,-3.9333,-4.0063,-4.0575,-4.0854,-4.1733,-4.231,-4.252,-4.3421,-4.4289,-4.513,-4.5129,-4.5515,-4.6177,-4.6177,-4.6132,-4.6071,-4.6021,-4.5867,-4.5511,-4.3872,-4.2593,-4.1567,-4.0638,-3.9731,-3.8935,-3.8728,-3.7614,-3.6222,-3.6006,-3.4869,-3.3496,-3.3177,0.0,0.0,0.0,0.0,0.0,0.0,0.0,0.0,0.0,0.0,0.0,0.0,0.0,0.0,0.0,0.0,0.0,0.0,0.0,0.0,-4.0563,-4.2567,-4.4245,-4.4759,-4.5469,-4.5945,-4.5966,-4.6166,-4.6308,-4.6302,-4.6291,-4.6302,-4.63,-4.6288,-4.6258,-4.6209,-4.6203,0.0,-4.6192,-4.619,-4.6173,-4.6108,-4.6108,-4.6066,-4.5991,0.0,0.0,-4.5942,-4.5085,-4.4602,-4.4364,-4.277,-4.2039,-4.1862,-4.1168,-4.0877,-4.0872,-4.0812,-4.0757,-4.0694,-4.0739,-4.0673,-4.058,0.0,0.0,0.0,0.0,0.0,0.0,0.0,0.0,0.0,0.0,-2.6498,-2.7893,-2.9577,-3.0823,-3.1871,-3.2678,-3.3549,0.0,-3.7159,-3.7733,-3.8605,-3.9986,-4.0499,-4.0807,-4.0907,-4.1779,-4.2276,-4.2296,-4.3171,-4.3821,-4.4253,-4.4692,-4.5137,-4.5566,-4.6014,-4.6165,-4.6095,-4.6032,-4.5964,-4.5783,-4.4407,-4.3306,-4.2352,-4.1016,-4.0222,-3.9799,-3.9766,-3.8629,-3.7141,-3.7118,-3.5914,-3.4369,-3.3944,-3.3189,-3.236,0.0,0.0,0.0,0.0,0.0,0.0,0.0,0.0,0.0,0.0,0.0,0.0,0.0,0.0,-3.6091,0.0,0.0,-4.1241,-4.2636,-4.3946,-4.495,-4.5429,-4.5901,-4.6197,-4.62,-4.6263,-4.6308,-4.6302,-4.6294,-4.6305,-4.6302,-4.629,-4.6282,-4.6258,-4.6211,-4.6198,-4.6193,-4.62,-4.6183,-4.6154,-4.6122,-4.608,-4.6042,-4.6026,-4.6002,-4.5982,-4.5559,-4.5115,-4.4652,-4.3788,-4.2928,-4.2075,-4.1246,-4.0893,-4.0903,-4.0856,-4.0818,-4.0757,-4.0796,-4.0713,-4.0598,0.0,0.0,0.0,0.0,0.0,0.0,0.0,0.0,0.0,0.0,-2.5266,-2.6273,-2.8487,-2.9467,-3.034,0.0,0.0,0.0,-3.7384,-3.7848,-3.8762,-4.039,-4.0693,-4.0849,-4.0921,-4.1665,-4.2045,-4.2071,-4.2767,-4.3202,-4.3397,-4.4257,-4.4757,-4.4938,-4.5811,-4.6177,-4.6119,-4.6042,-4.5975,-4.5814,-4.4697,-4.3793,-4.2911,-4.1133,-4.0424,-4.0344,-4.0144,-3.9075,-3.7693,-3.7549,-3.6429,-3.4933,-3.4248,-3.3863,-3.3535,-3.2826,-3.2468,0.0,0.0,0.0,0.0,0.0,0.0,0.0,0.0,0.0,-3.4276,-3.5688,-3.6176,-3.7253,-4.0236,-4.1078,-4.2061,-4.4399,-4.4923,-4.5324,-4.6064,-4.6193,-4.6192,-4.6195,-4.6259,-4.6308,-4.6305,-4.63,-4.6293,-4.6303,-4.6296,-4.631,-4.6306,-4.6258,-4.6206,-4.6206,-4.6209,-4.619,-4.6209,-4.6149,-4.6113,-4.6105,-4.6047,-4.6017,-4.6017,-4.6012,-4.5647,-4.4941,-4.4605,-4.3566,-4.2056,-4.1237,-4.0908,-4.0907,-4.0903,-4.0856,-4.0806,-4.08,-4.072,-4.0581,0.0,0.0,0.0,0.0,0.0,0.0,0.0,0.0,0.0,0.0,0.0,0.0,0.0,0.0,0.0,0.0,0.0,-3.4718,-3.581,-3.7326,-3.8611,-3.9594,-4.0431,-4.0921,-4.0988,-4.1087,-4.1172,-4.1229,-4.1337,-4.1774,-4.2554,-4.3431,-4.4211,-4.4947,-4.5813,-4.6206,-4.6185,-4.6123,-4.6046,-4.5825,-4.4053,-4.325,-4.2901,-4.1038,-4.029,-4.012,-3.928,-3.8317,-3.7337,-3.6692,-3.578,-3.4908,-3.4813,-3.4245,-3.3583,-3.3412,-3.2825,-3.2193,-3.2089,-3.2157,-3.2636,-3.4267,-3.4797,-3.5345,0.0,0.0,-3.7401,-3.7658,-3.8389,-3.9322,-4.0507,-4.2036,-4.3449,-4.4547,-4.541,-4.5981,-4.6098,-4.6153,-4.6195,-4.6189,-4.6255,-4.6308,-4.6308,-4.6305,-4.6299,-4.6293,-4.6291,-4.6303,-4.6306,-4.6292,-4.6264,-4.6206,-4.6198,-4.6203,-4.6209,-4.6185,-4.6154,-4.6093,-4.6089,-4.6089,-4.6089,-4.6085,-4.6037,-4.5857,-4.4312,-4.3078,-4.2126,-4.1252,-4.0903,-4.0907,-4.0903,-4.0854,-4.0801,-4.0806,-4.072,-4.0607,0.0,0.0,0.0,0.0,0.0,0.0,0.0,0.0,0.0,0.0,0.0,0.0,0.0,0.0,0.0,0.0,-3.1526,-3.3155,-3.5496,-3.6341,-3.7588,-3.9474,-3.9966,-4.0457,-4.0996,-4.1042,-4.107,-4.1095,-4.1108,-4.1289,-4.1661,-4.2539,-4.3397,-4.4234,-4.5067,-4.5735,-4.6196,-4.617,-4.6099,-4.5878,-4.455,-4.3656,-4.2945,-4.1493,-4.0508,-3.9819,-3.9016,-3.8131,0.0,0.0,-3.554,-3.484,-3.484,-3.4554,-3.424,-3.416,-3.3853,-3.3652,-3.4196,-3.4479,-3.4927,-3.6281,-3.668,-3.6971,-3.7724,-3.7939,-3.8099,-3.8647,-3.9101,-3.9831,-4.1203,-4.2486,-4.3639,0.0,-4.5447,-4.6056,-4.6095,-4.6123,-4.6137,-4.6144,-4.6199,-4.6252,-4.6305,-4.6308,-4.6306,-4.6299,-4.6295,-4.6308,-4.6294,-4.6292,-4.6286,-4.625,-4.622,-4.6206,-4.6203,-4.6201,-4.6185,-4.6154,-4.6122,-4.6098,-4.6098,-4.6104,-4.6095,-4.6037,-4.4788,-4.3763,-4.2889,-4.2015,-4.1354,-4.0907,-4.0907,-4.0883,-4.0848,-4.0815,-4.0745,-4.0647,0.0,0.0,0.0,0.0,0.0,0.0,0.0,0.0,0.0,0.0,0.0,0.0,0.0,0.0,0.0,0.0,-3.0366,-3.1788,-3.4501,-3.5344,-3.658,-3.8461,-3.931,-4.0027,-4.0661,-4.0947,-4.1108,-4.1108,-4.1098,-4.1105,-4.1124,-4.1983,-4.2744,-4.3387,-4.4202,-4.4911,-4.5517,-4.5482,-4.5414,-4.5235,-4.4263,-4.3413,-4.2579,-4.1437,-4.0287,-3.9218,-3.8474,-3.7731,0.0,0.0,-3.5114,-3.4645,-3.4676,-3.4655,-3.4612,-3.455,-3.4708,-3.5049,-3.5762,-3.6259,-3.6844,-3.7831,-3.8163,-3.8319,-3.8558,-3.8642,-3.8871,-3.9495,-3.967,-4.0188,-4.1696,-4.2505,-4.3318,-4.4478,-4.5221,-4.5774,-4.6056,-4.6098,-4.6099,-4.6099,-4.6167,-4.6214,-4.6267,-4.6284,-4.6308,-4.6306,-4.6301,-4.6293,-4.6305,-4.6294,-4.6308,-4.6303,-4.6248,-4.6215,-4.6192,-4.6203,-4.6204,-4.6204,-4.6146,-4.6134,-4.6134,-4.613,-4.6113,-4.6051,-4.5187,-4.4433,-4.3773,-4.266,-4.1825,-4.1238,-4.0985,-4.0908,-4.0883,-4.0842,-4.0761,-4.0688,0.0,0.0,0.0,0.0,0.0,0.0,0.0,0.0,0.0,0.0,0.0,0.0,0.0,0.0,0.0,-2.819,-2.9768,-3.111,-3.2043,-3.4431,-3.5823,-3.59,-3.8413,-3.9802,-3.9841,-4.0664,-4.1092,-4.1092,-4.1103,-4.1108,-4.1127,-4.1984,-4.2414,-4.2472,-4.3342,-4.3747,-4.3763,-4.3701,-4.3635,-4.3489,-4.2471,-4.1943,-4.1599,-4.0396,-3.9266,-3.8223,-3.7285,0.0,0.0,-3.4791,-3.424,-3.4245,-3.4363,-3.4416,0.0,-3.4416,-3.5106,-3.5896,-3.6037,-3.6814,-3.7804,-3.8807,-3.9101,-3.9392,-4.0239,-4.0419,-4.0439,-4.0458,-4.0527,-4.0838,-4.1751,-4.1981,-4.2602,-4.4331,-4.4719,-4.5133,-4.5979,-4.6099,-4.6098,-4.6098,-4.6154,-4.6206,0.0,-4.6262,-4.6304,-4.6307,-4.6307,-4.63,-4.6293,-4.6305,-4.6296,-4.6306,-4.6303,-4.6277,-4.6206,-4.6192,-4.6203,-4.6203,-4.6206,-4.6196,-4.6196,-4.6197,-4.6158,-4.6054,-4.5176,-4.4773,-4.4637,-4.2903,-4.2175,-4.2078,-4.1238,-4.0908,-4.0902,-4.0902,-4.0809,-4.0707,0.0,0.0,0.0,0.0,0.0,0.0,0.0,0.0,0.0,0.0,0.0,0.0,0.0,0.0,0.0,0.0,-2.8381,-2.9669,-3.1106,-3.2509,-3.405,-3.5785,-3.6732,-3.7743,-3.8901,-3.9226,-3.9376,-3.9376,-3.9951,-4.0249,-4.0268,-4.1127,-4.1849,-4.2414,-4.2719,-4.3158,-4.3695,-4.3623,-4.3557,-4.3408,-4.2361,-4.1475,-4.0622,-3.9279,-3.8051,-3.6872,0.0,0.0,0.0,-3.4249,-3.3921,-3.4023,-3.4111,-3.4197,-3.4381,-3.5006,-3.5497,-3.6239,-3.8061,-3.8903,-3.9643,-4.1225,-4.1236,-4.0941,-4.1288,-4.0912,-4.0496,-4.0496,-4.0065,-3.9935,-4.0819,-4.1038,-4.1645,-4.3395,-4.4271,-4.5048,-4.5915,-4.6076,-4.609,-4.609,-4.6115,0.0,0.0,0.0,0.0,-4.6303,-4.6308,-4.6306,-4.63,-4.6293,-4.6305,-4.6296,-4.6308,-4.6284,-4.6279,-4.6226,-4.6195,-4.6203,-4.6206,-4.6199,-4.6196,-4.6197,-4.6185,-4.6158,-4.5802,-4.5326,-4.4718,-4.3548,-4.2723,-4.2101,-4.1247,-4.0903,-4.0893,-4.0893,-4.0837,-4.0754,0.0,0.0,0.0,0.0,0.0,0.0,0.0,0.0,0.0,0.0,0.0,0.0,0.0,0.0,0.0,0.0,0.0,-2.8505,-3.0224,-3.1113,-3.2455,-3.4464,-3.5144,-3.5994,-3.713,-3.7757,-3.8076,-3.8074,-3.8938,-3.937,-3.937,-3.9938,-4.0504,-4.1049,-4.1021,-4.1322,-4.1835,-4.1763,-4.1692,-4.1573,-4.0803,-4.0011,-3.9135,-3.8019,-3.6805,0.0,0.0,0.0,-3.3991,-3.3575,-3.3573,-3.3753,-3.3881,-3.4277,-3.4834,-3.5513,-3.644,-3.7615,-3.9426,-4.0478,-4.1371,-4.262,-4.2317,-4.1736,-4.1772,-4.1099,-4.0407,-4.0068,-3.9544,-3.9336,-3.9904,-4.0053,-4.0776,-4.2851,-4.3775,-4.4658,-4.5871,-4.6076,-4.6095,-4.6104,-4.6119,-4.6153,0.0,0.0,0.0,-4.6295,-4.6307,-4.6308,-4.6306,-4.6299,-4.6291,-4.6305,-4.6296,-4.629,-4.629,-4.626,-4.6226,-4.6203,-4.6206,-4.6199,-4.6196,-4.6204,-4.6201,-4.6197,-4.6158,-4.5639,-4.4763,-4.3901,-4.3013,-4.211,-4.128,-4.0917,-4.0907,-4.0908,-4.0858,-4.0782,0.0,0.0,0.0,0.0,0.0,0.0,0.0,0.0,0.0,0.0,0.0,0.0,0.0,0.0,0.0,0.0,0.0,0.0,-2.927,-3.0235,-3.1127,-3.2009,-3.3661,-3.4584,-3.4638,-3.6251,-3.7093,-3.7108,-3.7966,-3.8397,-3.8397,-3.8456,-3.8475,-3.8474,-3.8443,-3.8434,-3.8422,-3.8416,-3.8354,-3.8263,-3.8067,-3.7712,-3.7251,-3.6638,0.0,0.0,0.0,0.0,-3.2352,-3.2816,-3.3162,-3.3466,-3.3794,-3.469,-3.5676,-3.6006,-3.7857,-3.9872,-4.021,-4.1562,-4.29,-4.3085,-4.2494,-4.1838,-4.1777,-4.1097,-4.0227,-3.928,-3.9044,-3.9044,0.0,0.0,-4.0015,-4.2683,-4.3279,-4.4012,-4.5799,-4.6065,-4.6106,0.0,0.0,0.0,0.0,0.0,0.0,-4.6302,0.0,-4.6308,-4.6308,-4.6302,-4.6294,-4.6293,-4.6305,-4.6302,-4.63,-4.631,-4.6253,-4.6206,-4.6206,-4.6199,-4.6199,-4.616,-4.6141,-4.6137,-4.608,-4.5605,-4.4768,-4.3888,-4.3007,-4.211,-4.1317,-4.0954,-4.0907,-4.0907,-4.0854,-4.0801,0.0,0.0,0.0,0.0,0.0,0.0,0.0,0.0,0.0,0.0,0.0,0.0,0.0,0.0,0.0,0.0,0.0,0.0,-2.7608,-2.9067,-3.0274,-3.1094,-3.217,-3.3073,-3.372,-3.4171,-3.4387,-3.4385,-3.5263,-3.5693,-3.5712,-3.6357,-3.6668,-3.6683,-3.7274,-3.7527,-3.7573,-3.8093,-3.8253,-3.8121,0.0,-3.7071,-3.6061,0.0,0.0,0.0,0.0,0.0,-3.2019,-3.2521,-3.3114,-3.3794,-3.4763,-3.5342,-3.608,-3.8184,-3.9353,-4.0397,-4.2447,-4.3417,-4.401,-4.4679,-4.3765,-4.2652,-4.2554,-4.1396,-4.0076,-3.9145,-3.8431,-3.8175,0.0,0.0,0.0,-4.1708,-4.2866,0.0,-4.4963,-4.5728,0.0,-4.6169,0.0,-4.6228,-4.6275,-4.6291,0.0,0.0,-4.6305,-4.6308,-4.6308,-4.6307,-4.6301,-4.6294,-4.6291,-4.6306,-4.63,-4.6243,-4.6228,-4.6201,-4.6193,-4.6199,-4.618,-4.5537,-4.5225,-4.5205,-4.4533,-4.414,-4.3867,-4.2992,-4.2498,-4.2194,-4.133,-4.0982,-4.0974,-4.0917,-4.0854,-4.0807,0.0,0.0,0.0,0.0,0.0,0.0,0.0,0.0,0.0,0.0,0.0,0.0,0.0,0.0,0.0,0.0,0.0,0.0,0.0,-2.8279,-2.9391,-3.025,-3.1111,-3.1794,-3.2282,-3.2654,-3.2829,0.0,0.0,0.0,-3.4136,-3.4625,-3.4859,-3.4874,-3.5333,-3.5523,-3.5502,-3.5903,0.0,0.0,0.0,0.0,0.0,0.0,0.0,0.0,0.0,-3.1747,-3.1839,-3.2403,-3.3312,-3.438,-3.5274,-3.6159,-3.7276,-3.926,-4.0466,-4.1554,-4.348,-4.4355,-4.4758,-4.4901,-4.3913,-4.2784,-4.2298,-4.0864,-3.9376,-3.8403,-3.7527,-3.7195,-3.7992,-3.7909,-3.8727,0.0,0.0,0.0,-4.5172,-4.5857,-4.6192,0.0,-4.6228,0.0,-4.6305,-4.6296,-4.6301,0.0,-4.6305,-4.6307,-4.6308,-4.6308,-4.6305,-4.6301,-4.6296,-4.6309,-4.63,-4.6264,-4.6233,-4.6206,-4.6203,-4.5992,-4.5615,-4.5127,-4.4699,-4.4306,0.0,-4.3387,-4.2997,-4.25,-4.2064,-4.1687,-4.1198,-4.1003,-4.1006,-4.095,-4.0893,-4.0842,0.0,0.0,0.0,0.0,0.0,0.0,0.0,0.0,0.0,0.0,0.0,0.0,0.0,0.0,0.0,0.0,0.0,0.0,0.0,0.0,0.0,-2.9394,-3.037,-3.0898,-3.0898,-3.1582,0.0,0.0,0.0,0.0,0.0,0.0,0.0,0.0,0.0,0.0,0.0,0.0,0.0,0.0,0.0,0.0,0.0,0.0,0.0,0.0,-3.1584,-3.1562,-3.1805,-3.2369,-3.3599,-3.4995,-3.5584,-3.6991,-3.8671,-3.9889,-4.1385,-4.2853,-4.3892,-4.4775,-4.5207,-4.4375,-4.3465,-4.2508,-4.1445,-4.0022,-3.8591,-3.736,-3.6631,-3.6455,-3.7165,-3.7441,-3.8697,-4.2099,0.0,-4.3859,-4.5512,-4.5998,-4.6183,-4.6198,-4.6245,-4.6282,-4.6291,-4.6299,-4.6301,-4.6301,-4.6305,-4.6307,-4.6307,-4.6308,-4.6307,-4.6307,-4.63,-4.6309,-4.6302,-4.629,-4.6279,-4.6209,-4.6195,-4.5732,-4.4897,-4.478,-4.4251,-4.3426,0.0,0.0,-4.214,-4.214,-4.1705,-4.1009,-4.1009,-4.1007,-4.0995,-4.101,-4.0956,-4.0907,0.0,0.0,0.0,0.0,0.0,0.0,0.0,0.0,0.0,0.0,0.0,0.0,0.0,0.0,0.0,0.0,0.0,0.0,0.0,0.0,0.0,0.0,-3.0055,-3.0895,-3.0896,-3.1032,0.0,0.0,0.0,0.0,0.0,0.0,0.0,0.0,0.0,0.0,0.0,0.0,0.0,0.0,0.0,0.0,0.0,0.0,0.0,0.0,-3.1242,-3.1504,-3.193,-3.2231,-3.3486,-3.5087,-3.6229,-3.7493,-3.902,-4.1358,-4.2383,-4.309,-4.4647,-4.5234,-4.5187,-4.4248,-4.3367,-4.2274,-4.0558,-3.9884,0.0,-3.6607,-3.6554,-3.6991,-3.7178,-3.7389,-3.8223,-4.0415,-4.2159,-4.337,-4.3804,-4.5171,-4.6142,0.0,-4.6209,-4.6234,-4.6282,-4.6295,0.0,0.0,0.0,0.0,-4.6307,-4.6308,-4.6308,-4.6307,-4.63,-4.6293,-4.6291,-4.6294,-4.6284,-4.6282,-4.6231,-4.5747,-4.4877,-4.4156,-4.3347,-4.2491,0.0,0.0,-4.1302,-4.1302,-4.1224,-4.1085,-4.1013,-4.1002,-4.0995,-4.0999,-4.0969,-4.0898,0.0,0.0,0.0,0.0,0.0,0.0,0.0,0.0,0.0,0.0,-2.5425,-2.5475,0.0,0.0,0.0,0.0,0.0,0.0,0.0,0.0,0.0,0.0,0.0,0.0,0.0,-3.0892,0.0,0.0,0.0,0.0,0.0,0.0,0.0,0.0,0.0,0.0,0.0,0.0,0.0,0.0,0.0,0.0,0.0,0.0,0.0,0.0,0.0,-3.1199,-3.1893,-3.2266,-3.341,-3.4892,-3.6266,-3.7797,-3.9418,-4.123,-4.2161,-4.2868,-4.4176,-4.4511,-4.432,-4.3433,-4.2199,-4.084,-3.9478,0.0,0.0,-3.6077,-3.5765,-3.6025,-3.6922,-3.7292,-3.8183,-4.0444,-4.2104,-4.3303,-4.3886,-4.517,-4.6069,-4.6142,-4.6173,-4.6206,0.0,-4.6284,0.0,0.0,0.0,0.0,-4.6307,-4.6308,-4.6308,-4.6307,-4.6304,-4.63,-4.6293,-4.6305,-4.6296,-4.6284,-4.5809,-4.5116,-4.4245,-4.3362,-4.2496,-4.1649,0.0,0.0,-4.1107,-4.1107,-4.1107,-4.1107,-4.1062,-4.1036,-4.1006,-4.1007,-4.098,-4.0945,0.0,0.0,0.0,0.0,0.0,0.0,0.0,-2.4643,-2.5243,-2.5356,-2.5391,-2.5434,-2.5486,-2.5568,0.0,0.0,0.0,0.0,0.0,0.0,0.0,0.0,0.0,0.0,0.0,0.0,0.0,0.0,0.0,0.0,0.0,0.0,0.0,0.0,0.0,0.0,0.0,0.0,0.0,0.0,0.0,0.0,0.0,0.0,0.0,0.0,0.0,-3.1007,-3.1793,-3.2317,-3.3366,-3.4637,-3.5818,-3.7582,-3.9396,-4.0443,-4.138,-4.2295,-4.3229,-4.3433,-4.3201,-4.2424,-4.101,-3.9517,-3.8467,-3.7284,-3.628,-3.5815,-3.549,-3.5705,-3.704,-3.7498,-3.8403,-4.0668,-4.1981,-4.3063,-4.4093,-4.5089,-4.5818,0.0,-4.6151,0.0,-4.6203,0.0,0.0,0.0,0.0,0.0,-4.6307,-4.6308,-4.6308,-4.6307,-4.6307,-4.6305,-4.6297,-4.6294,-4.6306,-4.6292,-4.543,-4.4543,-4.3673,-4.2805,-4.1919,-4.1095,0.0,0.0,0.0,-4.1094,-4.1094,-4.1094,-4.1097,-4.1071,-4.102,-4.1016,-4.0991,-4.0999,0.0,0.0,0.0,0.0,0.0,0.0,0.0,-2.464,-2.5233,-2.5303,-2.5359,-2.5426,-2.5492,-2.5559,0.0,0.0,0.0,0.0,0.0,0.0,0.0,0.0,0.0,0.0,0.0,0.0,0.0,0.0,0.0,0.0,0.0,0.0,0.0,0.0,0.0,0.0,0.0,0.0,0.0,0.0,0.0,0.0,0.0,0.0,0.0,0.0,0.0,-3.1162,-3.1472,-3.2309,-3.345,-3.4542,-3.4786,-3.6376,-3.8351,-3.9346,-4.0345,-4.1326,-4.2198,-4.2437,-4.226,-4.1514,-4.0545,-3.9365,-3.7713,0.0,-3.7638,-3.6117,-3.6892,-3.7928,-3.815,-3.8362,-3.8877,-4.001,-4.1121,-4.2173,-4.318,-4.4182,-4.5121,-4.5905,0.0,0.0,-4.6206,0.0,0.0,0.0,0.0,0.0,0.0,-4.6308,-4.6308,-4.6308,-4.6308,-4.6307,-4.6306,-4.6299,-4.6293,-4.6291,-4.5423,-4.4536,-4.3667,-4.2809,-4.192,-4.1095,0.0,0.0,0.0,-4.1106,-4.1092,-4.1095,-4.1106,-4.1103,-4.107,-4.1016,-4.0997,-4.0999,0.0,0.0,0.0,0.0,0.0,0.0,0.0,-2.4295,-2.5228,-2.5297,-2.5365,-2.5432,-2.5487,-2.556,0.0,0.0,0.0,0.0,0.0,0.0,0.0,0.0,0.0,0.0,0.0,0.0,0.0,-3.0804,-3.0804,0.0,0.0,0.0,0.0,0.0,0.0,0.0,0.0,0.0,0.0,0.0,0.0,0.0,0.0,0.0,0.0,0.0,0.0,0.0,-3.1658,-3.2043,-3.2857,-3.3756,-3.3876,-3.5271,-3.7091,-3.821,-3.9588,-4.0841,-4.1274,-4.1393,-4.133,-4.1083,-3.9583,-3.7988,-3.7295,0.0,-3.6609,-3.5949,-3.6698,-3.7616,-3.8158,-3.8387,-3.8858,-3.9832,-4.0903,-4.1801,-4.2287,-4.3221,-4.4205,-4.5107,-4.5308,0.0,0.0,0.0,0.0,0.0,0.0,0.0,0.0,-4.6308,-4.6055,-4.5527,-4.6035,-4.6054,-4.5526,-4.6031,-4.6046,-4.5512,-4.463,-4.3766,-4.2896,-4.2015,-4.1421,-4.1098,0.0,0.0,0.0,-4.1103,-4.1106,-4.1108,-4.1091,-4.1106,-4.1095,-4.107,-4.1033,-4.0924,0.0,0.0,0.0,0.0,0.0,0.0,-2.2589,-2.4074,-2.5217,-2.5282,-2.5356,-2.5423,-2.5491,-2.5554,-2.5599,-2.5605,0.0,0.0,0.0,0.0,0.0,0.0,0.0,0.0,0.0,0.0,-3.0802,-3.0806,-3.0789,-3.0745,0.0,0.0,0.0,0.0,0.0,0.0,0.0,0.0,0.0,0.0,0.0,0.0,0.0,0.0,0.0,0.0,0.0,0.0,0.0,0.0,0.0,-3.302,-3.3306,-3.4462,-3.5933,-3.7114,-3.8747,-4.0213,-4.0358,-4.0409,-4.0466,-4.0528,-3.8799,-3.7068,-3.7068,-3.6578,-3.6126,-3.6126,-3.6962,-3.7816,-3.8147,-3.836,-3.872,-3.944,-4.0311,-4.1093,-4.1708,-4.2465,-4.3291,0.0,0.0,0.0,0.0,0.0,0.0,0.0,0.0,0.0,0.0,-4.5917,-4.5625,-4.5019,-4.5605,-4.5625,-4.5018,-4.5858,-4.5855,-4.4989,-4.4128,-4.3246,-4.238,-4.1493,-4.1097,0.0,0.0,0.0,0.0,-4.1098,-4.1098,-4.1093,-4.1098,-4.1091,-4.1095,-4.107,-4.0877,-4.0539,0.0,0.0,0.0,0.0,0.0,0.0,0.0,-2.4088,-2.5222,-2.5287,-2.536,-2.5437,-2.5491,-2.5564,-2.5609,-2.5608,0.0,0.0,0.0,0.0,0.0,0.0,0.0,0.0,0.0,0.0,-3.0808,-3.08,-3.0723,-3.0694,-3.0691,-3.0699,0.0,0.0,0.0,0.0,0.0,0.0,0.0,0.0,0.0,0.0,0.0,0.0,0.0,0.0,0.0,0.0,0.0,0.0,0.0,0.0,0.0,-3.4055,-3.5027,-3.6113,-3.7729,-3.9237,-3.9369,-3.9508,-3.962,-3.97,-3.835,-3.6998,-3.6998,-3.6937,-3.6889,-3.6889,-3.8196,-3.9119,-3.834,-3.8367,-3.855,-3.8695,-3.8998,0.0,-4.1563,-4.1976,-4.2445,0.0,0.0,0.0,0.0,0.0,0.0,0.0,0.0,0.0,0.0,-4.5019,-4.5019,-4.5,-4.5019,-4.5019,-4.5,-4.5859,-4.5858,-4.4998,-4.4112,-4.3248,-4.2368,-4.1503,0.0,0.0,0.0,0.0,0.0,-4.1107,-4.1105,-4.1096,-4.1107,-4.1098,-4.1095,-4.1039,-4.0458,-3.9717,0.0,0.0,0.0,0.0,0.0,0.0,0.0,-2.3572,-2.4542,-2.5205,-2.537,-2.5421,-2.5491,-2.5564,-2.5593,-2.5598,0.0,0.0,0.0,0.0,0.0,0.0,0.0,0.0,0.0,0.0,-3.0195,-3.0796,-3.0734,-3.0694,-3.0695,-3.0694,-3.0706,-3.0701,0.0,0.0,0.0,0.0,0.0,0.0,0.0,0.0,0.0,0.0,0.0,0.0,0.0,0.0,0.0,0.0,0.0,0.0,0.0,0.0,0.0,-3.5432,-3.6828,-3.8265,-3.8417,-3.8508,-3.8453,-3.7915,-3.6943,-3.6103,-3.6103,-3.6109,-3.6085,-3.6085,-3.6975,-3.7685,-3.7428,-3.7532,-3.7899,-3.8581,-3.8898,-3.9495,0.0,0.0,0.0,-4.2396,0.0,0.0,0.0,0.0,0.0,0.0,0.0,0.0,0.0,0.0,-4.3222,-4.3223,-4.3808,-4.3828,-4.3223,-4.4082,-4.4081,-4.322,-4.2945,-4.2356,-4.1509,-4.1233,0.0,0.0,0.0,0.0,0.0,-4.1103,-4.1097,-4.1107,-4.1092,-4.1074,-4.1039,-4.1013,-4.0448,-3.9618,0.0,0.0,0.0,0.0,0.0,0.0,0.0,-2.3367,-2.4265,-2.5186,-2.5379,-2.5448,-2.5491,-2.555,-2.56,-2.5604,0.0,0.0,0.0,0.0,0.0,0.0,0.0,0.0,0.0,-2.9186,-2.9766,-3.0305,-3.0603,-3.0898,-3.119,-3.1197,-3.1197,-3.1187,-3.124,0.0,0.0,0.0,0.0,0.0,0.0,0.0,-3.0367,0.0,0.0,0.0,0.0,0.0,0.0,0.0,0.0,0.0,0.0,0.0,0.0,0.0,-3.5992,-3.6965,-3.7421,-3.7598,-3.7517,-3.7025,-3.6291,0.0,-3.5657,-3.5645,-3.5621,-3.5621,-3.6292,-3.6807,-3.6557,-3.6652,-3.7085,-3.8048,-3.8385,-3.8967,0.0,0.0,0.0,-4.1568,0.0,0.0,0.0,0.0,0.0,0.0,0.0,0.0,0.0,0.0,-4.2244,-4.1913,-4.2753,-4.2949,-4.2402,-4.3262,-4.3262,-4.2402,-4.2401,-4.1949,-4.1104,0.0,0.0,0.0,0.0,0.0,0.0,-4.1109,-4.1101,-4.1107,-4.1107,-4.1064,-4.0961,-4.0623,-3.996,-3.9074,0.0,0.0,0.0,0.0,0.0,0.0,0.0,0.0,0.0,0.0,-2.5421,-2.5496,-2.5499,-2.5562,0.0,0.0,0.0,0.0,0.0,0.0,0.0,0.0,0.0,0.0,0.0,-2.8587,-2.9438,-2.9496,-3.0363,-3.1207,-3.201,-3.1997,-3.1991,-3.2013,-3.2002,-3.1551,-3.0809,-3.08,-3.0753,-3.0682,-3.0621,-3.0567,0.0,0.0,0.0,0.0,0.0,0.0,0.0,0.0,0.0,0.0,0.0,0.0,0.0,0.0,0.0,0.0,0.0,-3.6708,-3.6789,-3.6733,-3.6093,-3.5504,-3.5504,-3.5454,0.0,-3.5417,-3.6012,-3.636,-3.5737,-3.5732,-3.6144,-3.7163,-3.7537,-3.832,0.0,-4.0423,0.0,0.0,0.0,0.0,0.0,0.0,0.0,0.0,0.0,0.0,0.0,0.0,-4.1947,-4.1126,-4.1891,-4.2303,-4.2303,-4.3105,-4.3105,-4.2305,-4.2304,-4.1874,-4.1092,0.0,0.0,0.0,0.0,0.0,0.0,-4.1109,-4.1097,-4.1093,-4.1093,-4.107,-4.0886,-4.003,-3.9151,-3.8276,0.0,0.0,0.0,0.0,0.0,0.0,0.0,0.0,0.0,0.0,0.0,-2.5503,-2.5501,-2.5551,0.0,0.0,0.0,0.0,0.0,0.0,0.0,0.0,0.0,0.0,0.0,-2.7991,-2.8825,-2.9496,-3.0363,-3.1231,-3.2085,-3.2029,-3.2035,-3.2079,-3.2072,-3.1606,-3.0799,-3.0797,-3.077,-3.0708,-3.0688,-3.0629,0.0,0.0,0.0,0.0,-3.0273,-3.0173,0.0,0.0,0.0,0.0,0.0,0.0,0.0,0.0,-3.437,-3.4432,-3.4736,0.0,-3.5671,-3.5002,-3.4692,-3.4519,0.0,-3.4506,-3.4506,-3.4506,-3.4746,-3.4916,-3.4798,-3.4927,-3.5395,-3.6387,-3.7157,-3.8039,-3.9248,0.0,0.0,0.0,0.0,0.0,0.0,0.0,0.0,0.0,0.0,0.0,0.0,0.0,-4.1311,-4.1104,-4.1293,-4.1419,-4.1404,-4.1618,-4.1619,-4.1405,-4.1404,-4.1308,-4.1094,0.0,0.0,0.0,0.0,0.0,-4.1097,-4.1097,-4.1103,-4.1093,-4.1093,-4.1061,-4.0887,-4.0023,-3.9143,-3.8274,0.0,0.0,0.0,0.0,0.0,0.0,0.0,0.0,0.0,0.0,0.0,0.0,0.0,0.0,0.0,0.0,0.0,0.0,0.0,0.0,0.0,0.0,0.0,0.0,-2.6382,-2.7583,-2.8433,-2.8892,-3.0173,-3.1456,-3.2705,-3.2656,-3.2661,-3.2659,-3.1865,-3.1234,-3.0801,-3.0795,-3.0771,-3.074,-3.0716,0.0,0.0,0.0,0.0,0.0,-3.0425,-3.0318,0.0,-3.0932,-3.1335,-3.1767,0.0,0.0,0.0,0.0,-3.4148,-3.4161,-3.4185,-3.4531,-3.4804,-3.4309,-3.4197,-3.4197,-3.4197,-3.4197,-3.4197,-3.4197,-3.4257,-3.434,-3.4484,-3.4945,-3.5507,-3.614,-3.7005,0.0,0.0,0.0,0.0,0.0,0.0,0.0,0.0,0.0,0.0,0.0,0.0,0.0,0.0,0.0,-4.1097,-4.1105,-4.1095,-4.1093,-4.1107,-4.1107,-4.1108,-4.111,-4.1108,-4.109,-4.1093,-4.1093,0.0,0.0,0.0,0.0,-4.1102,-4.11,-4.1106,-4.1103,-4.1096,-4.0805,-4.0295,-3.942,-3.856,-3.7683,0.0,0.0,0.0,0.0,0.0,0.0,0.0,0.0,0.0,0.0,0.0,0.0,0.0,0.0,0.0,0.0,0.0,0.0,0.0,0.0,0.0,0.0,0.0,-2.5708,-2.5707,-2.7347,-2.8193,-2.8208,-3.0078,-3.1812,-3.339,-3.3529,-3.3514,-3.3327,-3.157,-3.0793,-3.0801,-3.0795,-3.0796,-3.0798,-3.0745,0.0,0.0,0.0,0.0,0.0,0.0,0.0,0.0,-3.0872,-3.1078,-3.1316,-3.2485,0.0,0.0,0.0,0.0,0.0,-3.4172,-3.4209,-3.4209,-3.4209,-3.4221,-3.4221,-3.4221,-3.4233,-3.4233,-3.4245,-3.4257,-3.4316,-3.4506,-3.52,-3.5809,0.0,0.0,0.0,-3.8873,0.0,0.0,0.0,0.0,0.0,0.0,0.0,0.0,0.0,0.0,0.0,0.0,0.0,0.0,-4.1091,-4.1093,-4.1031,-4.0899,-4.0906,-4.0909,-4.089,-4.089,-4.0912,-4.0915,-4.1033,0.0,0.0,0.0,0.0,-4.0912,-4.0927,-4.0837,-4.0699,-4.0708,-4.0201,-3.94,-3.8528,-3.7743,-3.6984,0.0,0.0,0.0,0.0,0.0,0.0,0.0,0.0,0.0,0.0,0.0,0.0,0.0,0.0,0.0,0.0,0.0,0.0,0.0,0.0,0.0,0.0,-2.569,-2.5705,-2.5696,-2.7332,-2.8199,-2.8199,-3.0628,-3.2336,-3.3339,-3.4074,-3.4057,-3.3327,-3.1581,-3.0796,-3.0801,-3.0795,-3.0796,-3.08,-3.0782,0.0,0.0,0.0,0.0,0.0,0.0,0.0,0.0,-3.0335,-3.0716,-3.1212,-3.1318,0.0,0.0,0.0,0.0,0.0,-3.4095,-3.4245,-3.4209,-3.4269,-3.4281,-3.4293,-3.4351,-3.4363,-3.4393,-3.445,-3.4495,-3.4572,-3.4737,-3.4914,-3.5097,0.0,0.0,-3.7173,0.0,0.0,0.0,0.0,0.0,0.0,0.0,0.0,0.0,0.0,0.0,0.0,0.0,0.0,0.0,-4.1098,-4.1108,-4.0745,-4.001,-4.0001,-3.999,-3.9998,-3.9998,-4.0025,-4.0112,-4.0795,-4.1131,0.0,0.0,-4.076,-4.0072,-4.0071,-3.9629,-3.8896,-3.8894,-3.8781,-3.8501,-3.7672,-3.7257,-3.6984,0.0,0.0,0.0,0.0,0.0,0.0,0.0,0.0,0.0,0.0,0.0,0.0,0.0,0.0,0.0,0.0,0.0,0.0,0.0,0.0,0.0,-2.5694,-2.5671,-2.5862,-2.6348,-2.7552,-2.8437,-2.8904,-3.0984,-3.2207,-3.261,-3.3037,-3.3047,-3.2631,-3.1364,-3.0795,-3.0801,-3.0836,-3.0823,-3.0798,0.0,0.0,0.0,0.0,0.0,0.0,0.0,0.0,0.0,0.0,-3.0423,-3.0704,-3.1014,0.0,0.0,0.0,0.0,0.0,-3.3624,-3.3976,-3.4281,-3.4374,-3.4351,-3.4316,-3.4374,-3.4461,-3.4528,-3.4583,-3.4636,-3.4691,-3.484,0.0,-3.5882,-3.6553,0.0,0.0,0.0,0.0,0.0,0.0,0.0,0.0,0.0,0.0,0.0,0.0,0.0,0.0,0.0,0.0,0.0,0.0,-4.0407,-3.9981,-3.9104,-3.8629,-3.8625,-3.9109,-3.9109,-3.9138,-3.9209,-3.9583,-3.9762,-3.9804,0.0,-3.957,-3.9196,-3.9194,-3.8928,-3.8491,-3.8504,-3.8182,-3.7644,-3.6766,-3.6414,-3.6336,0.0,0.0,0.0,0.0,0.0,0.0,0.0,0.0,0.0,0.0,0.0,0.0,0.0,0.0,0.0,0.0,0.0,0.0,0.0,0.0,-2.5683,-2.5675,-2.5626,-2.6013,-2.6877,-2.7746,-2.861,-2.9488,-3.1164,-3.2101,-3.2298,-3.2158,-3.209,-3.2065,-3.1184,-3.0793,-3.0801,-3.0877,-3.0868,-3.0792,0.0,0.0,0.0,0.0,0.0,0.0,0.0,0.0,0.0,0.0,0.0,0.0,0.0,0.0,0.0,-3.1704,-3.2331,-3.2881,-3.317,-3.3635,-3.4116,-3.4394,-3.4386,-3.4351,-3.4473,-3.4572,-3.4668,-3.4769,-3.4821,-3.4851,-3.4945,-3.5577,0.0,-3.7288,-3.6922,0.0,0.0,0.0,0.0,0.0,0.0,0.0,0.0,0.0,0.0,0.0,0.0,0.0,0.0,0.0,0.0,0.0,-3.9493,-3.9084,-3.8207,-3.7537,-3.7535,-3.8198,-3.8204,-3.8253,-3.8306,-3.8505,-3.8609,-3.8593,-3.8593,-3.8476,-3.8299,-3.8296,-3.815,-3.7915,-3.7903,-3.7505,-3.6816,-3.6082,-3.5815,-3.5811,0.0,0.0,0.0,0.0,0.0,0.0,0.0,0.0,0.0,0.0,0.0,0.0,0.0,0.0,0.0,0.0,0.0,0.0,0.0,0.0,-2.5607,-2.5607,-2.5595,-2.6016,-2.6889,-2.7746,-2.8593,-2.9412,-3.1145,-3.2419,-3.3193,-3.2379,-3.204,-3.2065,-3.1184,-3.0793,-3.0801,-3.0877,-3.0868,-3.0792,-3.0791,0.0,0.0,0.0,0.0,0.0,0.0,0.0,0.0,0.0,0.0,0.0,0.0,0.0,-3.0238,-3.1033,-3.1176,-3.1419,-3.2966,-3.3331,-3.3459,-3.4229,-3.4386,-3.4461,-3.4708,-3.4771,-3.4841,-3.5039,-3.5117,-3.5157,-3.5185,-3.5346,-3.5523,-3.5746,0.0,0.0,0.0,0.0,0.0,0.0,0.0,0.0,0.0,0.0,0.0,0.0,0.0,0.0,0.0,0.0,0.0,0.0,0.0,-3.8188,-3.7292,-3.7233,-3.7222,-3.7296,-3.7357,-3.7391,-3.742,-3.8227,-3.8607,-3.8593,-3.8593,-3.8144,-3.7381,-3.7398,-3.6903,-3.6184,-3.6189,-3.6099,-3.5982,-3.5924,-3.5898,-3.5875,0.0,0.0,0.0,0.0,0.0,0.0,0.0,0.0,0.0,0.0,0.0,0.0,0.0,0.0,0.0,0.0,0.0,0.0,0.0,0.0,-2.5602,-2.5595,-2.5593,-2.6007,-2.6882,-2.7746,-2.8598,-2.9396,-3.0591,-3.1638,-3.2474,-3.1649,-3.1269,-3.1285,-3.0947,-3.0828,-3.0859,-3.0898,-3.0894,-3.0862,-3.082,-3.0806,0.0,0.0,0.0,0.0,0.0,0.0,0.0,0.0,-3.0469,-3.0361,-3.0273,-3.0206,-3.0163,-3.0386,-3.0743,-3.1222,-3.1808,-3.2634,-3.3419,-3.3811,-3.4283,-3.468,-3.4781,-3.4889,-3.5019,-3.5182,-3.5281,-3.5342,-3.5383,0.0,-3.6363,-3.646,0.0,0.0,0.0,0.0,0.0,0.0,0.0,0.0,0.0,0.0,0.0,0.0,0.0,0.0,0.0,0.0,0.0,0.0,0.0,-3.7272,-3.6395,-3.6395,-3.6398,-3.6384,-3.6423,-3.646,-3.6494,-3.6833,-3.6978,-3.6986,-3.697,-3.6796,-3.6484,-3.6483,-3.6301,-3.5991,-3.5947,-3.5926,-3.5892,-3.5908,-3.5898,-3.5895,0.0,0.0,0.0,0.0,0.0,0.0,0.0,0.0,0.0,0.0,0.0,0.0,0.0,0.0,0.0,0.0,0.0,0.0,0.0,-2.5648,-2.5598,-2.561,-2.5599,-2.5873,-2.6478,-2.7342,-2.8314,-2.9408,-3.0277,-3.1018,-3.1607,-3.1054,-3.0806,-3.0799,-3.0809,-3.0845,-3.0897,-3.0898,-3.0897,-3.091,-3.0846,-3.0817,0.0,0.0,0.0,0.0,0.0,0.0,0.0,0.0,-3.0569,-3.045,-3.0361,-3.0292,-3.02,-3.0094,-3.0437,-3.0894,-3.1109,-3.2117,-3.3195,-3.3554,-3.4292,-3.4926,-3.4953,-3.5062,-3.5209,-3.5333,-3.5423,-3.549,-3.5543,0.0,0.0,0.0,0.0,0.0,0.0,0.0,0.0,0.0,0.0,0.0,0.0,0.0,0.0,0.0,0.0,0.0,0.0,0.0,0.0,0.0,0.0,0.0,-3.5908,-3.5906,-3.5903,-3.5903,-3.5908,-3.5926,-3.5972,-3.5983,-3.5994,-3.6001,-3.5991,-3.5994,-3.5996,-3.5996,-3.5991,-3.5991,-3.5951,-3.5938,-3.5931,-3.5936,-3.5928,-3.5925,0.0,0.0,0.0,0.0,0.0,0.0,0.0,0.0,0.0,0.0,0.0,0.0,0.0,0.0,0.0,0.0,0.0,0.0,-2.5699,-2.5641,-2.5608,-2.5608,-2.5599,-2.5601,-2.5601,-2.6456,-2.7722,-2.9408,-3.026,-3.0713,-3.0806,-3.0786,-3.0786,-3.0799,-3.0809,-3.0845,-3.0897,-3.0898,-3.0898,-3.0894,-3.089,-3.0865,-3.0799,0.0,0.0,0.0,0.0,0.0,0.0,0.0,-3.0656,-3.0583,-3.0425,0.0,-3.0292,-3.0215,-3.014,-3.0285,-3.1077,-3.1868,-3.2686,-3.35,-3.4442,-3.5203,-3.5295,-3.5307,-3.534,-3.547,-3.5568,-3.5623,-3.5699,-3.5708,0.0,0.0,0.0,0.0,0.0,0.0,0.0,0.0,0.0,0.0,0.0,0.0,0.0,0.0,0.0,0.0,0.0,0.0,0.0,0.0,0.0,0.0,-3.5908,-3.5894,-3.5908,-3.5908,-3.5908,-3.5908,-3.589,-3.597,-3.6004,-3.5992,-3.6001,-3.6009,-3.5995,-3.5996,-3.5992,-3.5992,-3.6002,-3.5994,-3.6005,-3.6005,-3.6005,-3.5984,0.0,0.0,0.0,0.0,0.0,0.0,0.0,0.0,0.0,0.0,0.0,0.0,0.0,0.0,0.0,0.0,0.0,0.0,0.0,-2.5641,-2.5608,-2.5608,-2.554,-2.556,-2.5601,-2.6456,-2.7728,-2.9408,-2.9085,-2.9588,-3.0786,-3.0171,-3.0204,-3.0806,-3.0798,-3.0813,-3.0828,-3.0872,-3.0896,-3.0898,-3.0898,-3.0855,-3.0807,0.0,0.0,0.0,0.0,0.0,0.0,0.0,0.0,0.0,-2.9781,0.0,-3.0364,-3.0355,-3.0292,-3.0299,-3.0535,-3.1178,-3.2005,-3.2907,-3.3815,-3.4666,-3.5354,-3.5464,-3.5477,-3.561,-3.5693,-3.5761,-3.5769,0.0,0.0,0.0,0.0,0.0,0.0,0.0,0.0,0.0,0.0,0.0,0.0,0.0,0.0,0.0,0.0,0.0,0.0,0.0,0.0,0.0,0.0,0.0,-3.5898,-3.5892,-3.5908,-3.5908,-3.5905,-3.5901,-3.5897,-3.5924,-3.5958,-3.5994,-3.6004,-3.5994,-3.6003,-3.5995,-3.5996,-3.5993,-3.6004,-3.5998,-3.5995,-3.6007,-3.6004,-3.6004,0.0,0.0,0.0,0.0,0.0,0.0,0.0,0.0,0.0,0.0,0.0,0.0,0.0,0.0,0.0,0.0,0.0,0.0,0.0,0.0,-2.5603,-2.5593,-2.555,-2.5551,-2.5564,-2.61,-2.7045,-2.8417,-2.8271,-2.8737,-2.9759,-2.9572,-2.9775,-3.0295,-3.0657,-3.0806,-3.0798,-3.0843,-3.087,-3.0856,-3.0858,-3.0859,-3.0836,0.0,0.0,0.0,0.0,0.0,0.0,0.0,0.0,0.0,-2.9315,-2.9564,-3.0032,-3.0348,-3.0409,-3.0373,-3.0381,-3.0985,-3.1826,-3.2723,-3.3619,-3.4533,-3.5479,-3.5643,-3.5637,-3.5723,-3.5793,-3.585,-3.5842,-3.5838,0.0,0.0,0.0,0.0,0.0,0.0,0.0,0.0,0.0,0.0,0.0,0.0,0.0,0.0,0.0,0.0,0.0,0.0,0.0,0.0,0.0,0.0,-3.5901,-3.5872,-3.5868,-3.5868,-3.5861,-3.5852,-3.5859,-3.588,-3.5919,-3.5953,-3.5992,-3.5981,-3.5967,-3.5991,-3.5995,-3.5995,-3.5994,-3.5992,-3.5993,-3.6009,-3.6008,-3.5951,0.0,0.0,0.0,0.0,0.0,0.0,0.0,0.0,0.0,0.0,0.0,0.0,0.0,0.0,0.0,0.0,0.0,0.0,0.0,0.0,-2.5595,-2.5601,-2.5586,-2.5567,-2.5492,-2.556,-2.5987,-2.6767,-2.7576,-2.8031,-2.823,-2.9009,-2.9425,-2.9535,-3.0404,-3.0803,-3.0791,-3.0796,-3.0803,-3.0809,-3.0794,-3.0838,-3.0879,-3.0816,0.0,0.0,0.0,0.0,0.0,0.0,0.0,0.0,-2.8877,-2.9198,-2.9449,-3.0186,-3.0448,-3.0501,-3.0516,-3.1086,-3.1894,-3.2705,-3.3664,-3.4643,-3.5588,-3.5799,-3.5803,-3.5803,0.0,-3.5905,-3.5905,0.0,0.0,0.0,0.0,0.0,0.0,0.0,0.0,0.0,0.0,0.0,0.0,0.0,0.0,0.0,0.0,0.0,0.0,0.0,0.0,0.0,0.0,0.0,-3.5895,-3.5834,-3.5803,0.0,-3.5803,-3.5803,-3.5807,-3.5862,-3.5883,-3.5908,-3.5962,-3.5951,-3.5906,-3.5979,-3.5988,-3.599,-3.5995,-3.5995,-3.5994,-3.5995,-3.5956,-3.578,0.0,0.0,0.0,0.0,0.0,0.0,0.0,0.0,0.0,0.0,0.0,0.0,0.0,0.0,0.0,0.0,0.0,0.0,0.0,0.0,-2.5595,-2.5601,-2.5554,-2.5511,-2.5506,-2.5511,-2.5609,-2.5796,-2.6045,-2.687,-2.8199,-2.8394,-2.8844,-2.9539,-3.042,-3.0796,-3.081,-3.0799,-3.0804,-3.0807,-3.0796,-3.0806,-3.0815,-3.082,-3.0839,0.0,0.0,0.0,0.0,0.0,0.0,0.0,-2.7578,-2.8323,-2.942,-2.959,-3.0082,-3.0593,-3.0649,-3.0757,-3.1058,-3.1924,-3.3313,-3.4717,-3.5597,-3.5834,-3.5887,-3.5887,-3.5885,-3.5901,0.0,0.0,0.0,0.0,0.0,0.0,0.0,0.0,0.0,0.0,0.0,0.0,0.0,0.0,0.0,0.0,0.0,0.0,0.0,0.0,0.0,0.0,0.0,-3.5812,-3.5825,-3.5814,-3.5803,0.0,-3.5799,-3.5799,-3.5803,-3.5815,-3.5856,-3.5895,-3.5917,-3.5906,-3.5906,-3.5916,-3.5914,-3.5921,-3.5913,-3.5957,-3.6,-3.6001,-3.5574,-3.4953,0.0,0.0,0.0,0.0,0.0,0.0,0.0,0.0,0.0,0.0,0.0,0.0,0.0,0.0,0.0,0.0,0.0,0.0,0.0,0.0,0.0,0.0,-2.549,0.0,0.0,-2.5441,-2.5456,-2.5448,-2.5511,-2.6254,-2.7586,-2.8,-2.8671,-2.9546,-3.0402,-3.0792,-3.0802,-3.0808,-3.079,-3.079,-3.0798,-3.0809,-3.0804,-3.0793,-3.0819,-3.0859,-3.0855,0.0,0.0,0.0,0.0,0.0,0.0,0.0,-2.8372,-2.9204,-2.9738,-3.0162,-3.0581,-3.0674,-3.0862,-3.1727,-3.2947,-3.4159,-3.5032,-3.5256,-3.5399,-3.5804,-3.5891,0.0,0.0,0.0,0.0,0.0,0.0,0.0,0.0,0.0,0.0,0.0,0.0,0.0,0.0,0.0,0.0,0.0,0.0,0.0,0.0,0.0,0.0,0.0,-3.5761,-3.5808,-3.5797,-3.581,-3.5795,-3.5795,-3.5795,-3.5799,-3.5792,-3.5799,-3.5838,-3.5901,-3.5892,-3.5889,-3.5843,-3.5897,-3.5899,-3.5892,-3.5903,-3.5912,-3.5916,-3.5511,-3.5085,-3.458,0.0,0.0,0.0,0.0,0.0,0.0,0.0,0.0,0.0,0.0,0.0,0.0,0.0,0.0,0.0,0.0,0.0,0.0,0.0,0.0,0.0,0.0,-2.5441,0.0,0.0,0.0,0.0,-2.4945,-2.5162,-2.5751,-2.6682,-2.7714,-2.8669,-2.9533,-3.0404,-3.0792,-3.0798,-3.0798,-3.0798,-3.0798,-3.0798,-3.0792,-3.0809,-3.0803,-3.0792,-3.0818,-3.0859,-3.0328,-2.948,-2.8777,0.0,0.0,0.0,0.0,-2.7376,-2.8671,-2.9152,-2.9422,-3.0086,-3.0378,-3.0745,-3.1751,-3.2535,-3.3294,-3.4182,-3.449,-3.4802,-3.5535,-3.5794,0.0,0.0,0.0,0.0,0.0,0.0,0.0,0.0,0.0,0.0,0.0,0.0,0.0,0.0,0.0,0.0,0.0,0.0,0.0,0.0,0.0,-3.5698,-3.5699,-3.5766,-3.5788,-3.581,-3.5795,-3.5795,-3.5795,-3.5799,-3.5811,-3.5811,-3.5655,-3.5705,-3.5875,-3.5875,-3.5841,-3.5803,-3.5859,-3.5885,-3.5903,-3.5894,-3.5805,-3.5595,-3.4924,-3.4493,-3.404,0.0,0.0,0.0,0.0,0.0,0.0,0.0,0.0,0.0,0.0,0.0,0.0,0.0,0.0,0.0,0.0,0.0,0.0,-2.5604,0.0,0.0,-2.5499,-2.5441,-2.5045,0.0,0.0,0.0,-2.3148,-2.3968,-2.4822,-2.5714,-2.74,-2.8665,-2.9539,-3.042,-3.0806,-3.0804,-3.0804,-3.0804,-3.0804,-3.0804,-3.0793,-3.0808,-3.0799,-3.0794,-3.0806,-3.0818,-3.0293,-2.9589,-2.9467,-2.8835,0.0,0.0,0.0,-2.7913,-2.7402,-2.7775,-2.8403,-2.8493,-2.9095,-3.0036,-3.1602,-3.2098,-3.2393,-3.3271,0.0,-3.4649,0.0,0.0,0.0,0.0,0.0,0.0,0.0,0.0,0.0,0.0,0.0,0.0,0.0,0.0,0.0,0.0,0.0,0.0,0.0,0.0,0.0,0.0,-3.5692,-3.5707,-3.5693,-3.5776,-3.5803,-3.5803,-3.5806,-3.5795,-3.5795,-3.5795,-3.5834,-3.5859,-3.5097,-3.5148,-3.5811,-3.5811,-3.5819,-3.5799,-3.5807,-3.5853,-3.5908,-3.5892,-3.544,-3.4764,-3.4647,-3.3697,-3.2418,0.0,0.0,0.0,0.0,0.0,0.0,0.0,0.0,0.0,0.0,0.0,0.0,0.0,0.0,0.0,-2.5609,-2.5593,-2.5601,-2.5589,-2.5548,-2.5284,-2.4792,-2.4706,-2.4264,-2.3388,0.0,-2.3163,-2.2732,-2.3657,-2.4553,-2.5488,-2.7259,-2.8582,-2.9533,-3.041,-3.0804,-3.0791,-3.0804,-3.0801,-3.0801,-3.0801,-3.0804,-3.0791,-3.0804,-3.0801,-3.0798,-3.0808,-3.0602,-3.0254,-2.9765,-2.9353,-2.8878,-2.7999,0.0,0.0,0.0,-2.7961,-2.8357,-2.8805,-2.9212,-2.9788,-3.1012,-3.1334,-3.1568,-3.2427,-3.3304,-3.4072,0.0,0.0,0.0,0.0,0.0,0.0,0.0,0.0,0.0,0.0,0.0,0.0,0.0,0.0,0.0,0.0,0.0,0.0,0.0,0.0,0.0,-3.5704,-3.5707,-3.5708,-3.5708,-3.5775,0.0,-3.5801,-3.5791,-3.5795,-3.5795,-3.583,-3.5619,-3.5162,-3.4772,-3.5061,-3.582,-3.5348,-3.5372,-3.5792,-3.5799,-3.5842,-3.5843,-3.5357,-3.4947,-3.4489,-3.3553,-3.2737,-3.2021,0.0,0.0,0.0,0.0,0.0,0.0,0.0,0.0,0.0,0.0,0.0,0.0,0.0,0.0,0.0,0.0,-2.5598,-2.5596,-2.5599,-2.5544,-2.5103,-2.4246,-2.4149,-2.3583,-2.2493,0.0,-2.234,-2.2063,-2.3146,-2.4024,-2.4765,-2.675,-2.8187,-2.9166,-3.0295,-3.0795,-3.0795,-3.0806,-3.0801,-3.0801,-3.0799,-3.0799,-3.0801,-3.0808,-3.0808,-3.0806,-3.0794,-3.0829,-3.078,-3.0115,-2.9922,-2.9784,-2.8905,-2.8629,0.0,0.0,0.0,-2.7855,-2.8895,-2.9164,-2.9433,-3.0528,-3.0791,-3.0967,0.0,0.0,-3.3256,0.0,0.0,0.0,0.0,0.0,0.0,0.0,0.0,0.0,0.0,0.0,0.0,0.0,0.0,0.0,0.0,0.0,0.0,0.0,0.0,0.0,-3.5704,-3.5693,-3.5699,-3.5708,-3.5765,-3.581,-3.5795,-3.5795,-3.5795,-3.5795,-3.5647,-3.524,-3.4598,-3.4164,-3.4442,-3.5229,-3.4552,-3.4745,-3.5473,-3.5271,-3.5325,-3.5473,-3.4601,-3.4133,-3.3807,-3.256,-3.1956,-3.1683,0.0,0.0,0.0,0.0,0.0,0.0,0.0,0.0,0.0,0.0,0.0,0.0,-2.5608,-2.5598,-2.56,-2.561,-2.5608,-2.5609,-2.5602,-2.5544,-2.5103,-2.4246,-2.4149,0.0,-2.1605,-2.1562,-2.116,-2.033,-2.1967,-2.2786,-2.2906,-2.5545,-2.7245,-2.8164,-2.9986,-3.0801,-3.0801,-3.0801,-3.0801,-3.0799,-3.0791,-3.0791,-3.0799,-3.0791,-3.0804,-3.0804,-3.0796,-3.0791,-3.0804,-3.075,-3.0776,-3.0682,-2.9803,-2.9531,-2.9218,0.0,0.0,0.0,-2.7828,-2.8269,-2.8673,-3.0382,-3.0806,-3.0808,0.0,0.0,0.0,0.0,0.0,0.0,0.0,0.0,0.0,0.0,0.0,0.0,0.0,0.0,0.0,0.0,0.0,0.0,0.0,0.0,0.0,0.0,0.0,0.0,-3.5704,-3.5697,-3.5703,-3.5704,-3.577,-3.5793,-3.5795,-3.5795,-3.5795,-3.5795,-3.5025,-3.4637,-3.4559,-3.2956,-3.2715,-3.3512,-3.3418,-3.3858,-3.4602,-3.3761,-3.3926,-3.4578,-3.3718,-3.2897,-3.2228,-3.2131,-3.1583,-3.086,0.0,0.0,0.0,0.0,0.0,0.0,0.0,0.0,0.0,0.0,0.0,0.0,0.0,-2.5648,-2.5654,-2.5669,-2.5617,-2.5587,-2.5548,-2.5518,-2.5099,-2.4188,-2.362,-2.2754,-2.1528,-2.0958,-2.0514,-2.0192,-2.1833,-2.2661,-2.2757,-2.5404,-2.6828,-2.7241,-2.9088,-3.025,-3.0791,-3.0742,-3.0767,-3.0799,-3.0759,-3.0764,-3.0799,-3.0808,-3.0801,-3.0802,0.0,0.0,-3.0795,-3.0794,-3.0821,-3.0789,-3.0474,-3.0365,-3.0038,-2.834,-2.6814,-2.6085,-2.7809,-2.8226,-2.8624,-3.0364,-3.0801,-3.0801,-3.0802,-3.1476,0.0,0.0,0.0,0.0,0.0,0.0,0.0,0.0,0.0,0.0,0.0,0.0,0.0,0.0,0.0,0.0,0.0,0.0,0.0,0.0,0.0,0.0,-3.5665,-3.5692,-3.5693,-3.5703,-3.5761,-3.5521,-3.4964,-3.4964,-3.4719,-3.4186,-3.3903,-3.3472,-3.2914,-3.2355,-3.1975,-3.1736,-3.1712,-3.2478,-3.3745,-3.3424,-3.3488,-3.3679,-3.2803,-3.2311,-3.2034,-3.1466,-3.1074,-3.0801,0.0,0.0,0.0,0.0,0.0,0.0,0.0,0.0,0.0,-2.563,0.0,0.0,0.0,0.0,-2.5697,-2.5669,-2.5632,-2.5579,-2.5499,-2.5508,-2.5085,-2.4141,-2.3597,-2.2735,-2.1528,-2.0939,-2.05,-2.0205,-2.1828,-2.2665,-2.2742,-2.5086,-2.6343,-2.6736,-2.8245,-2.9444,-3.0342,-3.0589,-3.0731,-3.0767,-3.0728,-3.0737,-3.0794,-3.0808,-3.0799,0.0,0.0,0.0,0.0,0.0,0.0,-3.0798,-3.0794,-3.0413,-2.974,-2.8632,-2.707,-2.6072,-2.7822,-2.8261,-2.8657,-3.0361,-3.0798,-3.0793,-3.081,0.0,0.0,0.0,0.0,0.0,0.0,0.0,0.0,0.0,0.0,0.0,0.0,0.0,0.0,0.0,0.0,0.0,0.0,0.0,0.0,0.0,0.0,0.0,-3.5226,-3.5261,-3.5276,-3.5291,-3.5335,-3.4962,-3.4109,-3.4097,-3.3836,-3.3303,-3.2996,-3.2561,-3.1985,-3.177,-3.1349,-3.0801,-3.0801,-3.1593,-3.2845,-3.2563,-3.2625,-3.2789,-3.1938,-3.1619,-3.159,-3.1003,-3.0808,-3.0806,0.0,0.0,0.0,0.0,0.0,0.0,0.0,0.0,0.0,-2.5699,0.0,0.0,0.0,0.0,0.0,-2.561,-2.5593,-2.5565,-2.5499,-2.549,-2.5085,-2.418,-2.4118,-2.3294,-2.1585,-2.1509,-2.1073,-2.0193,-2.1871,-2.2704,-2.2742,-2.4479,-2.5754,-2.6602,-2.7565,-2.8497,-2.9415,-3.0324,-3.07,-3.07,-3.07,-3.0731,-3.0806,0.0,0.0,0.0,-3.0801,-3.0798,0.0,-3.0798,0.0,0.0,0.0,0.0,0.0,0.0,0.0,-2.6113,0.0,0.0,0.0,0.0,0.0,0.0,-3.0724,0.0,0.0,0.0,0.0,0.0,0.0,0.0,0.0,0.0,0.0,0.0,0.0,0.0,0.0,0.0,0.0,0.0,0.0,0.0,0.0,0.0,0.0,-3.3436,-3.4316,-3.4355,-3.4395,-3.4458,-3.4451,-3.4089,-3.3274,-3.3253,-3.3245,-3.3206,-3.236,-3.1966,-3.1946,-3.1164,-3.0801,-3.0801,-3.0801,-3.1239,-3.1907,-3.1125,-3.1259,-3.1891,-3.1103,-3.0802,-3.0802,-3.0802,-3.0802,-3.08,0.0,0.0,0.0,0.0,0.0,0.0,0.0,0.0,-2.5702,0.0,0.0,0.0,-2.571,-2.5703,-2.5671,-2.561,-2.5593,-2.5565,-2.5499,-2.549,-2.5364,-2.5045,-2.4435,-2.358,-2.2464,-2.1814,-2.1063,-2.0203,-2.1881,-2.2695,0.0,0.0,-2.5383,-2.5741,-2.7253,-2.8094,-2.8485,-3.0047,-3.0701,-3.0701,-3.0701,-3.0739,0.0,0.0,0.0,0.0,0.0,-3.08,-3.0808,0.0,-3.0801,-3.0803,0.0,0.0,-2.918,0.0,0.0,-2.6871,-2.8008,0.0,0.0,0.0,0.0,0.0,0.0,0.0,0.0,0.0,0.0,0.0,0.0,0.0,0.0,0.0,0.0,0.0,0.0,0.0,0.0,0.0,0.0,0.0,0.0,0.0,0.0,0.0,-3.2024,-3.2546,-3.3416,-3.3455,-3.348,-3.3552,-3.3561,-3.3175,-3.2376,-3.2359,-3.2046,-3.1417,-3.122,-3.1137,-3.1125,-3.0896,-3.0801,-3.0801,-3.0801,-3.0935,-3.1106,-3.0896,-3.0921,-3.1103,-3.0895,-3.0806,-3.0794,-3.0794,-3.0794,-3.0794,0.0,0.0,0.0,0.0,0.0,0.0,0.0,-2.5692,-2.571,0.0,0.0,0.0,-2.5708,-2.5679,-2.5648,-2.5591,-2.5563,-2.5531,-2.5499,-2.5506,-2.5472,-2.5401,-2.4917,-2.4066,-2.2831,-2.2293,-2.1449,0.0,0.0,0.0,0.0,0.0,0.0,-2.5351,-2.6771,-2.7605,-2.8042,-2.9508,0.0,0.0,-3.0698,0.0,0.0,-3.0789,-3.0796,0.0,0.0,0.0,-3.081,-3.0796,-3.0798,0.0,0.0,0.0,0.0,0.0,0.0,-2.7195,-2.8064,-2.7656,-2.7202,0.0,0.0,0.0,-2.8262,-2.8633,0.0,0.0,0.0,0.0,0.0,0.0,0.0,0.0,0.0,0.0,0.0,0.0,0.0,0.0,0.0,0.0,0.0,0.0,0.0,0.0,-3.1289,-3.1676,-3.2507,-3.2894,-3.2958,-3.266,-3.2665,-3.2279,-3.1467,-3.1453,-3.1197,-3.0703,-3.0762,-3.0794,-3.0801,-3.0801,-3.0801,-3.0801,-3.0801,-3.0801,-3.0801,-3.0801,-3.0808,-3.0802,-3.0806,-3.0796,-3.0804,-3.0804,-3.0804,-3.0804,0.0,0.0,0.0,0.0,0.0,0.0,0.0,0.0,-2.5693,0.0,-2.5702,-2.5691,-2.5701,-2.563,-2.56,-2.5608,-2.5549,-2.5515,-2.5518,-2.5499,-2.5464,-2.541,-2.5404,-2.463,-2.2994,-2.2853,0.0,0.0,0.0,0.0,0.0,0.0,0.0,0.0,0.0,0.0,-2.7967,0.0,0.0,-3.0704,-3.0695,-3.0697,0.0,0.0,-3.0796,-3.0799,-3.0801,-3.08,-3.0799,-3.0801,-3.0799,0.0,0.0,0.0,0.0,0.0,-2.8445,-2.7305,-2.8095,-2.7595,-2.7031,0.0,0.0,0.0,-2.7935,-2.8047,-2.8145,0.0,0.0,0.0,0.0,0.0,0.0,0.0,0.0,0.0,0.0,0.0,0.0,0.0,0.0,0.0,0.0,0.0,-3.0615,-3.0602,-3.0598,-3.0902,-3.1613,-3.2386,-3.2489,-3.1773,-3.1754,-3.1425,-3.0713,-3.0707,-3.0703,-3.0703,-3.0769,-3.0801,-3.0801,-3.0801,-3.0801,-3.0801,-3.0801,-3.0801,-3.0801,-3.0801,-3.081,-3.0804,-3.0794,-3.0804,-3.0794,-3.0794,-3.0794,-3.0792,-2.4013,0.0,0.0,0.0,0.0,0.0,0.0,0.0,-2.5708,-2.5705,-2.5694,-2.5701,-2.5701,-2.563,-2.5595,-2.5609,-2.5587,-2.557,-2.5573,-2.5536,-2.5491,-2.5488,-2.5433,-2.493,-2.3945,-2.3191,-2.2322,0.0,0.0,0.0,0.0,0.0,0.0,0.0,0.0,0.0,0.0,0.0,0.0,-3.07,-3.0692,0.0,-3.0701,-3.0707,-3.0745,-3.0791,-3.0791,-3.0806,-3.0801,-3.0794,-3.0809,-3.0798,0.0,0.0,0.0,-3.0558,0.0,0.0,0.0,0.0,0.0,0.0,0.0,0.0,-2.6193,-2.6744,-2.7236,0.0,0.0,0.0,0.0,0.0,0.0,0.0,0.0,0.0,0.0,0.0,0.0,0.0,0.0,0.0,0.0,0.0,-3.0653,-3.0595,-3.055,-3.0583,-3.0752,-3.0907,-3.096,-3.0858,-3.0858,-3.0805,-3.0694,-3.0707,-3.0703,-3.0703,-3.0769,-3.0801,-3.0801,-3.0801,-3.0801,-3.0801,-3.0801,-3.0801,-3.0801,-3.0801,-3.0795,-3.0796,-3.0798,-3.0807,-3.0799,-3.0799,-3.0799,-3.0799,-2.4316,0.0,0.0,0.0,0.0,0.0,0.0,0.0,-2.5696,-2.5691,-2.5699,-2.5681,-2.5656,-2.5624,-2.5608,-2.5604,-2.5601,-2.5605,-2.5599,-2.554,-2.5495,-2.5495,-2.5441,-2.5015,-2.4227,-2.3712,-2.3032,0.0,0.0,0.0,0.0,0.0,0.0,0.0,0.0,0.0,0.0,0.0,-2.9877,-3.07,-3.0699,0.0,-3.0695,-3.0733,-3.077,-3.0808,-3.0793,-3.0792,-3.0807,-3.0795,-3.0809,0.0,0.0,-3.0798,-3.0709,0.0,-2.9235,-2.8129,0.0,0.0,0.0,-2.5702,0.0,0.0,0.0,-2.6045,-2.6321,0.0,0.0,0.0,0.0,0.0,0.0,0.0,0.0,0.0,0.0,0.0,0.0,0.0,0.0,0.0,0.0,0.0,-3.0665,-3.0604,-3.055,-3.0501,-3.0554,-3.052,-3.053,-3.0602,-3.0606,-3.063,-3.0694,-3.0707,-3.0703,-3.0703,-3.0769,-3.0801,-3.0801,-3.0801,-3.0801,-3.0801,-3.0801,-3.0799,-3.0794,-3.0799,-3.0806,-3.0795,-3.0806,-3.0803,-3.0796,-3.0792,-3.0794,-3.0796,-2.4646,0.0,0.0,0.0,0.0,0.0,0.0,0.0,-2.5758,-2.5928,-2.5955,-2.5995,-2.608,-2.6106,-2.6092,-2.6096,-2.6093,-2.61,-2.61,-2.589,-2.5769,-2.5769,-2.5538,-2.5128,-2.4467,-2.4234,-2.377,0.0,0.0,0.0,0.0,0.0,0.0,0.0,0.0,0.0,-2.8074,0.0,0.0,-3.0726,0.0,-3.0701,-3.0714,-3.0764,-3.0778,-3.0786,-3.0795,-3.0799,-3.0794,-3.0794,-3.0807,-3.0798,-3.0808,-3.0795,0.0,0.0,0.0,0.0,0.0,0.0,0.0,0.0,0.0,-2.5701,0.0,0.0,0.0,0.0,0.0,0.0,0.0,0.0,0.0,0.0,0.0,0.0,0.0,0.0,0.0,0.0,0.0,0.0,0.0,0.0,-3.0178,-3.0124,-3.0206,-3.0298,-3.0356,-3.0453,-3.053,-3.0602,-3.0606,-3.063,-3.0694,-3.0707,-3.0703,-3.0703,-3.0769,-3.0801,-3.0801,-3.0799,-3.0796,-3.0796,-3.0794,-3.0786,-3.0778,-3.0789,-3.0786,-3.0776,-3.0786,-3.079,-3.0806,-3.0796,-3.0799,-3.0806,-2.5553,-2.5628,0.0,0.0,0.0,0.0,0.0,0.0,-2.5975,-2.6745,-2.6853,-2.7113,-2.7829,-2.7892,-2.7897,-2.7904,0.0,0.0,-2.7898,0.0,-2.6741,-2.6741,-2.5932,-2.5455,-2.5356,-2.4586,-2.4142,-2.4045,0.0,0.0,0.0,0.0,0.0,0.0,-2.6307,0.0,0.0,0.0,-2.9986,0.0,-3.0789,-3.0745,0.0,-3.0714,-3.071,-3.0712,-3.0782,-3.0807,-3.08,0.0,-3.0791,-3.0798,0.0,-3.0808,-3.0784,0.0,0.0,0.0,0.0,0.0,0.0,0.0,-2.5703,0.0,0.0,0.0,0.0,0.0,0.0,0.0,0.0,0.0,0.0,0.0,0.0,0.0,0.0,0.0,0.0,0.0,0.0,0.0,0.0,0.0,0.0,-2.8377,-2.9044,-2.9434,-2.9443,-3.011,-3.053,-3.0602,-3.0606,-3.063,-3.0694,-3.0707,-3.0703,-3.0703,-3.0769,-3.0801,-3.0801,-3.0791,-3.0806,-3.0806,-3.0734,-3.0716,-3.0701,-3.0719,-3.071,-3.0727,-3.0784,-3.0793,-3.0804,-3.0791,-3.0793,-3.0804,-2.5696,-2.5696,-2.5694,0.0,0.0,0.0,0.0,0.0,0.0,-2.6885,-2.6996,-2.7316,0.0,0.0,0.0,0.0,0.0,-2.8199,0.0,0.0,-2.7651,-2.7643,0.0,0.0,-2.6274,-2.5899,-2.5467,-2.4958,-2.4919,0.0,0.0,0.0,0.0,0.0,-2.6834,0.0,-2.8191,0.0,-3.0422,0.0,0.0,0.0,0.0,-3.0764,-3.0765,-3.0765,-3.0794,-3.0812,-3.0845,0.0,-3.08,0.0,0.0,0.0,0.0,0.0,0.0,0.0,0.0,0.0,0.0,0.0,0.0,0.0,-2.5695,0.0,-2.5684,0.0,0.0,0.0,0.0,0.0,0.0,0.0,0.0,0.0,0.0,0.0,0.0,0.0,0.0,0.0,0.0,0.0,0.0,0.0,0.0,-2.8765,-2.9263,-2.9621,-3.0046,-3.0582,-3.0637,-3.0661,-3.0694,-3.0707,-3.0703,-3.0703,-3.0769,-3.0796,-3.0791,-3.0759,-3.0748,-3.0736,-3.0701,-3.0704,-3.0706,-3.0707,-3.0671,-3.0661,-3.0723,-3.0739,-3.0747,-3.0731,-3.0737,-3.0745,-2.5701,-2.5702,-2.5702,0.0,0.0,0.0,0.0,0.0,0.0,0.0,0.0,0.0,-2.881,-2.892,0.0,0.0,-2.8907,-2.8903,0.0,0.0,-2.8564,0.0,0.0,0.0,0.0,0.0,-2.6508,-2.5867,0.0,0.0,0.0,0.0,0.0,0.0,0.0,-2.8039,-2.8217,0.0,-3.0767,-3.0791,-3.0803,-3.0804,-3.081,-3.08,-3.0792,-3.0807,-3.0801,-3.0834,-3.0888,-3.0826,-3.0809,0.0,-3.0809,0.0,0.0,0.0,0.0,0.0,-2.8066,0.0,0.0,0.0,0.0,0.0,0.0,0.0,0.0,0.0,0.0,0.0,0.0,0.0,0.0,0.0,0.0,0.0,0.0,0.0,0.0,0.0,0.0,0.0,0.0,0.0,0.0,0.0,-2.7572,0.0,-2.8574,-2.9061,-2.9612,-3.0246,-3.0552,-3.0692,-3.0694,-3.0701,-3.0694,-3.0694,-3.0759,-3.0764,-3.0773,-3.0716,-3.0695,-3.0671,-3.066,-3.0657,-3.0649,-3.0661,-3.0622,-3.0576,-3.0657,-3.0672,-3.0678,-3.0674,-3.0685,-3.0678,-2.5699,-2.5699,-2.5699,0.0,0.0,0.0,0.0,0.0,0.0,0.0,0.0,0.0,0.0,0.0,0.0,0.0,0.0,-3.0719,-3.0719,0.0,-2.946,0.0,0.0,-2.8184,0.0,0.0,0.0,0.0,0.0,0.0,0.0,0.0,0.0,0.0,-2.7245,-2.8043,-2.8214,-3.0022,-3.0802,-3.0794,-3.0792,-3.0796,-3.0793,0.0,-3.0798,-3.0799,-3.0798,0.0,0.0,-3.0815,-3.0797,0.0,0.0,0.0,0.0,0.0,0.0,0.0,0.0,0.0,0.0,-2.6975,0.0,0.0,0.0,0.0,-2.5689,0.0,0.0,0.0,0.0,0.0,-2.4016,-2.3184,0.0,0.0,0.0,0.0,0.0,0.0,0.0,0.0,0.0,0.0,0.0,-2.5684,-2.6396,0.0,-2.687,-2.8485,-2.9416,-2.9431,-3.025,-3.0692,-3.0694,-3.0707,-3.0695,-3.0695,-3.0694,-3.0694,-3.0695,-3.0701,-3.0653,-3.0606,-3.0606,-3.0567,-3.0506,-3.058,-3.0558,-3.0519,-3.0572,-3.06,-3.0592,-3.0593,-3.0641,-3.0583,-2.5701,-2.5699,-2.5699,0.0,0.0,0.0,0.0,-2.6182,0.0,0.0,0.0,0.0,0.0,-3.0862,-3.0859,0.0,0.0,-3.0792,-3.0807,-3.0513,0.0,0.0,0.0,-2.9645,0.0,0.0,0.0,0.0,0.0,0.0,0.0,0.0,0.0,0.0,0.0,-2.8392,0.0,0.0,0.0,0.0,0.0,-3.0837,-3.0795,0.0,0.0,-3.0794,-3.0809,-3.0843,0.0,-3.0878,-3.0879,-3.0859,-3.0818,-3.0798,-3.0797,-3.0793,-3.0613,0.0,0.0,0.0,-2.7722,-2.7138,0.0,0.0,0.0,0.0,0.0,0.0,0.0,0.0,0.0,0.0,-2.3331,-2.3047,-2.2066,0.0,0.0,0.0,0.0,0.0,0.0,0.0,0.0,0.0,0.0,-2.5666,-2.5872,-2.6254,0.0,-2.7919,-2.8805,-2.9379,-3.0252,-3.0706,-3.0694,-3.0707,-3.0707,-3.0701,-3.0695,-3.0707,-3.0699,-3.0657,-3.0614,-3.0608,-3.061,-3.0588,-3.0564,-3.0592,-3.0554,-3.0505,-3.0521,-3.0535,-3.054,-3.0586,-3.0244,-2.9574,-2.5656,-2.5652,0.0,0.0,0.0,0.0,0.0,0.0,0.0,0.0,-2.9257,0.0,-3.0795,0.0,-3.0889,0.0,-3.0845,-3.0705,-3.0389,-3.064,0.0,-3.0381,-3.066,0.0,0.0,0.0,0.0,0.0,0.0,-2.6894,0.0,0.0,0.0,0.0,0.0,-2.8846,-2.946,-3.0325,-3.0747,0.0,0.0,-3.0859,0.0,0.0,-3.08,-3.08,0.0,-3.0832,-3.0898,-3.0878,-3.0856,-3.0869,-3.0801,-3.0798,-3.0795,-3.0806,-3.0799,-3.0677,-3.011,-2.9359,0.0,0.0,-2.7004,0.0,-2.6139,0.0,0.0,0.0,0.0,0.0,0.0,0.0,0.0,-2.2584,-2.1381,-2.0701,0.0,-2.1859,0.0,0.0,0.0,0.0,0.0,0.0,-2.5361,-2.568,-2.5662,-2.5875,0.0,0.0,-2.8061,-2.8958,-2.9817,-3.0416,-3.0701,-3.0707,-3.0704,-3.0703,-3.069,-3.0695,-3.0657,-3.0621,-3.06,-3.0568,-3.0583,-3.0588,-3.0554,-3.0559,-3.052,-3.0471,-3.05,-3.049,-3.0474,-3.054,-2.9833,-2.8638,-2.5604,0.0,0.0,0.0,-2.5736,0.0,0.0,0.0,-2.7712,0.0,-2.9648,-2.9979,-3.0819,-3.0896,-3.0894,-3.0894,-3.0891,-3.0556,-2.9716,-3.0375,0.0,0.0,-3.0459,-3.0869,-3.0811,0.0,0.0,0.0,0.0,0.0,0.0,0.0,0.0,0.0,-2.8588,0.0,-2.9515,-3.0344,-3.0741,-3.0813,-3.0879,-3.0855,-3.0792,-3.0801,0.0,-3.0805,-3.079,-3.0837,-3.0898,-3.0813,-3.0805,-3.0795,-3.081,-3.08,-3.0795,-3.0801,-3.0791,-3.0803,-3.0803,-3.0169,-2.9494,-2.9494,0.0,0.0,0.0,0.0,-2.5551,0.0,0.0,0.0,0.0,0.0,0.0,-2.1913,-2.1041,-2.0511,0.0,0.0,0.0,0.0,0.0,0.0,0.0,-2.4315,-2.4681,-2.5515,-2.5575,-2.5559,0.0,0.0,0.0,-2.8112,-2.9027,-2.9855,-3.0633,-3.0672,-3.0694,-3.0696,-3.0696,-3.0657,-3.0595,-3.0595,-3.0568,-3.052,-3.0564,-3.053,-3.0451,-3.0486,-3.0446,-3.034,-3.0449,-3.0463,-3.0398,-3.0436,-2.9395,-2.7869,-2.5617,-2.5591,-2.5612,0.0,-2.6199,-2.6746,0.0,0.0,0.0,0.0,-3.0156,-3.0644,-3.0878,-3.0897,-3.0896,-3.0894,-3.0894,0.0,0.0,0.0,0.0,-3.0581,-3.0778,-3.0895,-3.0876,-3.0663,0.0,-2.9562,0.0,0.0,-2.7877,0.0,0.0,0.0,0.0,0.0,-3.0385,-3.0614,-3.0734,-3.08,-3.0812,-3.0825,0.0,0.0,-3.0796,-3.0797,-3.08,-3.0818,-3.0827,-3.0813,-3.0803,-3.081,-3.0804,-3.0767,-3.0737,-3.0739,-3.073,-3.0727,-3.0727,-3.0082,-2.9434,-2.9434,-2.8596,-2.7792,0.0,0.0,0.0,0.0,0.0,0.0,0.0,0.0,0.0,-2.2791,-2.1441,0.0,0.0,0.0,0.0,0.0,0.0,0.0,0.0,-2.309,-2.3534,-2.3758,-2.3773,0.0,0.0,0.0,0.0,-2.7218,-2.8662,-2.9525,-2.9726,-3.0372,-3.0661,-3.0633,-3.0621,-3.0619,-3.0607,-3.0607,-3.0583,-3.0588,-3.0593,-3.0216,-2.9651,-3.0245,-3.0118,-2.9569,-3.0191,-3.0425,-3.0325,-2.975,-2.8845,-2.7808,-2.562,0.0,0.0,-2.5595,0.0,0.0,-2.7557,0.0,0.0,-3.0117,-3.0605,0.0,-3.0898,-3.0898,-3.0898,-3.0897,-3.0896,0.0,-3.0369,0.0,0.0,-3.035,-3.0703,-3.0898,-3.0898,-3.0898,0.0,-3.0175,0.0,0.0,-2.877,0.0,0.0,0.0,0.0,-3.0203,-3.0694,-3.0724,-3.0777,-3.079,-3.0794,0.0,0.0,-3.0804,-3.078,-3.0751,-3.0767,-3.0789,-3.0803,-3.0804,-3.0789,-3.0752,-3.0764,-3.0724,-3.0685,-3.0664,-3.0656,-3.0656,-3.0656,-3.0307,-2.9915,-2.9927,-2.9261,-2.8609,-2.8588,-2.7905,-2.7159,0.0,0.0,0.0,0.0,0.0,0.0,0.0,0.0,0.0,0.0,0.0,0.0,0.0,0.0,0.0,0.0,0.0,-2.3107,0.0,0.0,0.0,0.0,0.0,0.0,-2.6313,-2.7626,-2.8659,-2.9389,-2.9883,-3.03,-3.0595,-3.0606,-3.039,-2.9989,-2.9989,-2.9777,-2.9429,-2.9429,-2.913,-2.8714,-2.9183,-2.9292,-2.9275,-3.0092,-3.0402,-3.0294,-2.9468,-2.8622,-2.7778,-2.5599,0.0,0.0,0.0,0.0,0.0,0.0,-2.9143,0.0,-3.0798,0.0,-3.0897,-3.0898,-3.0898,-3.0898,-3.0898,0.0,-3.0585,-2.9824,-3.0488,-3.0566,-2.9805,-3.0487,-3.0896,-3.0894,-3.0893,0.0,0.0,0.0,0.0,0.0,0.0,0.0,0.0,0.0,0.0,0.0,-3.0786,-3.0799,0.0,-3.081,-3.0782,-3.0781,-3.0789,-3.0756,-3.0691,-3.0691,-3.0737,-3.0786,-3.0784,-3.0745,-3.0707,-3.0694,-3.0692,-3.0688,-3.0629,-3.0597,-3.0597,-3.0597,-3.0593,-3.0589,-3.0591,-3.0027,-2.9443,-2.9371,-2.867,-2.7806,-2.6935,-2.6663,0.0,0.0,0.0,0.0,0.0,0.0,0.0,0.0,0.0,0.0,0.0,0.0,0.0,0.0,0.0,0.0,0.0,0.0,0.0,0.0,0.0,0.0,0.0,-2.64,0.0,-2.9211,0.0,-2.9804,-3.0598,-3.0477,-2.9989,-2.9192,-2.9076,-2.8613,-2.7899,-2.7899,-2.7837,-2.7755,-2.7986,-2.8587,-2.9424,-3.0127,-3.0327,-3.0135,-2.9371,-2.8522,-2.7613,-2.5607,0.0,0.0,0.0,0.0,-2.8227,-2.8285,-2.965,-3.0734,-3.0875,-3.0895,-3.0895,-3.0896,-3.0896,-3.0896,-3.0896,-3.0896,0.0,0.0,0.0,0.0,-3.0681,-3.0775,-3.0811,-3.0811,-3.0823,-3.0823,0.0,0.0,0.0,0.0,0.0,0.0,0.0,0.0,0.0,-3.0781,-3.08,0.0,-3.0801,-3.0808,-3.0773,-3.0724,-3.0727,-3.0707,-3.0692,-3.0634,-3.066,-3.0714,-3.0729,-3.0718,-3.0692,-3.0626,-3.0625,-3.0628,-3.0604,-3.0606,-3.0592,-3.0592,-3.0554,-3.0516,-3.0511,-3.0399,-3.0278,-3.0207,-2.952,-2.8646,-2.7778,-2.7012,-2.6244,-2.5376,0.0,0.0,0.0,0.0,0.0,0.0,0.0,0.0,0.0,0.0,0.0,0.0,0.0,0.0,0.0,0.0,0.0,0.0,0.0,0.0,0.0,0.0,0.0,0.0,0.0,0.0,-3.0598,-2.9825,-2.9356,-2.9173,-2.8459,-2.8034,-2.7899,-2.7899,-2.7485,-2.6945,-2.838,-2.9457,-3.0198,-3.0346,-2.9967,-2.9319,-2.9165,-2.8145,-2.6818,0.0,0.0,0.0,0.0,0.0,0.0,0.0,-2.9344,0.0,-3.0789,-3.0849,-3.0849,-3.0849,-3.0849,-3.0849,-3.0849,-3.0849,-3.0849,-3.0849,-3.0847,-3.0846,-3.0846,-3.0372,0.0,-3.0134,-3.0127,-3.0129,-3.0138,0.0,0.0,-3.079,0.0,0.0,0.0,0.0,-3.0375,0.0,0.0,0.0,-3.074,-3.0755,-3.0717,-3.0649,-3.0642,-3.0657,-3.0647,-3.0563,-3.0563,-3.0595,-3.0608,-3.06,-3.0586,-3.0554,-3.0559,-3.054,-3.054,-3.055,-3.054,-3.054,-3.053,-3.0495,-3.046,-3.0453,-3.0425,-3.0358,-3.0021,-2.9357,-2.8059,-2.7443,-2.6724,-2.5439,-2.4947,0.0,0.0,0.0,0.0,0.0,0.0,0.0,0.0,0.0,0.0,0.0,0.0,0.0,0.0,0.0,0.0,0.0,0.0,0.0,0.0,0.0,0.0,0.0,0.0,0.0,-2.9187,-2.8748,-2.8299,-2.7836,-2.7412,-2.6988,-2.6545,-2.6545,-2.6579,-2.6737,-2.8431,-2.9382,-2.9737,-2.9737,-2.9467,-2.8992,-2.8129,-2.7297,-2.66,0.0,-2.5601,0.0,0.0,-2.6894,0.0,-2.7915,-2.8663,-2.9533,-3.0405,-3.0368,-3.0329,-3.0504,-3.0523,-3.0601,-3.0777,-3.0796,-3.0796,-3.0796,-3.0792,-3.0809,-3.0809,-2.9962,-2.9509,-2.9509,-2.9505,-2.9507,0.0,0.0,0.0,0.0,0.0,0.0,0.0,0.0,0.0,0.0,0.0,-3.0706,-3.0701,-3.0672,-3.0657,-3.0608,-3.0595,-3.0592,-3.0579,-3.05,-3.0479,-3.0488,-3.0462,-3.0467,-3.0481,-3.0481,-3.0485,-3.0474,-3.0504,-3.0499,-3.0474,-3.0474,-3.0488,-3.0477,-3.0411,-3.0383,-3.0354,-3.031,-3.0152,-2.9583,-2.8089,-2.7445,-2.6732,-2.5419,-2.5236,0.0,0.0,0.0,0.0,0.0,0.0,0.0,0.0,0.0,0.0,0.0,0.0,0.0,0.0,0.0,0.0,0.0,0.0,0.0,0.0,0.0,0.0,-2.6777,0.0,-2.7088,0.0,-2.7711,-2.7262,-2.6591,-2.6418,-2.5956,-2.5298,-2.5274,-2.5875,-2.6976,-2.845,-2.9187,-2.9346,-2.9148,-2.8975,-2.8643,-2.7135,-2.6453,-2.6294,0.0,0.0,0.0,0.0,0.0,0.0,0.0,-2.7753,-2.8638,-2.9514,-2.8988,-2.8814,-2.9535,-2.9613,-2.9944,-3.0723,-3.0801,-3.0801,-3.0801,-3.0799,-3.0799,-3.0799,-2.9971,-2.9498,-2.9498,-2.9498,-2.9491,0.0,0.0,0.0,0.0,0.0,0.0,0.0,0.0,0.0,0.0,-3.0709,-3.0704,-3.0688,-3.0637,-3.0604,-3.0602,-3.0602,-3.0554,-3.0504,-3.0419,-3.0416,-3.0404,-3.0336,-3.0354,-3.0403,-3.0403,-3.0403,-3.0428,-3.0474,-3.0463,-3.0398,-3.0398,-3.0419,-3.041,-3.041,-3.0348,-3.031,-3.031,-2.9641,-2.8772,-2.7899,-2.6448,-2.5298,-2.5151,-2.5159,-2.5203,0.0,0.0,0.0,0.0,0.0,0.0,0.0,0.0,0.0,0.0,0.0,0.0,0.0,0.0,0.0,0.0,0.0,0.0,0.0,0.0,-2.5904,-2.671,-2.6641,0.0,-2.7881,-2.7107,-2.6687,-2.657,-2.5777,-2.5369,-2.5292,-2.5247,-2.6159,-2.7761,-2.8642,-2.9473,-3.0118,-2.932,-2.856,-2.7806,-2.6868,-2.6014,-2.5302,0.0,0.0,0.0,0.0,0.0,0.0,0.0,-2.7203,-2.7537,-2.7898,-2.8117,-2.8353,-2.8678,-2.8717,-2.9065,-2.9939,-3.0017,-3.0212,-3.0718,-3.0738,-3.0524,-3.0037,-2.9175,-2.8471,-2.7948,-2.8442,-2.8729,0.0,0.0,0.0,0.0,0.0,0.0,0.0,0.0,-3.0233,-3.0694,-3.0656,-3.0637,-3.0621,-3.0577,-3.055,-3.055,-3.05,-3.0463,-3.0439,-3.0359,-3.0349,-3.0324,-3.0254,-3.028,-3.0329,-3.0329,-3.0329,-3.0355,-3.0367,-3.0361,-3.0336,-3.034,-3.0336,-3.0336,-3.0336,-3.0279,-3.0241,-3.0241,-2.955,-2.8668,-2.7816,-2.6282,-2.5101,-2.5095,-2.5119,-2.5164,0.0,0.0,0.0,0.0,0.0,0.0,0.0,0.0,0.0,0.0,0.0,0.0,0.0,0.0,0.0,0.0,0.0,0.0,-2.2943,0.0,-2.5588,-2.587,-2.5788,-2.5926,-2.6285,-2.5924,-2.5754,-2.5748,-2.5398,-2.5215,-2.5236,-2.6253,-2.7095,-2.7841,-2.9162,-2.9934,-3.0119,-2.8747,-2.8013,-2.7561,-2.6142,-2.5373,-2.5063,-2.5571,0.0,-2.5565,0.0,-2.6087,-2.6487,-2.6487,-2.6487,-2.6582,-2.6848,-2.7187,-2.7509,-2.779,-2.7829,-2.8179,-2.903,-2.9127,-2.9477,-3.0294,-3.0353,-3.0197,-2.9863,-2.8793,0.0,-2.767,-2.8007,-2.8293,-2.8546,-3.0036,0.0,0.0,0.0,0.0,0.0,-3.0024,-3.0082,-3.0673,-3.06,-3.0573,-3.0564,-3.0525,-3.0495,-3.0474,-3.0417,-3.0396,-3.0355,-3.0286,-3.0273,-3.0266,-3.0214,-3.024,-3.026,-3.0273,-3.0273,-3.0273,-3.0286,-3.0292,-3.0299,-3.0305,-3.0292,-3.0299,-3.0305,-3.0241,-3.0188,-3.0188,-2.9318,-2.8202,-2.7076,-2.5901,-2.5069,-2.5069,-2.5076,-2.5088,0.0,0.0,0.0,0.0,0.0,0.0,0.0,-2.5302,-2.5255,-2.5231,0.0,0.0,0.0,0.0,0.0,0.0,0.0,0.0,0.0,0.0,0.0,0.0,0.0,-2.5138,-2.5145,-2.5164,-2.5159,-2.5147,-2.5147,-2.5111,-2.5151,-2.6861,-2.7623,-2.7751,-2.9174,-2.9754,-2.9589,-2.7916,-2.7261,-2.7064,-2.5532,-2.4967,-2.4922,-2.5502,-2.5509,-2.5502,-2.5499,-2.5499,-2.5522,-2.5522,-2.5522,-2.5822,-2.6698,-2.6058,-2.5894,-2.6812,-2.6914,-2.7264,-2.814,-2.8218,-2.8585,-2.9458,-2.9513,-2.9863,0.0,0.0,-2.8599,-2.9455,-2.857,-2.8511,-2.9389,0.0,0.0,-3.0603,0.0,0.0,-3.0603,-3.0582,-3.0586,-3.0598,-3.053,-3.0505,-3.0504,-3.0504,-3.0466,-3.0404,-3.0404,-3.0368,-3.0286,-3.0227,-3.0195,-3.0207,-3.0199,-3.0211,-3.0192,-3.02,-3.0188,-3.0221,-3.0279,-3.0292,-3.0292,-3.0292,-3.0292,-3.0292,-3.0292,-3.0241,-3.0188,-3.0188,-2.8867,-2.7121,-2.5393,-2.503,-2.5003,-2.5003,-2.4992,-2.5025,-2.5095,0.0,0.0,0.0,0.0,0.0,0.0,-2.5245,-2.5174,-2.5116,0.0,0.0,0.0,0.0,0.0,0.0,0.0,0.0,-2.2903,-2.4393,0.0,-2.5096,-2.5043,-2.5006,-2.4999,-2.5076,-2.5069,-2.5,-2.5,-2.4968,-2.5003,-2.6671,-2.7433,-2.7576,-2.8381,-2.8719,-2.854,-2.6864,-2.6216,-2.6103,-2.5234,-2.4863,-2.4787,-2.5506,-2.5499,-2.5499,-2.5502,-2.5502,-2.5502,-2.5502,-2.6006,-2.6488,-2.6752,-2.6558,-2.6491,-2.6806,-2.6304,-2.6307,0.0,-2.7256,-2.7624,0.0,-2.8556,-2.8653,-2.8929,-2.842,-2.8262,-2.853,-2.8251,-2.8248,-2.85,0.0,0.0,0.0,-3.0543,-3.0525,-3.0525,-3.0535,-3.0535,-3.0525,-3.0455,-3.0439,-3.0428,-3.0389,-3.0359,-3.0336,-3.033,-3.0292,-3.0227,-3.0213,-3.0166,-3.0138,-3.013,-3.0128,-3.0044,-2.9482,-2.968,-3.0138,-3.0152,-3.0164,-3.0164,-3.0225,-3.0199,-3.0173,-3.0221,-3.0226,-3.0199,-3.0199,-2.8852,-2.7106,-2.5359,-2.4991,-2.5003,-2.5003,-2.4952,-2.4959,-2.5011,0.0,0.0,0.0,0.0,0.0,0.0,-2.5044,-2.4908,0.0,-2.4797,0.0,0.0,0.0,0.0,0.0,0.0,0.0,0.0,-2.4585,0.0,-2.4955,-2.4947,-2.494,-2.4926,-2.4946,-2.4933,-2.4891,-2.5478,-2.5385,-2.4821,-2.5959,-2.6464,-2.6528,-2.7358,-2.7679,-2.7563,-2.6483,-2.6061,-2.5959,-2.5084,-2.4753,-2.4729,-2.5453,-2.5453,-2.5453,-2.5453,-2.5453,-2.5453,-2.5453,-2.5917,-2.6397,-2.6726,-2.6475,-2.6397,-2.6726,-2.5975,0.0,-2.6253,-2.6308,-2.6676,-2.754,-2.7617,-2.7756,-2.8097,-2.8097,-2.8249,-2.8571,0.0,0.0,-2.8555,-2.9068,-2.9568,-3.0047,-3.0306,-3.0414,-3.0414,-3.0422,-3.0417,-3.0411,-3.0375,-3.0358,-3.0359,-3.0323,-3.0279,-3.026,-3.026,-3.0246,-3.0194,-3.0178,-3.015,-3.0101,-3.0094,-2.9881,-2.9512,-2.902,-2.8974,-2.9131,-2.9153,-2.9165,-2.9177,-2.9208,-2.9201,-2.9167,-2.9216,-2.9209,-2.9138,-2.8814,-2.7895,-2.6718,-2.5296,-2.4991,-2.4984,-2.4971,-2.4931,-2.4917,-2.4917,0.0,-2.4905,0.0,0.0,0.0,0.0,0.0,0.0,0.0,-2.4553,0.0,0.0,0.0,0.0,0.0,0.0,0.0,-2.3853,-2.4625,0.0,-2.4858,-2.4842,-2.4997,-2.5318,-2.562,-2.5571,-2.5235,-2.5788,-2.5531,-2.4717,-2.5568,-2.5924,-2.5962,-2.6476,-2.6664,-2.6589,-2.5801,-2.5483,-2.5399,-2.4861,-2.4642,-2.4609,-2.5391,-2.5406,0.0,0.0,-2.541,0.0,-2.5406,-2.5444,-2.5772,-2.6583,-2.5985,-2.5792,-2.6602,-2.5927,-2.5427,-2.5484,0.0,0.0,0.0,-2.6699,-2.7098,-2.795,-2.7989,0.0,-2.9284,-2.8395,-2.8315,-2.9128,-2.9105,-2.911,-2.9127,-2.9913,-3.0298,-3.0298,-3.0298,-3.0298,-3.0298,-3.0292,-3.0292,-3.0299,-3.0299,-3.026,-3.0181,-3.0207,-3.0194,-3.0185,-3.0116,-3.0101,-3.0101,-3.0034,-2.9467,-2.8782,-2.8667,-2.8068,-2.7431,-2.7556,-2.7582,-2.7582,-2.7582,-2.7589,-2.7589,-2.7608,-2.7589,-2.738,-2.6503,-2.6305,-2.6056,-2.5176,-2.4985,-2.4971,-2.4917,-2.4884,-2.4863,-2.482,-2.4805,-2.4834,-2.4971,0.0,0.0,0.0,0.0,0.0,0.0,-2.4419,-2.4394,0.0,0.0,0.0,0.0,0.0,-2.3869,-2.3864,-2.4523,-2.4861,-2.4798,-2.4798,-2.5214,-2.6086,-2.6896,-2.6795,-2.5883,-2.5957,-2.5473,-2.4628,-2.5385,-2.5702,-2.5693,-2.5693,-2.5693,-2.5619,-2.4862,-2.4582,-2.4582,-2.4582,-2.4541,-2.4491,0.0,0.0,-2.5403,-2.5403,-2.5397,-2.5406,-2.5407,-2.5923,-2.6381,-2.6598,-2.6434,-2.6386,-2.6598,-2.5842,-2.5332,-2.5351,-2.5387,-2.5505,-2.5726,-2.5726,-2.6112,-2.699,-2.7028,-2.7415,-2.8241,-2.744,-2.7107,-2.732,-2.7864,-2.8467,-2.9127,-2.9858,-3.0221,-3.0221,-3.0221,-3.0226,-3.0226,-3.0173,-3.0152,-3.0145,-3.0145,-3.0138,-3.013,-3.0185,-3.0192,-3.0185,-3.0116,-3.0101,-3.0006,-2.9329,-2.8969,-2.8586,-2.7293,-2.6714,-2.6636,-2.7317,-2.7519,-2.7523,-2.7514,-2.7514,-2.7547,-2.7582,-2.7589,-2.7373,-2.6495,-2.6291,-2.6043,-2.5115,-2.4912,-2.4891,-2.4842,-2.4791,-2.4753,-2.4787,-2.4768,-2.4764,-2.4903,0.0,0.0,0.0,-2.473,-2.458,-2.4442,-2.4356,-2.433,0.0,0.0,0.0,0.0,0.0,-2.4452,-2.4551,-2.4689,-2.4738,-2.4715,-2.5372,-2.608,-2.6854,-2.7661,-2.7251,-2.5834,-2.6468,-2.5902,-2.4456,-2.4642,-2.4698,-2.4662,-2.4662,-2.4662,-2.4644,-2.4458,-2.4366,-2.4366,-2.4366,-2.4348,-2.4348,-2.5868,-2.5878,-2.5778,-2.538,-2.5313,-2.5317,-2.5303,-2.5687,-2.5951,-2.596,-2.5971,-2.5956,-2.5956,-2.5538,-2.5253,-2.5253,-2.5284,-2.5327,-2.5356,-2.5356,-2.5572,-2.6049,-2.6439,-2.6868,-2.7311,-2.7268,-2.7238,-2.7204,-2.7967,-2.856,-2.9033,-2.9785,-3.013,-3.0109,-3.0072,-3.0057,-3.0057,-3.0007,-3.0034,-3.0049,-3.0049,-3.0064,-3.0106,-3.0142,-3.0157,-3.0157,-3.0109,-3.0094,-3.0022,-2.9528,-2.8844,-2.8047,-2.7136,-2.6287,-2.5743,-2.6186,-2.6337,-2.6356,-2.6318,-2.6318,-2.6318,-2.6318,-2.6325,-2.6205,-2.5721,-2.562,-2.5473,-2.4958,-2.4856,-2.4842,-2.4776,-2.4712,-2.47,-2.4703,-2.4698,-2.4729,-2.4798,-2.4772,0.0,-2.4753,-2.4604,-2.4454,-2.432,-2.4275,-2.4247,-2.4247,0.0,0.0,-2.4454,-2.4498,-2.4574,-2.4745,-2.4687,-2.4832,-2.5206,-2.6424,-2.7062,-2.7064,-2.7877,-2.7382,-2.5781,-2.6172,-2.5644,-2.4403,-2.4376,-2.433,-2.4294,-2.4294,-2.4294,-2.4294,-2.4294,-2.4294,-2.4294,-2.4294,-2.4284,-2.4247,-2.6295,-2.6295,-2.6066,-2.5305,-2.5176,-2.5176,-2.5171,-2.5171,-2.519,-2.5185,-2.519,-2.5171,-2.5171,-2.5171,-2.5171,-2.5171,-2.5185,-2.5201,-2.5282,-2.5282,-2.5273,-2.5274,-2.6,-2.639,-2.639,-2.725,-2.7728,-2.7785,-2.8587,-2.8937,-2.8897,-2.9703,-3.0022,-2.9975,-2.9907,-2.9864,-2.9874,-2.9864,-2.9888,-2.9956,-2.9983,-3.0014,-3.0061,-3.0072,-3.0087,-3.0094,-3.0094,-3.0098,-3.0068,-2.987,-2.8871,-2.7653,-2.7399,-2.633,-2.5141,-2.4962,-2.4931,-2.4957,-2.4891,-2.4877,-2.4863,-2.482,-2.4779,-2.4779,-2.4779,-2.4779,-2.4779,-2.4772,-2.4791,-2.4768,-2.47,-2.4676,-2.4653,-2.4615,-2.4642,-2.4674,-2.4711,0.0,-2.4658,-2.4599,-2.4472,-2.4348,-2.422,-2.4219,-2.4218,-2.4218,-2.4228,0.0,0.0,-2.4348,-2.4465,-2.4634,-2.4599,-2.5047,-2.5999,-2.7401,-2.7793,-2.7196,-2.7735,-2.7177,-2.569,-2.5625,-2.5144,-2.4376,-2.4321,-2.4275,-2.4275,-2.4275,-2.4284,-2.4257,-2.4257,-2.4257,-2.4247,-2.4247,-2.4219,-2.417,-2.5328,-2.5322,-2.5265,-2.515,-2.5122,-2.5115,-2.5118,-2.5131,-2.5119,-2.5114,-2.5113,-2.5131,-2.5131,-2.5131,-2.5131,-2.5131,-2.5126,-2.5143,-2.5212,-2.5217,-2.5217,-2.5222,-2.5343,-2.5419,-2.5419,-2.6277,-2.7041,-2.772,-2.8465,-2.8829,-2.8839,-2.9588,-2.9904,-2.9834,-2.9753,-2.9736,-2.9729,-2.9736,-2.9744,-2.9761,-2.9876,-2.9926,-2.994,-2.9988,-3.0053,-3.0102,-3.0102,-3.0102,-3.0,-2.9243,-2.881,-2.8347,-2.6875,-2.6188,-2.5792,-2.5099,-2.4863,-2.4834,-2.4827,-2.4824,-2.4821,-2.4795,-2.4764,-2.4723,-2.4723,-2.4723,-2.4715,-2.4722,-2.4714,-2.4698,-2.4631,-2.4566,-2.4559,-2.4599,-2.4549,-2.4568,0.0,0.0,-2.4539,-2.4512,-2.4455,-2.4358,-2.4284,-2.4275,-2.4275,-2.4275,-2.4275,-2.4284,-2.4294,-2.4321,-2.4339,-2.4367,-2.4471,-2.5274,-2.6877,-2.7093,-2.7485,-2.8015,-2.7342,-2.6533,-2.5616,-2.555,-2.5041,-2.422,-2.422,-2.421,-2.4218,-2.4218,-2.419,-2.4133,-2.4133,-2.4103,-2.4046,-2.4046,-2.4036,-2.4026,-2.5749,-2.5755,-2.5615,-2.5177,-2.5063,-2.5069,-2.5082,-2.5101,-2.5095,-2.5101,-2.5095,-2.5101,-2.5101,-2.5101,-2.5101,-2.5101,-2.5108,-2.5107,-2.5149,-2.5147,-2.5164,-2.5206,-2.517,-2.5369,-2.5834,-2.6632,-2.7452,-2.8299,-2.9008,-2.9347,-2.9331,-2.9621,-2.971,-2.9682,-2.9626,-2.9589,-2.9589,-2.9598,-2.9636,-2.971,-2.9774,-2.9808,-2.9849,-2.9926,-2.9978,-3.0002,-2.9999,-2.9687,-2.9311,-2.9363,-2.8771,-2.7839,-2.7048,-2.6477,-2.5937,-2.5091,-2.4824,-2.4783,-2.4761,-2.4749,-2.4737,-2.4695,-2.4671,-2.4645,-2.4645,-2.4645,-2.4655,-2.4658,-2.465,-2.4634,-2.4549,-2.4525,-2.4491,-2.4455,-2.4437,0.0,0.0,-2.4445,-2.4374,-2.4347,-2.4275,-2.4209,-2.4143,-2.4143,-2.4143,-2.4143,-2.4143,-2.4153,-2.42,-2.4219,-2.4247,-2.4257,-2.4755,-2.5412,-2.6238,-2.6683,-2.683,-2.6738,-2.6319,-2.568,-2.4903,-2.4829,-2.4579,-2.4201,-2.4163,-2.4152,-2.4151,-2.4103,-2.4074,-2.4054,-2.4054,-2.4006,-2.3955,-2.3955,-2.3925,-2.3891,-2.5975,-2.5967,-2.5763,-2.5138,-2.4992,-2.496,-2.5024,-2.5031,-2.5031,-2.5031,-2.5031,-2.5037,-2.5044,-2.505,-2.505,-2.5076,-2.5076,-2.5082,-2.5089,-2.507,-2.5101,-2.5162,-2.5107,-2.5488,-2.6327,-2.6887,-2.7694,-2.8742,-2.9227,-2.9565,-2.9755,-2.9608,-2.9559,-2.9531,-2.9472,-2.9453,-2.9443,-2.9463,-2.954,-2.9636,-2.9655,-2.9719,-2.9782,-2.9834,-2.9859,-2.9887,-2.9874,-2.9336,-2.8696,-2.9376,-2.8558,-2.7261,-2.7072,-2.6593,-2.591,-2.5024,-2.4776,-2.4734,-2.4684,-2.4663,-2.4634,-2.4582,-2.4557,-2.4522,-2.4549,-2.4557,-2.4557,-2.4557,-2.4557,-2.4532,-2.4474,-2.4437,-2.4402,-2.4294,0.0,0.0,0.0,-2.4294,-2.4229,-2.4173,-2.4114,-2.4064,-2.4006,-2.3996,-2.3996,-2.3996,-2.3996,-2.4016,-2.4074,-2.4132,-2.4152,-2.4154,-2.5031,-2.5493,-2.5493,-2.6168,-2.6168,-2.5493,-2.5281,-2.4865,-2.4275,-2.421,-2.4163,-2.4144,-2.4095,-2.4084,-2.4074,-2.4006,-2.3976,-2.3947,-2.3955,-2.3904,-2.3842,-2.3842,-2.3797,-2.3729,-2.5,-2.4958,-2.4884,-2.4834,-2.4808,-2.4827,-2.4816,-2.4816,-2.4816,-2.4816,-2.4816,-2.4849,-2.4917,-2.4905,-2.4938,-2.501,-2.501,-2.5004,-2.5012,-2.5018,-2.5038,-2.5108,-2.5038,-2.5385,-2.6193,-2.6214,-2.6949,-2.8527,-2.8515,-2.8885,-2.9617,-2.9491,-2.9373,-2.9314,-2.9314,-2.932,-2.9334,-2.939,-2.9412,-2.9433,-2.9569,-2.9645,-2.9701,-2.9718,-2.9744,-2.9808,-2.9816,-2.9288,-2.8598,-2.8674,-2.807,-2.7167,-2.6412,-2.6101,-2.5839,-2.4959,-2.4653,-2.4615,-2.4615,-2.4557,-2.4517,-2.4508,-2.4411,-2.4348,-2.4412,-2.4421,-2.4421,-2.4421,-2.4421,-2.4384,-2.433,-2.4266,-2.422,-2.421,0.0,0.0,-2.4209,-2.4161,-2.4113,-2.4113,-2.4054,-2.4006,-2.3996,-2.3996,-2.3996,-2.3996,-2.3996,-2.4006,-2.4006,-2.4006,-2.4016,-2.4016,-2.4973,-2.5493,-2.5493,-2.5549,-2.5549,-2.5493,-2.4671,-2.4256,-2.4199,-2.4133,-2.4066,-2.4016,-2.4006,-2.4006,-2.4006,-2.3945,-2.3876,-2.3806,-2.38,-2.3739,-2.3618,-2.3618,-2.3585,-2.3517,-2.4842,-2.4813,-2.4809,-2.4794,-2.4798,-2.4809,-2.4794,-2.4794,-2.4794,-2.4794,-2.4794,-2.4801,-2.4842,-2.4842,-2.4863,-2.4931,-2.4903,-2.4884,-2.4952,-2.4903,-2.4903,-2.4965,-2.4912,-2.4981,-2.5201,-2.5662,-2.6458,-2.7567,-2.7998,-2.8629,-2.9409,-2.9318,-2.9257,-2.9235,-2.9235,-2.9265,-2.9302,-2.9326,-2.9359,-2.9412,-2.9511,-2.9588,-2.9636,-2.9673,-2.9729,-2.9738,-2.9701,-2.9166,-2.848,-2.8435,-2.7854,-2.7039,-2.6176,-2.5889,-2.5695,-2.4821,-2.4555,-2.4542,-2.45,-2.4491,-2.4482,-2.4393,-2.4348,-2.4312,-2.433,-2.4339,-2.4339,-2.4339,-2.4339,-2.4321,-2.4257,-2.4228,-2.419,-2.4134,0.0,-2.4084,-2.4084,-2.4016,-2.3986,-2.3986,-2.3922,-2.3881,-2.3881,-2.385,-2.38,-2.38,-2.38,-2.38,-2.38,-2.386,-2.3902,-2.3945,-2.431,-2.4544,-2.4622,-2.4679,-2.4679,-2.4622,-2.429,-2.4123,-2.4074,-2.4054,-2.4006,-2.3945,-2.3896,-2.3884,-2.3871,-2.3765,-2.37,-2.3678,-2.3578,-2.3505,-2.3407,-2.336,-2.3289,-2.3193,-2.4761,-2.4749,-2.4734,-2.4738,-2.4742,-2.4734,-2.4738,-2.4746,-2.4746,-2.4761,-2.4761,-2.4776,-2.4798,-2.4798,-2.482,-2.4863,-2.4827,-2.4813,-2.4868,-2.478,-2.4764,-2.4794,-2.4749,-2.4797,-2.491,-2.5426,-2.621,-2.7257,-2.775,-2.8421,-2.9197,-2.9163,-2.9152,-2.9152,-2.9156,-2.9178,-2.9229,-2.9291,-2.9326,-2.9361,-2.9443,-2.9501,-2.954,-2.9617,-2.9636,-2.9636,-2.9598,-2.9055,-2.8362,-2.8297,-2.7727,-2.6962,-2.6365,-2.5983,-2.5593,-2.4694,-2.4436,-2.442,-2.4358,-2.4367,-2.4375,-2.4284,-2.4275,-2.4275,-2.4266,-2.4266,-2.4266,-2.4266,-2.4275,-2.4257,-2.4182,-2.4152,-2.4132,-2.4054,-2.3996,-2.3966,-2.3937,-2.3904,-2.3873,-2.3873,-2.3818,-2.3772,-2.3772,-2.3916,-2.4015,-2.4015,-2.4226,-2.425,-2.4011,-2.3811,-2.3732,-2.3761,-2.3792,-2.3863,-2.3974,-2.4074,-2.4103,-2.4074,-2.4054,-2.4006,-2.3927,-2.3935,-2.3884,-2.381,-2.3768,-2.3725,-2.3707,-2.3562,-2.3505,-2.3494,-2.3336,-2.3241,-2.3168,-2.3107,-2.299,-2.2889,-2.4701,-2.465,-2.4607,-2.4607,-2.4607,-2.4607,-2.4607,-2.4607,-2.4623,-2.4701,-2.4701,-2.4714,-2.4791,-2.4798,-2.4795,-2.4794,-2.4802,-2.4798,-2.4798,-2.469,-2.4615,-2.4618,-2.4604,-2.4923,-2.5588,-2.5541,-2.6264,-2.7801,-2.7801,-2.8205,-2.9005,-2.9005,-2.9005,-2.9005,-2.9074,-2.9089,-2.9119,-2.9229,-2.9302,-2.9312,-2.9361,-2.9402,-2.9412,-2.9472,-2.9492,-2.9492,-2.9492,-2.8988,-2.8297,-2.8211,-2.7671,-2.7,-2.7,-2.6386,-2.5513,-2.4589,-2.4294,-2.4284,-2.421,-2.4209,-2.4199,-2.421,-2.42,-2.4199,-2.421,-2.4201,-2.4201,-2.4201,-2.42,-2.418,-2.4103,-2.4036,-2.3986,-2.3907,-2.3896,-2.3886,-2.3806,-2.38,-2.3804,-2.3804,-2.3732,-2.37,-2.3718,-2.4322,-2.4694,-2.4712,-2.5372,-2.5442,-2.4635,-2.3904,-2.3494,-2.3505,-2.3567,-2.3634,-2.37,-2.3894,-2.3996,-2.3996,-2.3927,-2.3847,-2.3795,-2.3807,-2.3729,-2.3596,-2.3603,-2.3562,-2.3494,-2.3348,-2.3301,-2.3277,-2.3082,-2.2957,-2.2893,-2.2829,-2.2751,-2.2685,-2.4623,-2.4615,-2.4607,-2.4607,-2.4607,-2.4607,-2.4607,-2.4607,-2.4607,-2.4623,-2.4623,-2.4666,-2.4714,-2.4698,-2.4687,-2.473,-2.4634,-2.4555,-2.4472,-2.4903,-2.5143,-2.5095,-2.518,-2.5272,-2.5393,-2.5913,-2.6677,-2.7652,-2.7652,-2.8072,-2.8858,-2.8858,-2.8858,-2.8858,-2.8929,-2.8987,-2.904,-2.913,-2.9186,-2.924,-2.9304,-2.9336,-2.9347,-2.9392,-2.9433,-2.9433,-2.9373,-2.9214,-2.8915,-2.8275,-2.7902,-2.7588,-2.6975,-2.6225,-2.5504,-2.5226,-2.4708,-2.4228,-2.4218,-2.4133,-2.4074,-2.4123,-2.4085,-2.4056,-2.4066,-2.4066,-2.4066,-2.4066,-2.4056,-2.4046,-2.4026,-2.3986,-2.3917,-2.3907,-2.3865,-2.3824,-2.38,-2.3797,-2.3783,-2.375,-2.3674,-2.3804,-2.4289,-2.4504,-2.4817,-2.5301,-2.5007,-2.4716,-2.4468,-2.3677,-2.3241,-2.3289,-2.3313,-2.336,-2.3418,-2.3675,-2.3813,-2.386,-2.3797,-2.3714,-2.3656,-2.3555,-2.3464,-2.3401,-2.3336,-2.3253,-2.3144,-2.3057,-2.2995,-2.2927,-2.2777,-2.2672,-2.2605,-2.2538,-2.246,-2.2346,-2.4557,-2.4524,-2.4471,-2.4471,-2.4471,-2.4471,-2.4471,-2.4507,-2.4532,-2.4557,-2.4547,-2.4599,-2.4658,-2.4607,-2.458,-2.4629,-2.4478,-2.4321,-2.4191,-2.4876,-2.5241,-2.5154,-2.5823,-2.6202,-2.6166,-2.6647,-2.7262,-2.7997,-2.7997,-2.8252,-2.8712,-2.8749,-2.8761,-2.8761,-2.8834,-2.8893,-2.8952,-2.9021,-2.9089,-2.9156,-2.9229,-2.9262,-2.9262,-2.9307,-2.932,-2.931,-2.927,-2.9259,-2.9183,-2.8613,-2.8412,-2.8242,-2.7395,-2.6778,-2.6242,-2.5578,-2.5014,-2.4524,-2.4205,-2.4036,-2.3976,-2.4006,-2.4006,-2.3996,-2.3996,-2.3996,-2.3996,-2.3996,-2.3986,-2.3947,-2.3927,-2.3894,-2.3852,-2.3831,-2.38,-2.3768,-2.3754,-2.3739,-2.3707,-2.3674,-2.3585,-2.3808,-2.4521,-2.4821,-2.5345,-2.6313,-2.5331,-2.4677,-2.4677,-2.3571,-2.297,-2.3008,-2.3008,-2.3028,-2.3107,-2.3259,-2.344,-2.36,-2.3533,-2.3487,-2.3448,-2.3324,-2.3229,-2.3144,-2.3107,-2.3008,-2.2881,-2.2816,-2.2764,-2.2699,-2.2538,-2.246,-2.2405,-2.229,-2.2189,-2.2132,-2.4482,-2.4384,-2.4294,-2.4294,-2.4294,-2.4294,-2.4294,-2.4348,-2.4421,-2.4474,-2.4479,-2.4522,-2.4564,-2.4522,-2.4478,-2.4478,-2.4293,-2.4115,-2.3986,-2.466,-2.5045,-2.4994,-2.6471,-2.7386,-2.7574,-2.7592,-2.7925,-2.8587,-2.8587,-2.86,-2.86,-2.8657,-2.8682,-2.8682,-2.8761,-2.8822,-2.8893,-2.894,-2.9028,-2.9085,-2.9134,-2.9167,-2.9167,-2.9178,-2.9178,-2.9189,-2.9189,-2.9189,-2.9178,-2.91,-2.9051,-2.8835,-2.8113,-2.7805,-2.739,-2.5867,-2.5316,-2.5025,-2.4296,-2.401,-2.3896,-2.3896,-2.3927,-2.3986,-2.3986,-2.3986,-2.3986,-2.3976,-2.3917,-2.3876,-2.3795,-2.3779,-2.3772,-2.37,-2.3689,-2.3678,-2.3678,-2.3629,-2.3573,-2.3573,-2.3471,-2.3703,-2.4502,-2.516,-2.6121,-2.7482,-2.6077,-2.5123,-2.5068,-2.3605,-2.2728,-2.2659,-2.2672,-2.2699,-2.2764,-2.2777,-2.2944,-2.3265,-2.3205,-2.3168,-2.3168,-2.3095,-2.2995,-2.2863,-2.2868,-2.279,-2.2672,-2.2592,-2.2582,-2.2538,-2.2349,-2.2265,-2.2237,-2.2058,-2.1984,-2.1998,-2.4348,-2.433,-2.4294,-2.4294,-2.4294,-2.4294,-2.4294,-2.4303,-2.433,-2.4348,-2.4339,-2.4366,-2.4447,-2.4339,-2.4284,-2.4339,-2.4115,-2.3917,-2.385,-2.4482,-2.5128,-2.5745,-2.6655,-2.7476,-2.8175,-2.8258,-2.8368,-2.8505,-2.8574,-2.86,-2.86,-2.8612,-2.8625,-2.8625,-2.87,-2.8718,-2.8743,-2.881,-2.8846,-2.8858,-2.8881,-2.8917,-2.8975,-2.901,-2.9085,-2.9112,-2.9112,-2.9112,-2.91,-2.8987,-2.8893,-2.8815,-2.8633,-2.814,-2.7545,-2.7187,-2.6151,-2.507,-2.4907,-2.4348,-2.3816,-2.3816,-2.3827,-2.3837,-2.3837,-2.3837,-2.3845,-2.3839,-2.3828,-2.3797,-2.3725,-2.3667,-2.3641,-2.3618,-2.3585,-2.3539,-2.3464,-2.3441,-2.3418,-2.336,-2.3336,-2.3607,-2.4297,-2.5397,-2.6437,-2.738,-2.6335,-2.5407,-2.481,-2.3806,-2.2986,-2.2394,-2.2432,-2.2474,-2.2487,-2.2542,-2.2712,-2.2995,-2.2932,-2.2893,-2.2876,-2.2764,-2.2699,-2.2659,-2.2605,-2.2542,-2.246,-2.2391,-2.2338,-2.2268,-2.2118,-2.203,-2.1972,-2.1943,-2.1899,-2.1855,-2.4257,-2.4238,-2.4247,-2.4247,-2.4228,-2.4191,-2.4191,-2.4191,-2.4191,-2.4191,-2.4228,-2.4247,-2.4266,-2.4163,-2.4067,-2.4016,-2.3863,-2.3714,-2.3611,-2.4272,-2.4843,-2.5265,-2.6359,-2.7192,-2.7669,-2.8129,-2.8393,-2.8458,-2.8484,-2.8497,-2.8497,-2.8497,-2.8497,-2.8497,-2.8549,-2.8569,-2.8607,-2.8632,-2.87,-2.8749,-2.8749,-2.8798,-2.8858,-2.8881,-2.8935,-2.8952,-2.8952,-2.894,-2.8905,-2.8834,-2.8731,-2.8662,-2.8687,-2.8372,-2.7906,-2.7574,-2.6801,-2.5929,-2.5204,-2.4668,-2.423,-2.389,-2.38,-2.38,-2.38,-2.38,-2.3789,-2.3754,-2.3743,-2.3711,-2.3611,-2.3585,-2.3517,-2.3418,-2.3372,-2.3336,-2.3265,-2.3253,-2.3241,-2.3217,-2.318,-2.3418,-2.4091,-2.5314,-2.6234,-2.6647,-2.571,-2.4975,-2.4569,-2.3397,-2.2565,-2.2163,-2.2189,-2.2203,-2.2203,-2.2245,-2.2326,-2.246,-2.2588,-2.2632,-2.2623,-2.2542,-2.2457,-2.2402,-2.236,-2.2304,-2.2203,-2.2175,-2.2149,-2.2092,-2.2001,-2.1926,-2.1899,-2.1825,-2.1783,-2.1753,-2.4163,-2.4171,-2.417,-2.417,-2.4113,-2.4084,-2.4084,-2.4074,-2.4074,-2.4074,-2.4103,-2.4103,-2.4036,-2.3966,-2.3852,-2.3667,-2.36,-2.3504,-2.3383,-2.3944,-2.4339,-2.4493,-2.5831,-2.6672,-2.6872,-2.7731,-2.8237,-2.838,-2.838,-2.8411,-2.8411,-2.8411,-2.8411,-2.8411,-2.8411,-2.8432,-2.8479,-2.8479,-2.8562,-2.8644,-2.8644,-2.87,-2.8749,-2.8749,-2.8749,-2.8779,-2.8779,-2.8724,-2.8675,-2.8675,-2.8582,-2.8479,-2.8549,-2.8484,-2.828,-2.7679,-2.7347,-2.6919,-2.5637,-2.509,-2.4741,-2.4115,-2.3873,-2.3783,-2.3761,-2.3772,-2.3754,-2.3689,-2.3667,-2.3623,-2.3517,-2.3441,-2.3389,-2.3217,-2.3139,-2.3119,-2.3057,-2.3045,-2.3033,-2.3033,-2.2982,-2.3189,-2.3877,-2.4871,-2.5524,-2.5612,-2.4816,-2.427,-2.412,-2.2854,-2.2059,-2.1943,-2.1955,-2.1969,-2.1969,-2.1998,-2.2013,-2.2013,-2.2287,-2.2388,-2.2335,-2.2335,-2.2262,-2.2178,-2.2178,-2.2087,-2.2013,-2.1998,-2.1984,-2.1984,-2.1899,-2.1869,-2.1855,-2.1708,-2.1648,-2.1648,-2.4036,-2.4026,-2.4026,-2.4026,-2.4016,-2.4006,-2.4006,-2.3958,-2.3927,-2.3927,-2.3886,-2.3827,-2.3764,-2.3696,-2.3611,-2.3453,-2.343,-2.3395,-2.3313,-2.3341,-2.3712,-2.4476,-2.5266,-2.6025,-2.6796,-2.7621,-2.8122,-2.8313,-2.8367,-2.8411,-2.8411,-2.8411,-2.8411,-2.8411,-2.8411,-2.8411,-2.8406,-2.8406,-2.8419,-2.8432,-2.8432,-2.8484,-2.8531,-2.8531,-2.8587,-2.8625,-2.8625,-2.8587,-2.8518,-2.8518,-2.8484,-2.8424,-2.8419,-2.8406,-2.8375,-2.828,-2.7746,-2.714,-2.6955,-2.5877,-2.4799,-2.4691,-2.4192,-2.3678,-2.3573,-2.3623,-2.3689,-2.3629,-2.3573,-2.3487,-2.3436,-2.3265,-2.3156,-2.3132,-2.2982,-2.2855,-2.2842,-2.279,-2.2751,-2.2751,-2.2699,-2.2911,-2.3596,-2.3711,-2.3953,-2.4486,-2.4229,-2.3751,-2.3058,-2.2748,-2.2306,-2.1665,-2.1768,-2.1842,-2.1842,-2.194,-2.2013,-2.2013,-2.2041,-2.2056,-2.2056,-2.2056,-2.2041,-2.2027,-2.2027,-2.2027,-2.1998,-2.1926,-2.1911,-2.1913,-2.1783,-2.1739,-2.1693,-2.1509,-2.1433,-2.1433,-2.4006,-2.3996,-2.3996,-2.3996,-2.3937,-2.3896,-2.3896,-2.38,-2.3743,-2.3743,-2.3671,-2.3616,-2.3531,-2.347,-2.3395,-2.3301,-2.3289,-2.3265,-2.3193,-2.3168,-2.352,-2.4345,-2.5081,-2.5852,-2.6727,-2.7522,-2.8,-2.8136,-2.8209,-2.825,-2.8291,-2.8291,-2.8291,-2.8291,-2.8291,-2.8277,-2.8237,-2.8237,-2.8237,-2.8237,-2.8237,-2.8273,-2.8322,-2.8322,-2.8349,-2.8393,-2.8393,-2.8322,-2.8286,-2.8313,-2.8259,-2.8209,-2.8313,-2.8286,-2.825,-2.8313,-2.8067,-2.7665,-2.7269,-2.6623,-2.5858,-2.4974,-2.4509,-2.411,-2.3525,-2.343,-2.3464,-2.3448,-2.3407,-2.3348,-2.3253,-2.3132,-2.3008,-2.2889,-2.2777,-2.2659,-2.2596,-2.2555,-2.2528,-2.2487,-2.2432,-2.2465,-2.2685,-2.296,-2.3226,-2.3434,-2.3356,-2.3128,-2.2767,-2.2325,-2.1932,-2.1621,-2.1649,-2.1694,-2.1694,-2.1738,-2.1783,-2.1783,-2.1783,-2.184,-2.194,-2.1913,-2.1899,-2.1868,-2.1796,-2.1811,-2.1884,-2.1783,-2.1753,-2.1783,-2.1679,-2.1573,-2.1449,-2.1293,-2.1182,-2.1119]},{"header":{"parameterUnit":"m.s-1","parameterCategory":1,"la1":30.6,"la2":28.766,"lo1":-90.7593,"lo2":-88.6598,"dy":0.0162,"dx":0.0183,"nx":116,"ny":114,"refTime":"2023-07-19T06:00:00:Z","depth":0,"parameterNumber":3,"parameterNumberName":"V-component_of_WINDS"},"data":[0.0,0.0,0.0,0.0,0.0,0.0,0.0,0.0,0.0,0.0,0.0,0.0,0.0,0.0,0.0,0.0,0.0,0.0,0.0,0.0,0.0,0.0,0.0,0.0,0.0,0.0,0.0,0.0,0.0,0.0,0.0,0.0,0.0,0.0,0.0,0.0,0.0,0.0,0.0,0.0,0.0,0.0,0.0,0.0,0.0,0.0,0.0,0.0,0.0,0.0,0.0,0.0,0.0,0.0,0.0,0.0,0.0,0.0,0.0,0.0,0.0,0.0,0.0,0.0,0.0,0.0,0.0,0.0,0.0,0.0,0.0,0.0,0.0,0.0,0.0,0.0,0.0,0.0,0.0,0.0,0.0,0.0,0.0,0.0,0.0,0.0,0.0,0.0,0.0,0.0,0.0,0.0,0.0,0.0,0.0,0.0,0.0,0.0,0.0,0.0,0.0,0.0,0.0,0.0,0.0,0.0,0.0,0.0,0.0,0.0,0.0,0.0,0.0,0.0,0.0,0.0,0.0,0.0,0.0,0.0,0.0,0.0,0.0,0.0,0.0,0.0,0.0,0.0,0.0,0.0,0.0,0.0,0.0,0.0,0.0,0.0,0.0,0.0,0.0,0.0,0.0,0.0,0.0,0.0,0.0,0.0,0.0,0.0,0.0,0.0,0.0,0.0,0.0,0.0,0.0,0.0,0.0,0.0,0.0,0.0,0.0,0.0,0.0,0.0,0.0,0.0,0.0,0.0,0.0,0.0,0.0,0.0,0.0,0.0,0.0,0.0,0.0,0.0,0.0,0.0,0.0,0.0,0.0,0.0,0.0,0.0,0.0,0.0,0.0,0.0,0.0,0.0,0.0,0.0,0.0,0.0,0.0,0.0,0.0,0.0,0.0,0.0,0.0,0.0,0.0,0.0,0.0,0.0,0.0,0.0,0.0,0.0,0.0,0.0,0.0,0.0,0.0,0.0,0.0,0.0,0.0,0.0,0.0,0.0,0.0,0.0,0.0,0.0,0.0,0.0,0.0,0.0,0.0,0.0,0.0,0.0,0.0,0.0,0.0,0.0,0.0,0.0,0.0,0.0,0.0,0.0,0.0,0.0,0.0,0.0,0.0,0.0,0.0,0.0,0.0,0.0,0.0,0.0,0.0,0.0,0.0,0.0,0.0,0.0,0.0,0.0,0.0,0.0,0.0,0.0,0.0,0.0,0.0,0.0,0.0,0.0,0.0,0.0,0.0,0.0,0.0,0.0,0.0,0.0,0.0,0.0,0.0,0.0,0.0,0.0,0.0,0.0,0.0,0.0,0.0,0.0,0.0,0.0,0.0,0.0,0.0,0.0,0.0,0.0,0.0,0.0,0.0,0.0,0.0,0.0,0.0,0.0,0.0,0.0,0.0,0.0,0.0,0.0,0.0,0.0,0.0,0.0,0.0,0.0,0.0,0.0,0.0,0.0,0.0,0.0,0.0,0.0,0.0,0.0,0.0,0.0,0.0,0.0,0.0,0.0,0.0,0.0,0.0,0.0,0.0,0.0,0.0,0.0,0.0,0.0,0.0,0.0,0.0,0.0,0.0,0.0,0.0,0.0,0.0,0.0,0.0,0.0,0.0,0.0,0.0,0.0,0.0,0.0,0.0,0.0,0.0,0.0,0.0,0.0,0.0,0.0,0.0,0.0,0.0,0.0,0.0,0.0,0.0,0.0,0.0,0.0,0.0,0.0,0.0,0.0,0.0,0.0,0.0,0.0,0.0,0.0,0.0,0.0,0.0,0.0,0.0,0.0,0.0,0.0,0.0,0.0,0.0,0.0,0.0,0.0,0.0,0.0,0.0,0.0,0.0,0.0,0.0,0.0,0.0,0.0,0.0,0.0,0.0,0.0,0.0,0.0,0.0,0.0,0.0,0.0,0.0,0.0,0.0,0.0,0.0,0.0,0.0,0.0,0.0,0.0,0.0,0.0,0.0,0.0,0.0,0.0,0.0,0.0,0.0,0.0,0.0,0.0,0.0,0.0,0.0,0.0,0.0,0.0,0.0,0.0,0.0,0.0,0.0,0.0,0.0,0.0,0.0,0.0,0.0,0.0,0.0,0.0,0.0,0.0,0.0,0.0,0.0,0.0,0.0,0.0,0.0,0.0,0.0,0.0,0.0,0.0,0.0,0.0,0.0,0.0,0.0,0.0,0.0,0.0,0.0,0.0,0.0,0.0,0.0,0.0,0.0,0.0,0.0,0.0,0.0,0.0,0.0,0.0,0.0,0.0,0.0,0.0,0.0,0.0,0.0,0.0,0.0,0.0,0.0,0.0,0.0,0.0,0.0,0.0,0.0,0.0,0.0,0.0,0.0,0.0,0.0,0.0,0.0,0.0,0.0,0.0,0.0,0.0,0.0,0.0,0.0,0.0,0.0,0.0,0.0,0.0,0.0,0.0,0.0,0.0,0.0,0.0,0.0,0.0,0.0,0.0,0.0,0.0,0.0,0.0,0.0,0.0,0.0,0.0,0.0,0.0,0.0,0.0,0.0,0.0,0.0,0.0,0.0,0.0,0.0,0.0,0.0,0.0,0.0,0.0,0.0,0.0,0.0,0.0,0.0,0.0,0.0,0.0,0.0,0.0,0.0,0.0,0.0,0.0,0.0,0.0,0.0,0.0,0.0,0.0,0.0,0.0,0.0,0.0,0.0,0.0,0.0,0.0,0.0,0.0,0.0,0.0,0.0,0.0,0.0,0.0,0.0,0.0,0.0,0.0,0.0,0.0,0.0,0.0,0.0,0.0,0.0,0.0,0.0,0.0,0.0,0.0,0.0,0.0,0.0,0.0,0.0,0.0,0.0,0.0,0.0,0.0,0.0,0.0,0.0,0.0,0.0,0.0,0.0,0.0,0.0,0.0,0.0,0.0,0.0,0.0,0.0,0.0,0.0,0.0,0.0,0.0,0.0,0.0,0.0,0.0,0.0,0.0,0.0,0.0,0.0,0.0,0.0,0.0,0.0,0.0,0.0,0.0,0.0,0.0,0.0,0.0,0.0,0.0,0.0,0.0,0.0,0.0,0.0,0.0,0.0,0.0,0.0,0.0,0.0,0.0,0.0,0.0,0.0,0.0,0.0,0.0,0.0,0.0,0.0,0.0,0.0,0.0,0.0,0.0,0.0,0.0,0.0,0.0,0.0,0.0,0.0,0.0,0.0,0.0,0.0,0.0,0.0,0.0,0.0,0.0,0.0,0.0,0.0,0.0,0.0,0.0,0.0,0.0,0.0,0.0,0.0,0.0,0.0,0.0,0.0,0.0,0.0,0.0,0.0,0.0,0.0,0.0,0.0,0.0,0.0,0.0,0.0,0.0,0.0,0.0,0.0,0.0,0.0,0.0,0.0,0.0,0.0,0.0,0.0,0.0,0.0,0.0,0.0,0.0,0.0,0.0,0.0,0.0,0.0,0.0,0.0,0.0,0.0,0.0,0.0,0.0,0.0,0.0,0.0,0.0,0.0,0.0,0.0,0.0,0.0,0.0,0.0,0.0,0.0,0.0,0.0,0.0,0.0,0.0,0.0,0.0,0.0,0.0,0.0,0.0,0.0,0.0,0.0,0.0,0.0,0.0,0.0,0.0,0.0,0.0,0.0,0.0,0.0,0.0,0.0,0.0,0.0,0.0,0.0,0.0,0.0,0.0,0.0,0.0,0.0,0.0,0.0,0.0,0.0,0.0,0.0,0.0,0.0,0.0,0.0,0.0,0.0,0.0,0.0,0.0,0.0,0.0,0.0,0.0,0.0,0.0,0.0,0.0,0.0,0.0,0.0,0.0,0.0,0.0,0.0,0.0,0.0,0.0,0.0,0.0,0.0,0.0,0.0,0.0,0.0,0.0,0.0,0.0,0.0,0.0,0.0,0.0,0.0,0.0,0.0,0.0,0.0,0.0,0.0,0.0,0.0,0.0,0.0,0.0,0.0,0.0,0.0,0.0,0.0,0.0,0.0,0.0,0.0,0.0,0.0,0.0,0.0,0.0,0.0,0.0,0.0,0.0,0.0,0.0,0.0,0.0,0.0,0.0,0.0,0.0,0.0,0.0,0.0,0.0,0.0,0.0,0.0,0.0,0.0,0.0,0.0,0.0,0.0,0.0,0.0,0.0,0.0,0.0,0.0,0.0,0.0,0.0,0.0,0.0,0.0,0.0,0.0,0.0,0.0,0.0,0.0,0.0,0.0,0.0,0.0,0.0,0.0,0.0,0.0,0.0,0.0,0.0,0.0,0.0,0.0,0.0,0.0,0.0,0.0,0.0,0.0,0.0,0.0,0.0,0.0,0.0,0.0,0.0,0.0,0.0,0.0,0.0,0.0,0.0,0.0,0.0,0.0,0.0,0.0,0.0,0.0,0.0,0.0,0.0,0.0,0.0,0.0,0.0,0.0,0.0,0.0,0.0,0.0,0.0,0.0,0.0,0.0,0.0,0.0,0.0,0.0,0.0,0.0,0.0,0.0,0.0,0.0,0.0,0.0,0.0,0.0,0.0,0.0,0.0,0.0,0.0,0.0,0.0,0.0,0.0,0.0,0.0,0.0,0.0,0.0,0.0,0.0,0.0,0.0,0.0,0.0,0.0,0.0,0.0,0.0,0.0,0.0,0.0,0.0,0.0,0.0,0.0,0.0,0.0,0.0,0.0,0.0,0.0,0.0,0.0,0.0,0.0,0.0,0.0,0.0,0.0,0.0,0.0,0.0,0.0,0.0,0.0,0.0,0.0,0.0,0.0,0.0,0.0,0.0,0.0,0.0,0.0,0.0,0.0,0.0,0.0,0.0,0.0,0.0,0.0,0.0,0.0,0.0,0.0,0.0,0.0,0.0,0.0,0.0,0.0,0.0,0.0,0.0,0.0,0.0,0.0,0.0,0.0,0.0,0.0,0.0,0.0,0.0,0.0,0.0,0.0,0.0,0.0,0.0,0.0,0.0,0.0,0.0,0.0,0.0,0.0,0.0,0.0,0.0,0.0,0.0,0.0,0.0,0.0,0.0,0.0,0.0,0.0,0.0,0.0,0.0,0.0,0.0,0.0,0.0,0.0,0.0,0.0,0.0,0.0,0.0,0.0,0.0,0.0,0.0,0.0,0.0,0.0,0.0,0.0,0.0,0.0,0.0,0.0,0.0,0.0,0.0,0.0,0.0,0.0,0.0,0.0,0.0,0.0,0.0,0.0,0.0,0.0,0.0,0.0,0.0,0.0,0.0,0.0,0.0,0.0,0.0,0.0,0.0,0.0,0.0,0.0,0.0,0.0,0.0,0.0,0.0,0.0,0.0,0.0,0.0,0.0,0.0,0.0,0.0,0.0,0.0,0.0,0.0,0.0,0.0,0.0,0.0,0.0,0.0,0.0,0.0,0.0,0.0,0.0,0.0,0.0,0.0,0.0,0.0,0.0,0.0,0.0,0.0,0.0,0.0,0.0,0.0,0.0,0.0,0.0,0.0,0.0,0.0,0.0,0.0,0.0,0.0,0.0,0.0,0.0,0.0,0.0,0.0,0.0,0.0,0.0,0.0,0.0,0.0,0.0,0.0,0.0,0.0,0.0,0.0,0.0,0.0,0.0,0.0,0.0,0.0,0.0,0.0,0.0,0.0,0.0,0.0,0.0,0.0,0.0,0.0,0.0,0.0,0.0,0.0,0.0,0.0,0.0,0.0,0.0,0.0,0.0,0.0,0.0,0.0,0.0,0.0,0.0,0.0,0.0,0.0,0.0,0.0,0.0,0.0,0.0,0.0,0.0,0.0,0.0,0.0,0.0,0.0,0.0,0.0,0.0,0.0,0.0,0.0,0.0,0.0,0.0,0.0,0.0,0.0,0.0,0.0,0.0,0.0,0.0,0.0,0.0,0.0,0.0,0.0,0.0,0.0,0.0,0.0,0.0,0.0,0.0,0.0,0.0,0.0,0.0,0.0,0.0,0.0,0.0,0.0,0.0,0.0,0.0,0.0,0.0,0.0,0.0,0.0,0.0,0.0,0.0,0.0,0.0,0.0,0.0,0.0,0.0,0.0,0.0,0.0,0.0,0.0,0.0,0.0,0.0,0.0,0.0,0.0,0.0,0.0,0.0,0.0,0.0,0.0,0.0,0.0,0.0,-0.5887,0.0,0.0,0.0,0.0,0.0,0.0,0.0,0.0,0.0,0.0,0.0,0.0,0.0,0.0,0.0,0.0,0.0,0.0,0.0,0.0,0.0,0.0,0.0,0.0,0.0,0.0,0.0,0.0,0.0,0.0,0.0,0.0,0.0,0.0,0.0,0.0,0.0,0.0,0.0,0.6982,0.6557,0.6161,0.5996,0.5755,0.5409,0.0,0.0,0.0,0.0,0.0,0.0,0.0,0.0,0.0,0.0,0.0,0.0,0.0,0.0,0.0,0.0,0.0,0.0,0.0,0.0,0.0,0.0,0.0,0.0,0.0,0.0,0.0,0.0,0.0,0.0,0.0,0.0,0.0,0.0,0.0,0.0,0.0,0.0,0.0,0.0,0.0,0.0,0.0,0.0,0.0,0.0,0.0,0.0,0.0,0.0,0.0,0.0,0.0,0.0,0.0,0.0,0.0,0.0,0.0,0.0,0.0,0.0,0.0,0.0,0.0,0.0,0.0,0.0,0.0,0.0,0.0,-0.5757,0.0,0.0,0.0,0.0,0.0,0.0,0.0,0.0,0.0,0.0,0.0,0.0,0.0,0.0,0.0,0.0,0.0,0.0,0.0,0.0,0.0,0.0,0.0,0.0,0.0,0.0,0.0,0.0,0.0,0.0,0.0,0.0,0.0,0.0,0.0,0.7892,0.7607,0.7305,0.6749,0.6345,0.6073,0.604,0.587,0.5593,0.5579,0.0,0.0,0.0,0.0,0.0,0.0,0.0,0.0,0.0,0.0,0.0,0.0,0.0,0.0,0.0,0.0,0.0,0.0,0.0,0.0,0.0,0.0,0.0,0.0,0.0,0.0,0.0,0.0,0.0,0.0,0.0,0.0,0.0,0.0,0.0,0.0,0.0,0.0,0.0,0.0,0.0,0.0,0.0,0.0,0.0,0.0,0.0,0.0,0.0,0.0,0.0,0.0,0.0,0.0,0.0,0.0,0.0,0.0,0.0,0.0,0.0,0.0,0.0,0.0,-0.595,-0.6071,-0.5826,-0.5742,-0.5724,-0.5661,-0.5668,-0.5679,0.0,0.0,0.0,0.0,0.0,0.0,0.0,0.0,0.0,0.0,0.0,0.0,0.0,0.0,0.0,0.0,0.0,0.0,0.0,0.0,0.0,0.0,0.0,0.0,0.0,0.0,0.0,0.0,0.0,0.0,0.0,0.0,0.0,0.0,0.7974,0.7643,0.6958,0.6309,0.5969,0.5928,0.6031,0.6033,0.5918,0.5918,0.5813,0.5538,0.0,0.0,0.0,0.0,0.0,0.0,0.0,0.0,0.0,0.0,0.0,0.0,0.0,0.0,0.0,0.0,0.0,0.0,0.0,0.0,0.0,0.0,0.0,0.0,0.0,0.0,0.0,0.0,0.0,0.0,0.0,0.0,0.0,0.0,0.0,0.0,0.0,0.0,0.0,0.0,0.0,0.1839,0.1753,0.0,0.0,0.0,0.0,0.0,0.0,0.0,0.0,0.0,0.0,0.0,0.0,0.0,0.0,-0.5577,-0.5629,-0.5976,-0.663,-0.6013,-0.5844,-0.6007,-0.5634,-0.5471,-0.5468,-0.5459,0.0,-0.5621,-0.5584,0.0,0.0,0.0,0.0,0.0,0.0,0.0,0.0,0.0,0.0,0.0,0.0,0.0,0.0,0.0,0.0,0.0,0.0,0.0,0.0,0.0,0.0,0.0,0.0,0.0,0.0,0.0,0.0,0.0,0.0,0.0,0.8511,0.8179,0.7822,0.7277,0.6511,0.6141,0.5959,0.5938,0.6,0.606,0.6102,0.6108,0.6015,0.5848,0.5443,0.0,0.0,0.0,0.0,0.0,0.0,0.0,0.0,0.0,0.0,0.0,0.0,0.0,0.0,0.0,0.0,0.0,0.0,0.0,0.0,0.0,0.0,0.0,0.0,0.0,0.0,0.0,0.0,0.0,0.0,0.0,0.0,0.0,0.0,0.0,0.0,0.0,0.0,0.0,0.2537,0.1902,0.1714,0.1278,0.1034,0.0,0.0,0.0,0.0,0.0,0.0,0.0,0.0,0.0,-0.3662,-0.429,-0.5067,-0.5909,-0.6042,-0.6344,-0.6862,-0.634,-0.6128,-0.6214,-0.5786,-0.5575,-0.5575,-0.5575,-0.5559,-0.5547,-0.5452,-0.5531,-0.5663,0.0,0.0,0.0,0.0,0.0,-0.7136,0.0,0.0,0.0,0.0,0.0,0.0,0.0,0.0,0.0,0.0,0.0,0.0,0.0,0.0,0.0,0.8842,0.0,0.0,0.0,0.0,0.0,0.0,0.0,0.8518,0.8156,0.7537,0.6899,0.6212,0.6052,0.5957,0.5877,0.5993,0.608,0.6121,0.6176,0.6086,0.5946,0.5751,0.5452,0.5063,0.0,0.0,0.0,0.0,0.0,0.0,0.0,0.0,0.0,0.0,0.0,0.0,0.0,0.0,0.0,0.0,0.0,0.0,0.0,0.0,0.0,0.0,0.0,0.0,0.0,0.0,0.0,0.0,0.0,0.0,0.0,0.0,0.0,0.0,0.0,0.0,0.0,0.2542,0.1992,0.1696,0.1176,0.082,0.0,0.0,0.0,0.0,0.0,0.0,-0.2092,-0.2761,-0.3412,-0.3998,-0.466,-0.5329,-0.6088,-0.631,-0.6633,-0.7063,-0.6641,-0.6483,-0.6483,-0.6011,-0.5777,-0.5688,-0.5688,-0.5637,-0.5529,-0.5393,-0.5546,-0.5895,-0.6102,-0.6466,0.0,-0.7174,-0.7557,-0.7948,0.0,0.0,0.0,0.0,0.0,0.0,0.0,0.0,0.0,0.0,0.0,0.0,0.0,0.0,0.8499,0.8594,0.8443,0.8269,0.0,0.0,0.0,0.0,0.8133,0.8146,0.7739,0.7061,0.6592,0.6296,0.6023,0.5795,0.5545,0.592,0.6039,0.5925,0.6037,0.6046,0.5921,0.5909,0.5532,0.4976,0.4761,0.0,0.0,0.0,0.0,0.0,0.0,0.0,0.0,0.0,0.0,0.0,0.0,0.0,0.0,0.0,0.0,0.0,0.0,0.0,0.0,0.0,0.0,0.0,0.0,0.0,0.0,0.0,0.0,0.0,0.0,0.0,0.0,0.0,0.0,0.0,0.0,0.0,0.0,0.1554,0.0978,0.0,0.0,0.0,0.0,-0.101,-0.166,-0.2188,-0.246,-0.3177,-0.3738,-0.4089,-0.4875,-0.5497,-0.602,-0.625,-0.6676,-0.7201,-0.678,-0.6624,-0.667,-0.6272,-0.5952,-0.5688,-0.5688,-0.5686,-0.5669,-0.5534,-0.5594,-0.5857,-0.6241,-0.6812,-0.752,-0.7905,-0.8408,-0.8959,0.0,0.0,0.0,0.0,0.0,0.0,0.0,0.0,0.0,0.0,0.0,0.0,0.0,0.8579,0.871,0.8659,0.8461,0.8295,0.8081,0.0,0.0,0.0,0.7968,0.7846,0.7265,0.6922,0.6517,0.6032,0.5943,0.5776,0.5515,0.5721,0.5797,0.579,0.5841,0.5891,0.6014,0.5949,0.5769,0.5543,0.5224,0.4936,0.0,0.0,0.0,0.0,0.0,0.0,0.0,0.0,0.0,0.0,0.0,0.0,0.0,0.0,0.0,0.0,0.0,0.0,0.0,0.0,0.0,0.0,0.0,0.0,0.0,0.0,0.0,0.0,0.0,0.0,0.0,0.0,0.0,0.0,0.0,0.0,0.0,0.1599,0.1031,0.0,0.0042,-0.0342,-0.086,-0.1517,-0.1933,-0.2361,-0.2802,-0.3414,-0.3883,-0.4143,-0.4799,-0.5333,-0.5673,-0.6056,-0.6345,-0.6534,-0.6499,-0.6441,-0.6411,-0.6133,-0.5891,-0.5688,-0.5688,-0.5688,-0.5686,-0.5642,-0.5742,-0.5913,-0.6195,-0.6742,-0.7427,-0.8034,-0.8439,-0.8774,0.0,0.0,0.0,0.0,0.0,0.0,0.0,0.0,0.0,0.0,0.0,0.8044,0.8195,0.8518,0.8669,0.8597,0.8463,0.8291,0.8001,0.0,0.0,0.7553,0.76,0.7468,0.7067,0.6679,0.6273,0.5885,0.5735,0.5558,0.5413,0.5534,0.5591,0.5626,0.5586,0.5683,0.5892,0.5756,0.5725,0.5713,0.5383,0.5121,0.4872,0.0,0.0,0.0,0.0,0.0,0.0,0.0,0.0,0.0,0.0,0.0,0.0,0.0,0.0,0.0,0.0,0.0,0.0,0.0,0.0,0.0,0.0,0.0,0.0,0.0,0.0,0.0,0.0,0.0,0.0,0.0,0.0,0.0,0.0,0.0,0.1991,0.155,0.1043,0.0446,-0.0269,-0.0636,-0.1099,-0.1787,-0.2134,-0.2484,-0.2877,-0.3393,-0.3813,-0.4127,-0.4716,-0.5143,-0.5394,-0.5785,-0.608,-0.6273,-0.6296,-0.6386,-0.6447,-0.6175,-0.5954,-0.5742,-0.5704,-0.5644,-0.5599,-0.5599,-0.5637,-0.5773,-0.6288,-0.6844,-0.744,-0.8157,-0.8497,-0.861,0.0,0.0,0.0,0.0,0.0,0.0,0.0,0.0,0.0,0.0,0.7369,0.7598,0.7887,0.8157,0.8327,0.8392,0.8402,0.8241,0.7825,0.7812,0.0,0.7223,0.7051,0.7034,0.7168,0.6282,0.5843,0.5855,0.5359,0.5185,0.5287,0.5289,0.5346,0.5489,0.5336,0.5348,0.5486,0.5332,0.5357,0.5377,0.5254,0.5009,0.4792,0.0,0.0,0.0,0.0,0.0,0.0,0.0,0.0,0.0,0.0,0.0,0.0,0.0,0.0,0.0,0.0,0.0,0.0,0.0,0.0,0.0,0.0,0.0,0.0,0.0,0.0,0.0,0.0,0.0,0.0,0.0,0.0,0.0,0.3459,0.2702,0.197,0.1386,0.0961,0.028,-0.0715,-0.1003,-0.1338,-0.1864,-0.2339,-0.2645,-0.2697,-0.3192,-0.3665,-0.3981,-0.4483,-0.4887,-0.519,-0.5438,-0.5837,-0.6384,-0.6227,-0.6365,-0.6643,-0.6397,-0.6141,-0.5896,-0.5737,-0.5597,-0.5416,-0.5416,-0.5416,-0.546,-0.6393,-0.7054,-0.7577,-0.8285,-0.8592,-0.8524,0.0,0.0,0.0,0.0,0.0,0.0,0.0,0.0,0.0,0.0,0.7244,0.77,0.802,0.8364,0.8617,0.86,0.8333,0.8118,0.8027,0.0,0.0,0.7057,0.6983,0.6713,0.6187,0.598,0.57,0.5305,0.518,0.5028,0.4865,0.4736,0.4777,0.4997,0.4971,0.5172,0.5539,0.5289,0.5266,0.5479,0.5345,0.5391,0.5546,0.0,0.0,0.0,0.0,0.0,0.0,0.0,0.0,0.0,0.0,0.0,0.0,0.0,0.0,0.0,0.0,0.0,0.0,0.0,0.0,0.0,0.0,0.0,0.0,0.0,0.0,0.0,0.0,0.0,0.0,0.0,0.0,0.3842,0.3634,0.2771,0.1971,0.1494,0.0859,0.0145,-0.073,-0.1036,-0.1393,-0.194,-0.2286,-0.2539,-0.2753,-0.3306,-0.3615,-0.3685,-0.4034,-0.4334,-0.464,-0.4887,-0.5186,-0.5539,-0.5708,-0.5805,-0.5822,-0.5873,-0.5761,-0.5626,-0.5695,-0.5597,-0.5416,-0.5416,-0.528,-0.5188,-0.5766,-0.6299,-0.6782,-0.7533,-0.8017,-0.8237,0.0,0.0,0.0,0.0,0.0,0.0,0.0,0.0,0.0,0.0,0.6607,0.7163,0.7724,0.8014,0.8277,0.8414,0.8217,0.8063,0.7991,0.0,0.0,0.698,0.6749,0.635,0.579,0.5443,0.5145,0.4864,0.468,0.4526,0.4417,0.4264,0.4386,0.4636,0.4636,0.4885,0.5281,0.5178,0.5279,0.5516,0.5565,0.5681,0.5814,0.5916,0.604,0.6139,0.6384,0.6548,0.6681,0.7038,0.0,0.0,0.0,0.0,0.0,0.0,0.0,0.0,0.0,0.0,0.0,0.0,0.0,0.0,0.0,0.0,0.0,0.0,0.0,0.0,0.0,0.0,0.0,0.0,0.4219,0.3818,0.365,0.2776,0.2022,0.154,0.0835,0.0099,-0.0745,-0.1054,-0.1364,-0.1819,-0.217,-0.2472,-0.2623,-0.3029,-0.3383,-0.3586,-0.3633,-0.3883,-0.4388,-0.4537,-0.4839,-0.519,-0.5338,-0.5458,-0.5546,-0.5591,-0.5626,0.0,-0.5585,-0.5552,-0.5371,-0.528,-0.5144,0.0,0.0,0.0,0.0,0.0,-0.7356,-0.7669,0.0,0.0,0.0,0.0,0.0,0.0,0.0,0.0,0.0,0.0,0.0,0.6314,0.7059,0.7318,0.7562,0.796,0.7995,0.7897,0.0,0.0,0.7167,0.683,0.6383,0.5967,0.5542,0.4797,0.4382,0.4413,0.4016,0.3897,0.392,0.392,0.4026,0.4288,0.4288,0.4487,0.4784,0.5037,0.5291,0.5542,0.5899,0.5945,0.5861,0.6437,0.6597,0.6536,0.6735,0.6976,0.7146,0.7183,0.0,0.0,0.0,0.0,0.0,0.0,0.0,0.0,0.0,0.0,0.0,0.0,0.0,0.0,0.0,0.0,0.0,0.0,0.0,0.0,0.0,0.0,0.0,0.0,0.4098,0.3836,0.3556,0.285,0.2115,0.1576,0.085,0.0051,-0.0707,-0.1061,-0.1364,-0.1566,-0.207,-0.2371,-0.2422,0.0,0.0,0.0,0.0,-0.3533,-0.4338,-0.4338,-0.464,-0.514,-0.514,-0.5288,-0.5532,-0.5485,-0.5536,-0.5628,-0.5503,-0.5393,-0.53,-0.5062,-0.4966,-0.501,-0.55,-0.5677,-0.5764,-0.6166,-0.6653,0.0,0.0,0.0,0.0,0.0,0.0,0.0,0.0,0.0,0.0,0.4185,0.4957,0.5662,0.6189,0.6673,0.7069,0.743,0.7306,0.7205,0.0,0.6979,0.6697,0.6362,0.5987,0.5432,0.461,0.4478,0.4214,0.386,0.3656,0.3583,0.3601,0.3354,0.3432,0.3736,0.3736,0.4036,0.4487,0.4786,0.5125,0.5638,0.6117,0.6366,0.6491,0.6846,0.705,0.7172,0.7528,0.7525,0.7411,0.7776,0.785,0.781,0.7888,0.0,0.0,0.0,0.0,0.0,0.0,0.0,0.0,0.0,0.0,0.0,0.0,0.0,0.0,0.0,0.0,0.0,0.0,0.0,0.0,0.4577,0.4193,0.3871,0.3818,0.298,0.2157,0.1655,0.0705,-0.0152,-0.0758,-0.1263,-0.1566,-0.1617,-0.192,-0.2171,-0.2371,-0.2472,0.0,-0.3281,-0.3027,-0.3279,-0.4085,-0.4085,-0.4334,-0.4885,0.0,0.0,-0.4981,-0.5087,-0.518,-0.5202,-0.5204,-0.5069,-0.4908,-0.4782,-0.4748,-0.4792,-0.5282,-0.5547,-0.5719,-0.5816,-0.626,-0.6836,0.0,0.0,0.0,0.0,0.0,0.0,0.0,0.0,0.0,0.0,0.399,0.4668,0.5248,0.5713,0.6159,0.6611,0.6635,0.0,0.6678,0.6569,0.6331,0.5976,0.5557,0.501,0.43,0.4023,0.3745,0.3514,0.335,0.3305,0.3289,0.3174,0.3255,0.3536,0.3571,0.3887,0.4438,0.4686,0.5135,0.5672,0.6241,0.6617,0.6897,0.7186,0.7409,0.7646,0.782,0.7728,0.7599,0.7805,0.7921,0.7935,0.7954,0.8006,0.8106,0.0,0.0,0.0,0.0,0.0,0.0,0.0,0.0,0.0,0.0,0.0,0.0,0.0,0.0,0.5474,0.0,0.0,0.4836,0.4481,0.4135,0.3883,0.3775,0.2958,0.2219,0.1664,0.0757,-0.0051,-0.0758,-0.1162,-0.1465,-0.1566,-0.1869,-0.2071,-0.2171,-0.2321,-0.2573,-0.2977,-0.2876,-0.3128,-0.3784,-0.3934,-0.4183,-0.4585,-0.4736,-0.4784,-0.4782,-0.4889,-0.4991,-0.5087,-0.5086,-0.5033,-0.4933,-0.4791,-0.4614,-0.4525,-0.4926,-0.5238,-0.5547,-0.5552,-0.5994,-0.6612,0.0,0.0,0.0,0.0,0.0,0.0,0.0,0.0,0.0,0.0,0.2879,0.3488,0.4162,0.4601,0.5077,0.0,0.0,0.0,0.6172,0.6122,0.5966,0.5632,0.5132,0.4654,0.4166,0.3554,0.3217,0.3126,0.2991,0.2926,0.2939,0.2949,0.3081,0.329,0.3404,0.3736,0.4187,0.4585,0.5035,0.5575,0.6282,0.6789,0.7229,0.7531,0.7812,0.8116,0.8122,0.8083,0.8012,0.7938,0.8034,0.8185,0.8025,0.8208,0.8478,0.8489,0.8624,0.0,0.0,0.0,0.0,0.0,0.0,0.0,0.0,0.0,0.6044,0.6012,0.5689,0.536,0.5163,0.5044,0.4885,0.452,0.4177,0.3866,0.3676,0.2977,0.232,0.1815,0.0959,0.0101,-0.0556,-0.0909,-0.1212,-0.1516,-0.1718,-0.187,-0.1971,-0.2171,-0.2422,-0.2775,-0.2725,-0.3027,-0.3586,-0.3835,-0.4034,-0.4338,-0.4535,-0.4634,-0.4634,-0.4684,-0.4798,-0.4971,-0.4984,-0.4964,-0.4931,-0.4698,-0.448,-0.43,-0.4525,-0.4926,-0.5327,-0.5371,-0.5813,-0.6473,0.0,0.0,0.0,0.0,0.0,0.0,0.0,0.0,0.0,0.0,0.0,0.0,0.0,0.0,0.0,0.0,0.0,0.5654,0.5752,0.5537,0.5383,0.5257,0.4696,0.4166,0.3676,0.3189,0.2834,0.2567,0.2393,0.2281,0.2323,0.2371,0.2414,0.2552,0.2802,0.3079,0.3381,0.4137,0.4738,0.5322,0.6093,0.685,0.7516,0.793,0.838,0.8803,0.8978,0.9067,0.905,0.8724,0.859,0.8623,0.8599,0.8618,0.8685,0.8875,0.8949,0.8966,0.8974,0.8654,0.8288,0.8029,0.7635,0.7312,0.0,0.0,0.6763,0.6429,0.608,0.5789,0.5648,0.5254,0.495,0.4977,0.4422,0.3972,0.3982,0.3278,0.2623,0.237,0.1161,0.0253,-0.0051,-0.0556,-0.096,-0.1212,-0.1263,-0.1516,-0.1971,-0.1819,-0.202,-0.2775,-0.2573,-0.2826,-0.3586,-0.3635,-0.3784,-0.4033,-0.4083,-0.4083,-0.4083,-0.4336,-0.4433,-0.4466,-0.4608,-0.4575,-0.4474,-0.4381,-0.4344,-0.43,-0.4344,-0.461,-0.5055,-0.5327,-0.5813,-0.6432,0.0,0.0,0.0,0.0,0.0,0.0,0.0,0.0,0.0,0.0,0.0,0.0,0.0,0.0,0.0,0.0,0.4431,0.477,0.4949,0.4825,0.4782,0.4803,0.4289,0.3896,0.3587,0.3005,0.2602,0.2513,0.2289,0.2209,0.2183,0.2229,0.2274,0.2367,0.251,0.2797,0.323,0.3583,0.4185,0.5024,0.5766,0.6524,0.7379,0.8348,0.9213,0.9836,0.9502,0.9419,0.0,0.0,0.915,0.9051,0.9051,0.9138,0.9255,0.9473,0.9627,0.9689,0.9564,0.9118,0.8627,0.8251,0.7797,0.7354,0.7162,0.6861,0.6632,0.6554,0.6324,0.6086,0.602,0.5735,0.5503,0.0,0.4827,0.4435,0.4236,0.3681,0.3226,0.3126,0.2169,0.1262,0.0556,0.0,-0.0505,-0.096,-0.1111,-0.1364,-0.1768,-0.1819,-0.197,-0.2323,-0.2523,-0.2775,-0.313,-0.3433,-0.3635,-0.3784,-0.3934,-0.3982,-0.3982,-0.4135,-0.4236,-0.4433,-0.4559,-0.46,-0.4508,-0.4416,-0.4346,-0.43,-0.43,-0.4523,-0.4835,-0.5102,-0.5636,-0.6302,0.0,0.0,0.0,0.0,0.0,0.0,0.0,0.0,0.0,0.0,0.0,0.0,0.0,0.0,0.0,0.0,0.3661,0.3938,0.4122,0.4144,0.4168,0.4212,0.3785,0.3458,0.3379,0.2684,0.2289,0.2289,0.2109,0.1974,0.1975,0.2017,0.2053,0.2084,0.222,0.2501,0.2834,0.3081,0.3724,0.4605,0.5386,0.6295,0.7316,0.8713,0.9812,1.06,1.0129,1.011,0.0,0.0,0.9903,0.9771,0.9657,0.9733,0.9884,1.003,1.0116,1.0133,0.9834,0.9335,0.876,0.83,0.7764,0.7275,0.7059,0.6814,0.6636,0.6698,0.6594,0.6455,0.6418,0.6163,0.5847,0.556,0.5102,0.471,0.4435,0.3982,0.3729,0.3729,0.3077,0.227,0.1414,0.0656,0.0051,-0.0455,-0.0859,-0.1212,-0.1465,-0.1768,-0.1921,-0.2022,-0.2373,-0.2624,-0.2674,-0.313,-0.3383,-0.3383,-0.3632,-0.3783,-0.3783,-0.3833,-0.4034,-0.4282,-0.45,-0.4572,-0.4504,-0.4437,-0.435,-0.4334,-0.4308,-0.448,-0.4703,-0.4879,-0.5366,-0.6035,0.0,0.0,0.0,0.0,0.0,0.0,0.0,0.0,0.0,0.0,0.0,0.0,0.0,0.0,0.0,0.2497,0.303,0.3338,0.3438,0.3505,0.3528,0.3536,0.3065,0.2827,0.283,0.2176,0.1839,0.1839,0.157,0.1436,0.1436,0.1512,0.1527,0.153,0.1798,0.191,0.2006,0.2769,0.3434,0.3996,0.5074,0.6222,0.7476,0.9002,1.0109,1.0825,1.1044,0.0,0.0,1.1304,1.1043,1.0962,1.0588,1.0481,0.0,1.0481,1.0357,1.0082,0.9488,0.8966,0.8511,0.8028,0.7556,0.7168,0.7095,0.7082,0.7085,0.7088,0.6918,0.6834,0.694,0.6368,0.5893,0.5787,0.5194,0.4644,0.4427,0.4185,0.3982,0.3982,0.3531,0.3079,0.0,0.1565,0.0657,0.0404,-0.0354,-0.0909,-0.1212,-0.1465,-0.1718,-0.1971,-0.2022,-0.2172,-0.2422,-0.2674,-0.2826,-0.2826,-0.3079,-0.323,-0.323,-0.3484,-0.3734,-0.4029,-0.4201,-0.4311,-0.4298,-0.4367,-0.4386,-0.4376,-0.4334,-0.448,-0.4705,-0.4705,-0.5146,-0.5766,0.0,0.0,0.0,0.0,0.0,0.0,0.0,0.0,0.0,0.0,0.0,0.0,0.0,0.0,0.0,0.0,0.2078,0.24,0.279,0.288,0.2979,0.3091,0.277,0.2598,0.255,0.2013,0.1719,0.1719,0.1526,0.1406,0.1406,0.1436,0.1461,0.1527,0.1725,0.1979,0.2194,0.2764,0.3428,0.4227,0.5483,0.6569,0.7712,0.9657,1.1001,1.198,0.0,0.0,0.0,1.217,1.1929,1.1632,1.1372,1.1111,1.0923,1.0953,1.0684,1.0306,0.9932,0.9385,0.8789,0.8294,0.7829,0.7496,0.7327,0.7214,0.7095,0.7095,0.7065,0.7131,0.7289,0.6821,0.6363,0.6147,0.5485,0.4884,0.4674,0.4437,0.4286,0.4286,0.3781,0.0,0.0,0.0,0.0,0.0707,0.0101,-0.0455,-0.0909,-0.1212,-0.1465,-0.1718,-0.1921,-0.2021,-0.2122,-0.2423,-0.2623,-0.2826,-0.3079,-0.318,-0.323,-0.3484,-0.3635,-0.3734,-0.4007,-0.4065,-0.406,-0.4193,-0.4208,-0.4147,-0.4244,-0.4344,-0.4433,-0.4614,-0.4924,-0.5275,0.0,0.0,0.0,0.0,0.0,0.0,0.0,0.0,0.0,0.0,0.0,0.0,0.0,0.0,0.0,0.0,0.0,0.1681,0.2047,0.221,0.2341,0.2448,0.2226,0.2083,0.2068,0.1649,0.1496,0.1538,0.1445,0.1375,0.1375,0.1351,0.137,0.1433,0.1657,0.194,0.2238,0.2783,0.3464,0.4324,0.5644,0.692,0.8274,1.0321,1.187,0.0,0.0,0.0,1.3733,1.3353,1.2929,1.2452,1.204,1.1552,1.1109,1.09,1.0664,1.0388,0.9876,0.9345,0.8841,0.8285,0.7891,0.7594,0.7507,0.7386,0.7261,0.7381,0.7418,0.7468,0.7621,0.7243,0.6732,0.6356,0.5666,0.5039,0.472,0.4437,0.4236,0.4135,0.3731,0.3278,0.0,0.0,0.0,0.1111,0.0404,-0.0152,-0.0505,-0.096,-0.1263,-0.1465,-0.1718,-0.1869,-0.1869,-0.2121,-0.2423,-0.2826,-0.3079,-0.318,-0.323,-0.3383,-0.3433,-0.3484,-0.3734,-0.3842,-0.3769,-0.3986,-0.4047,-0.4055,-0.4111,-0.421,-0.43,-0.448,-0.4746,-0.5053,0.0,0.0,0.0,0.0,0.0,0.0,0.0,0.0,0.0,0.0,0.0,0.0,0.0,0.0,0.0,0.0,0.0,0.0,0.1246,0.1518,0.1665,0.1642,0.1433,0.1321,0.1437,0.1147,0.1093,0.1255,0.1284,0.1257,0.1257,0.1259,0.126,0.1302,0.1594,0.1804,0.2056,0.2771,0.3524,0.4402,0.5732,0.733,0.9072,1.1027,0.0,0.0,0.0,0.0,1.5692,1.4697,1.3949,1.3309,1.2509,1.1734,1.1035,1.041,1.0321,1.0265,0.9376,0.8882,0.8582,0.8034,0.7684,0.7471,0.7696,0.7617,0.7592,0.7858,0.7944,0.7944,0.0,0.0,0.7011,0.6427,0.5698,0.5015,0.446,0.4131,0.3882,0.0,0.0,0.0,0.0,0.0,0.0,0.1566,0.0,0.0,0.0,-0.0758,-0.1162,-0.1212,-0.1465,-0.1566,-0.1617,-0.187,-0.2272,-0.2775,-0.3079,-0.318,-0.318,-0.3177,-0.3176,-0.3226,-0.3475,-0.3539,-0.3474,-0.3695,-0.3904,-0.4055,-0.3933,-0.4034,-0.43,-0.43,-0.461,-0.5055,0.0,0.0,0.0,0.0,0.0,0.0,0.0,0.0,0.0,0.0,0.0,0.0,0.0,0.0,0.0,0.0,0.0,0.0,0.0693,0.092,0.1057,0.1086,0.1053,0.0938,0.0846,0.0746,0.0713,0.0788,0.0846,0.0857,0.0857,0.0873,0.092,0.1081,0.1505,0.1967,0.2504,0.3375,0.4316,0.5358,0.0,0.8388,1.0001,0.0,0.0,0.0,0.0,0.0,1.6447,1.5338,1.4013,1.2677,1.1885,1.1186,1.0644,1.0455,1.0086,0.9605,0.9313,0.8883,0.8505,0.8331,0.8013,0.7905,0.832,0.8234,0.8063,0.8321,0.8388,0.8463,0.0,0.0,0.0,0.6839,0.5691,0.0,0.4379,0.395,0.0,0.333,0.0,0.2372,0.1768,0.1263,0.0,0.0,0.0556,0.0202,0.0,-0.0404,-0.0808,-0.1162,-0.1263,-0.1415,-0.1617,-0.207,-0.2372,-0.2522,-0.2977,-0.318,-0.3179,-0.3134,-0.3113,-0.3112,-0.3212,-0.3232,-0.3212,-0.3384,-0.3438,-0.3552,-0.3798,-0.3946,-0.4036,-0.421,-0.461,-0.501,0.0,0.0,0.0,0.0,0.0,0.0,0.0,0.0,0.0,0.0,0.0,0.0,0.0,0.0,0.0,0.0,0.0,0.0,0.0,0.0339,0.0481,0.0495,0.0407,0.0416,0.0458,0.0392,0.043,0.0,0.0,0.0,0.0559,0.0491,0.0532,0.0761,0.1157,0.1745,0.2444,0.3299,0.0,0.0,0.0,0.0,0.0,0.0,0.0,0.0,0.0,1.6925,1.6751,1.5586,1.4097,1.2556,1.1589,1.0926,1.0513,1.029,0.9902,0.9546,0.9341,0.9074,0.8751,0.8525,0.8387,0.8365,0.8798,0.8686,0.8639,0.9043,0.901,0.8973,0.9165,0.8578,0.7835,0.0,0.0,0.0,0.4449,0.381,0.3281,0.0,0.2372,0.0,0.1465,0.1061,0.0808,0.0,0.0556,0.0354,0.0202,-0.0202,-0.0556,-0.0859,-0.1061,-0.1314,-0.1617,-0.202,-0.2271,-0.2422,-0.2826,-0.3065,-0.314,-0.3106,-0.3077,-0.3098,0.0,-0.3081,-0.3054,-0.3158,-0.3218,-0.3281,-0.3514,-0.3723,-0.3903,-0.4078,-0.4433,-0.4879,0.0,0.0,0.0,0.0,0.0,0.0,0.0,0.0,0.0,0.0,0.0,0.0,0.0,0.0,0.0,0.0,0.0,0.0,0.0,0.0,0.0,-0.0064,-0.0232,-0.0169,0.0202,0.0034,0.0,0.0,0.0,0.0,0.0,0.0,0.0,0.0,0.0,0.0,0.0,0.0,0.0,0.0,0.0,0.0,0.0,0.0,0.0,0.0,1.7104,1.7226,1.6689,1.5613,1.4219,1.2694,1.1519,1.0869,1.0452,1.0038,0.984,0.9648,0.938,0.9262,0.9095,0.8776,0.8744,0.8842,0.9141,0.9148,0.9265,0.9836,0.9687,0.9513,0.9655,0.9118,0.8358,0.7565,0.0,0.5628,0.4583,0.3772,0.3128,0.2573,0.2019,0.1566,0.1263,0.096,0.0808,0.0808,0.0556,0.0404,0.0404,-0.0051,-0.0354,-0.0404,-0.0909,-0.1314,-0.1566,-0.1869,-0.2122,-0.2371,-0.2623,-0.2847,-0.3041,-0.3033,-0.3046,-0.3084,0.0,0.0,-0.2993,-0.2993,-0.3053,-0.3183,-0.3183,-0.3452,-0.3812,-0.3859,-0.4214,-0.4661,0.0,0.0,0.0,0.0,0.0,0.0,0.0,0.0,0.0,0.0,0.0,0.0,0.0,0.0,0.0,0.0,0.0,0.0,0.0,0.0,0.0,0.0,-0.0459,-0.0438,-0.0371,-0.0406,0.0,0.0,0.0,0.0,0.0,0.0,0.0,0.0,0.0,0.0,0.0,0.0,0.0,0.0,0.0,0.0,0.0,0.0,0.0,0.0,1.7362,1.7373,1.6533,1.5851,1.4387,1.2727,1.1684,1.0751,1.0046,1.012,0.9688,0.9208,0.949,0.9357,0.9193,0.9204,0.9218,0.9372,0.969,0.9898,0.0,1.0152,1.0266,1.0302,1.0136,0.9409,0.8605,0.7856,0.6866,0.5902,0.4942,0.425,0.3682,0.0,0.2371,0.1817,0.1566,0.1111,0.0,0.0,0.0,0.0,0.0404,0.0101,-0.0152,-0.0404,-0.0909,-0.1212,-0.1263,-0.1768,-0.2021,-0.2071,-0.2322,-0.2598,-0.2745,-0.2701,-0.2794,-0.3018,0.0,0.0,-0.2933,-0.2933,-0.2928,-0.2963,-0.3138,-0.3272,-0.3361,-0.3767,-0.408,-0.4389,0.0,0.0,0.0,0.0,0.0,0.0,0.0,0.0,0.0,0.0,-0.3771,-0.3269,0.0,0.0,0.0,0.0,0.0,0.0,0.0,0.0,0.0,0.0,0.0,0.0,0.0,-0.064,0.0,0.0,0.0,0.0,0.0,0.0,0.0,0.0,0.0,0.0,0.0,0.0,0.0,0.0,0.0,0.0,0.0,0.0,0.0,0.0,0.0,1.7116,1.6647,1.5868,1.4657,1.3307,1.2134,1.1241,1.0608,1.0471,1.0122,0.9848,0.9996,1.0021,0.9978,0.9828,0.9791,0.9852,1.0072,0.0,0.0,1.0515,1.0467,1.0415,1.0544,0.9862,0.9123,0.8689,0.7756,0.6762,0.5875,0.4847,0.4081,0.3682,0.2672,0.2017,0.0,0.1515,0.0,0.0,0.0,0.0,0.0404,0.0152,-0.0101,-0.0404,-0.0657,-0.0909,-0.1212,-0.1465,-0.1718,-0.2021,-0.215,-0.2315,-0.2512,-0.2557,-0.2646,-0.273,0.0,0.0,-0.292,-0.292,-0.292,-0.292,-0.3006,-0.3094,-0.3227,-0.3452,-0.3765,-0.4123,0.0,0.0,0.0,0.0,0.0,0.0,0.0,-0.4958,-0.4736,-0.4328,-0.3993,-0.3574,-0.3016,-0.2434,0.0,0.0,0.0,0.0,0.0,0.0,0.0,0.0,0.0,0.0,0.0,0.0,0.0,0.0,0.0,0.0,0.0,0.0,0.0,0.0,0.0,0.0,0.0,0.0,0.0,0.0,0.0,0.0,0.0,0.0,0.0,0.0,0.0,1.6486,1.6374,1.5675,1.4855,1.3906,1.2772,1.194,1.1343,1.0931,1.075,1.0643,1.0528,1.0678,1.0721,1.0283,1.0225,1.0312,1.0307,1.034,1.0446,1.0779,1.0639,1.0534,1.084,1.0223,0.962,0.9389,0.8494,0.7496,0.6639,0.5387,0.4462,0.0,0.3025,0.0,0.2472,0.0,0.0,0.0,0.0,0.0,0.0404,0.0152,-0.0101,-0.0303,-0.0354,-0.0606,-0.101,-0.1162,-0.1415,-0.1819,-0.1884,-0.2042,-0.2241,-0.2384,-0.2472,-0.2513,0.0,0.0,0.0,-0.2829,-0.2829,-0.2829,-0.2784,-0.2872,-0.3048,-0.3093,-0.3406,-0.3767,0.0,0.0,0.0,0.0,0.0,0.0,0.0,-0.5069,-0.4791,-0.4519,-0.4073,-0.363,-0.313,-0.2715,0.0,0.0,0.0,0.0,0.0,0.0,0.0,0.0,0.0,0.0,0.0,0.0,0.0,0.0,0.0,0.0,0.0,0.0,0.0,0.0,0.0,0.0,0.0,0.0,0.0,0.0,0.0,0.0,0.0,0.0,0.0,0.0,0.0,1.5325,1.518,1.5238,1.4762,1.4088,1.3528,1.2659,1.1771,1.1515,1.1141,1.088,1.0864,1.0876,1.0782,1.0303,1.0391,1.0502,1.0326,0.0,1.0881,1.0656,1.0928,1.1145,1.0939,1.0324,0.9738,0.9375,0.8413,0.7484,0.6791,0.5719,0.4942,0.4774,0.0,0.0,0.2775,0.0,0.0,0.0,0.0,0.0,0.0,0.0152,0.0,-0.0051,-0.0253,-0.0404,-0.0455,-0.096,-0.1212,-0.1263,-0.1537,-0.175,-0.1954,-0.1916,-0.2105,-0.2513,0.0,0.0,0.0,-0.2649,-0.2558,-0.2513,-0.2334,-0.2379,-0.2602,-0.2823,-0.3092,-0.3317,0.0,0.0,0.0,0.0,0.0,0.0,0.0,-0.5192,-0.5018,-0.466,-0.4273,-0.3858,-0.3327,-0.2884,0.0,0.0,0.0,0.0,0.0,0.0,0.0,0.0,0.0,0.0,0.0,0.0,0.0,-0.185,-0.2154,0.0,0.0,0.0,0.0,0.0,0.0,0.0,0.0,0.0,0.0,0.0,0.0,0.0,0.0,0.0,0.0,0.0,0.0,0.0,1.4178,1.4225,1.4117,1.3896,1.3601,1.3187,1.2681,1.2093,1.1867,1.1759,1.1446,1.1382,1.1316,1.096,1.0745,1.058,1.0518,0.0,1.0714,1.0606,1.0827,1.1098,1.1122,1.0601,1.0049,0.9701,0.8787,0.7889,0.7171,0.6122,0.5379,0.5239,0.4263,0.0,0.0,0.0,0.0,0.0,0.0,0.0,0.0,0.0253,0.0,0.0,-0.01,-0.0251,-0.0397,-0.0603,-0.0904,-0.1192,-0.1266,-0.1433,-0.1685,-0.1743,-0.1899,-0.2109,0.0,0.0,0.0,-0.2379,-0.2334,-0.2289,-0.2243,-0.2334,-0.2513,-0.2602,-0.2869,-0.3266,0.0,0.0,0.0,0.0,0.0,0.0,-0.5215,-0.5199,-0.5073,-0.4743,-0.4328,-0.3913,-0.3441,-0.294,-0.2521,-0.224,0.0,0.0,0.0,0.0,0.0,0.0,0.0,0.0,0.0,0.0,-0.1884,-0.212,-0.2356,-0.2656,0.0,0.0,0.0,0.0,0.0,0.0,0.0,0.0,0.0,0.0,0.0,0.0,0.0,0.0,0.0,0.0,0.0,0.0,0.0,0.0,0.0,1.3425,1.3499,1.3445,1.3257,1.2553,1.2403,1.2294,1.1811,1.1635,1.1508,1.1287,1.0942,1.0673,1.0673,1.0748,1.083,1.083,1.1036,1.1247,1.13,1.0773,1.0194,0.9742,0.8752,0.7848,0.7307,0.6299,0.5603,0.0,0.0,0.0,0.0,0.0,0.0,0.0,0.0,0.0,0.0,0.025,0.0,0.0,0.0,-0.01,-0.0295,-0.035,-0.06,-0.0982,-0.1059,-0.118,-0.1387,-0.1585,-0.1705,0.0,0.0,0.0,0.0,-0.2109,-0.2109,-0.2199,-0.2109,-0.2243,-0.2513,-0.2602,-0.2858,-0.319,0.0,0.0,0.0,0.0,0.0,0.0,0.0,-0.5038,-0.4846,-0.4715,-0.4187,-0.3688,-0.3441,-0.2856,-0.241,-0.2212,0.0,0.0,0.0,0.0,0.0,0.0,0.0,0.0,0.0,0.0,-0.2087,-0.1918,-0.2452,-0.2787,-0.3023,-0.3328,0.0,0.0,0.0,0.0,0.0,0.0,0.0,0.0,0.0,0.0,0.0,0.0,0.0,0.0,0.0,0.0,0.0,0.0,0.0,0.0,0.0,1.3414,1.3227,1.2877,1.2624,1.2277,1.1849,1.1516,1.1267,1.1056,1.0951,1.0915,1.0915,1.1117,1.1278,1.1278,1.1678,1.1866,1.1402,1.082,1.0149,0.9334,0.8067,0.0,0.7002,0.6133,0.5447,0.0,0.0,0.0,0.0,0.0,0.0,0.0,0.0,0.0,0.0,0.0147,0.0,0.0,0.0,0.0,0.0,-0.025,-0.04,-0.0393,-0.0866,-0.1085,-0.1109,-0.1313,0.0,0.0,0.0,0.0,0.0,-0.193,-0.1974,-0.2154,-0.193,-0.2109,-0.2513,-0.278,-0.2962,-0.3169,0.0,0.0,0.0,0.0,0.0,0.0,0.0,-0.5118,-0.4965,-0.4728,-0.4245,-0.3799,-0.3441,-0.2856,-0.238,-0.2099,0.0,0.0,0.0,0.0,0.0,0.0,0.0,0.0,0.0,0.0,-0.2178,-0.2255,-0.2554,-0.2787,-0.2989,-0.3192,-0.3261,-0.3125,0.0,0.0,0.0,0.0,0.0,0.0,0.0,0.0,0.0,0.0,0.0,0.0,0.0,0.0,0.0,0.0,0.0,0.0,0.0,0.0,0.0,1.2634,1.2546,1.2433,1.2021,1.1727,1.1436,1.1186,1.1031,1.0909,1.0909,1.0954,1.1032,1.1032,1.1128,1.1208,1.1042,1.0541,0.9934,0.9307,0.8446,0.7677,0.0,0.0,0.0,0.5206,0.0,0.0,0.0,0.0,0.0,0.0,0.0,0.0,0.0,0.0,0.0189,0.0,0.0,0.0,0.0,-0.0096,-0.024,-0.0424,-0.0562,-0.0786,-0.1087,-0.117,0.0,0.0,0.0,0.0,0.0,-0.157,-0.1705,-0.193,-0.1839,-0.2198,-0.278,-0.2868,-0.3095,-0.3423,0.0,0.0,0.0,0.0,0.0,0.0,0.0,-0.5047,-0.4854,-0.4725,-0.419,-0.3747,-0.3441,-0.2798,-0.2296,-0.2015,0.0,0.0,0.0,0.0,0.0,0.0,0.0,0.0,0.0,-0.2041,-0.2147,-0.2285,-0.2476,-0.2703,-0.2935,-0.3073,-0.3073,-0.2969,-0.2596,0.0,0.0,0.0,0.0,0.0,0.0,0.0,0.5491,0.0,0.0,0.0,0.0,0.0,0.0,0.0,0.0,0.0,0.0,0.0,0.0,0.0,1.2393,1.2323,1.1933,1.1629,1.1426,1.1231,1.1095,0.0,1.1029,1.1068,1.1146,1.1146,1.1225,1.1209,1.0959,1.0423,0.9807,0.9266,0.8598,0.7928,0.0,0.0,0.0,0.5058,0.0,0.0,0.0,0.0,0.0,0.0,0.0,0.0,0.0,0.0,0.0415,0.0274,0.0187,0.0141,0.0139,0.0047,-0.0094,-0.0231,-0.037,-0.0549,-0.0852,0.0,0.0,0.0,0.0,0.0,0.0,-0.1391,-0.1615,-0.193,-0.193,-0.2377,-0.3044,-0.3108,-0.332,-0.359,0.0,0.0,0.0,0.0,0.0,0.0,0.0,0.0,0.0,0.0,-0.4055,-0.3555,-0.3385,-0.2687,0.0,0.0,0.0,0.0,0.0,0.0,0.0,0.0,0.0,0.0,0.0,-0.1936,-0.2091,-0.2095,-0.229,-0.2525,-0.2765,-0.2905,-0.2975,-0.2942,-0.2624,-0.2103,-0.1379,0.0134,0.1309,0.2213,0.332,0.4092,0.0,0.0,0.0,0.0,0.0,0.0,0.0,0.0,0.0,0.0,0.0,0.0,0.0,0.0,0.0,0.0,0.0,1.1398,1.1204,1.1187,1.1207,1.1194,1.1194,1.1349,0.0,1.1465,1.1657,1.1595,1.0969,1.0373,0.9769,0.9266,0.8537,0.7971,0.0,0.7173,0.0,0.0,0.0,0.0,0.0,0.0,0.0,0.0,0.0,0.0,0.0,0.0,0.0732,0.0763,0.0548,0.0415,0.0415,0.0188,0.0047,0.0046,-0.0231,-0.032,-0.0359,0.0,0.0,0.0,0.0,0.0,0.0,-0.1391,-0.1705,-0.2199,-0.2199,-0.2602,-0.3263,-0.3414,-0.3598,-0.3728,0.0,0.0,0.0,0.0,0.0,0.0,0.0,0.0,0.0,0.0,0.0,-0.3499,-0.3216,-0.2601,0.0,0.0,0.0,0.0,0.0,0.0,0.0,0.0,0.0,0.0,0.0,-0.1773,-0.1889,-0.2095,-0.229,-0.2458,-0.256,-0.2767,-0.2697,-0.2384,-0.2208,-0.1484,-0.0336,0.047,0.1377,0.2383,0.3056,0.3761,0.0,0.0,0.0,0.0,0.5782,0.6379,0.0,0.0,0.0,0.0,0.0,0.0,0.0,0.0,1.1583,1.1521,1.1286,0.0,1.1376,1.1162,1.1105,1.1133,0.0,1.117,1.117,1.117,1.0997,1.0716,1.0432,0.985,0.9319,0.8904,0.8621,0.8259,0.7718,0.0,0.0,0.0,0.0,0.0,0.0,0.0,0.0,0.0,0.0,0.0,0.0,0.0,0.1172,0.1525,0.1126,0.0768,0.0406,0.0499,0.0454,0.0316,0.0406,0.027,-0.009,0.0,0.0,0.0,0.0,0.0,-0.1166,-0.1166,-0.157,-0.2199,-0.2199,-0.2736,-0.3487,-0.3502,-0.3683,-0.3938,0.0,0.0,0.0,0.0,0.0,0.0,0.0,0.0,0.0,0.0,0.0,0.0,0.0,0.0,0.0,0.0,0.0,0.0,0.0,0.0,0.0,0.0,0.0,0.0,-0.1527,-0.1717,-0.1895,-0.2052,-0.2209,-0.2338,-0.2395,-0.2534,-0.2463,-0.2212,-0.1775,-0.0988,0.0034,0.0571,0.1344,0.2217,0.2755,0.0,0.0,0.0,0.0,0.0,0.516,0.5756,0.0,0.7533,0.8323,0.9109,0.0,0.0,0.0,0.0,1.126,1.1223,1.1149,1.122,1.1266,1.1148,1.1111,1.1111,1.1111,1.1111,1.1111,1.1111,1.0925,1.0663,1.0255,0.9856,0.9431,0.8927,0.8671,0.0,0.0,0.0,0.0,0.0,0.0,0.0,0.0,0.0,0.0,0.0,0.0,0.0,0.0,0.0,0.1705,0.1974,0.1749,0.13,0.0718,0.0718,0.0628,0.0538,0.0628,0.0538,0.0179,0.0179,0.0,0.0,0.0,0.0,-0.0942,-0.1031,-0.148,-0.2019,-0.2154,-0.2764,-0.3525,-0.3449,-0.3628,-0.3961,0.0,0.0,0.0,0.0,0.0,0.0,0.0,0.0,0.0,0.0,0.0,0.0,0.0,0.0,0.0,0.0,0.0,0.0,0.0,0.0,0.0,0.0,0.0,-0.1319,-0.1347,-0.1733,-0.1971,-0.2034,-0.2169,-0.2294,-0.2408,-0.2381,-0.2307,-0.2184,-0.1413,-0.0672,0.0034,0.0571,0.121,0.1951,0.242,0.0,0.0,0.0,0.0,0.0,0.0,0.0,0.0,0.7021,0.7677,0.8245,0.9507,0.0,0.0,0.0,0.0,0.0,1.1062,1.1074,1.1074,1.1074,1.1037,1.1037,1.1037,1.0999,1.0999,1.0962,1.0925,1.0738,1.018,0.9886,0.9511,0.0,0.0,0.0,0.6854,0.0,0.0,0.0,0.0,0.0,0.0,0.0,0.0,0.0,0.0,0.0,0.0,0.0,0.0,0.2243,0.2199,0.1881,0.125,0.0982,0.0848,0.0803,0.0803,0.0669,0.0446,0.0448,0.0,0.0,0.0,0.0,-0.0714,-0.0938,-0.1337,-0.1866,-0.2089,-0.2723,-0.3447,-0.3328,-0.3551,-0.3887,0.0,0.0,0.0,0.0,0.0,0.0,0.0,0.0,0.0,0.0,0.0,0.0,0.0,0.0,0.0,0.0,0.0,0.0,0.0,0.0,0.0,0.0,-0.129,-0.1375,-0.1543,-0.1672,-0.1879,-0.2157,-0.241,-0.2616,-0.2807,-0.2682,-0.2382,-0.1856,-0.1137,-0.0538,0.0034,0.0571,0.121,0.1918,0.2186,0.0,0.0,0.0,0.0,0.0,0.0,0.0,0.0,0.6172,0.6915,0.7782,0.8465,0.0,0.0,0.0,0.0,0.0,1.0791,1.0962,1.1074,1.0887,1.085,1.0812,1.0625,1.0588,1.0556,1.0368,1.0218,0.9954,0.9511,0.9151,0.8669,0.0,0.0,0.6596,0.0,0.0,0.0,0.0,0.0,0.0,0.0,0.0,0.0,0.0,0.0,0.0,0.0,0.0,0.0,0.2469,0.2289,0.2135,0.1966,0.1746,0.1528,0.1309,0.1309,0.1048,0.0656,0.0668,0.0404,0.0,0.0,-0.0311,-0.0699,-0.0743,-0.1254,-0.1953,-0.1996,-0.2584,-0.3411,-0.3254,-0.3505,-0.3887,0.0,0.0,0.0,0.0,0.0,0.0,0.0,0.0,0.0,0.0,0.0,0.0,0.0,0.0,0.0,0.0,0.0,0.0,0.0,0.0,0.0,-0.1572,-0.1626,-0.1695,-0.1756,-0.1896,-0.2113,-0.2402,-0.2609,-0.2747,-0.2853,-0.2673,-0.2275,-0.171,-0.1198,-0.0605,0.0034,0.0471,0.1009,0.1614,0.0,0.0,0.0,0.0,0.0,0.0,0.0,0.0,0.0,0.0,0.6328,0.7053,0.7769,0.0,0.0,0.0,0.0,0.0,1.04,1.0713,1.085,1.055,1.0625,1.0738,1.055,1.0331,1.0105,0.9916,0.9728,0.9458,0.9051,0.0,0.8243,0.7354,0.0,0.0,0.0,0.0,0.0,0.0,0.0,0.0,0.0,0.0,0.0,0.0,0.0,0.0,0.0,0.0,0.0,0.0,0.256,0.2489,0.2435,0.2194,0.1898,0.1579,0.1579,0.1324,0.0856,0.0734,0.0521,0.0174,0.0,-0.0173,-0.0513,-0.0641,-0.1147,-0.1849,-0.1976,-0.2461,-0.3128,-0.3297,-0.3506,-0.3699,0.0,0.0,0.0,0.0,0.0,0.0,0.0,0.0,0.0,0.0,0.0,0.0,0.0,0.0,0.0,0.0,0.0,0.0,0.0,0.0,-0.174,-0.1852,-0.1989,-0.2047,-0.2027,-0.2184,-0.2409,-0.2677,-0.2795,-0.2844,-0.2826,-0.2637,-0.2244,-0.168,-0.1293,-0.0706,0.0034,0.0371,0.0808,0.1311,0.0,0.0,0.0,0.0,0.0,0.0,0.0,0.0,0.0,0.0,0.0,0.0,0.0,0.0,0.0,0.8681,0.9195,0.9545,0.9944,1.0363,1.0593,1.0351,1.0513,1.0625,1.0293,0.9954,0.9614,0.9316,0.9046,0.877,0.847,0.8173,0.0,0.6617,0.6096,0.0,0.0,0.0,0.0,0.0,0.0,0.0,0.0,0.0,0.0,0.0,0.0,0.0,0.0,0.0,0.0,0.0,0.2762,0.2733,0.2672,0.246,0.2172,0.1835,0.171,0.1461,0.1045,0.0882,0.059,0.0295,0.0126,-0.0084,-0.0334,-0.0585,-0.1041,-0.1614,-0.1862,-0.2335,-0.2938,-0.3276,-0.3409,-0.3448,0.0,0.0,0.0,0.0,0.0,0.0,0.0,0.0,0.0,0.0,0.0,0.0,0.0,0.0,0.0,0.0,0.0,0.0,0.0,0.0,-0.1987,-0.1987,-0.2127,-0.2248,-0.2353,-0.2427,-0.2596,-0.2864,-0.2999,-0.3015,-0.2904,-0.2797,-0.2381,-0.168,-0.1293,-0.0706,0.0034,0.0371,0.0808,0.1311,0.1344,0.0,0.0,0.0,0.0,0.0,0.0,0.0,0.0,0.0,0.0,0.0,0.0,0.0,0.7329,0.7773,0.839,0.9046,0.9531,0.9952,1.0269,1.0424,1.0513,1.0331,0.9544,0.9236,0.8889,0.8331,0.7906,0.7633,0.7599,0.7111,0.6504,0.5782,0.0,0.0,0.0,0.0,0.0,0.0,0.0,0.0,0.0,0.0,0.0,0.0,0.0,0.0,0.0,0.0,0.0,0.0,0.0,0.267,0.2608,0.2604,0.248,0.224,0.1835,0.151,0.1266,0.1084,0.0716,0.0295,0.0295,0.0042,-0.0326,-0.053,-0.0886,-0.1382,-0.1738,-0.2287,-0.2832,-0.3064,-0.3141,-0.3178,0.0,0.0,0.0,0.0,0.0,0.0,0.0,0.0,0.0,0.0,0.0,0.0,0.0,0.0,0.0,0.0,0.0,0.0,0.0,0.0,-0.2043,-0.2127,-0.238,-0.2561,-0.2648,-0.2641,-0.2754,-0.3025,-0.3047,-0.2977,-0.2841,-0.263,-0.2221,-0.164,-0.1351,-0.0841,-0.0168,0.0067,0.0506,0.101,0.111,0.1446,0.0,0.0,0.0,0.0,0.0,0.0,0.0,0.0,0.4894,0.5524,0.5885,0.6317,0.6791,0.7295,0.7808,0.8293,0.8597,0.9127,0.9583,0.9416,0.9467,0.9496,0.9198,0.878,0.8246,0.7518,0.7138,0.683,0.6398,0.0,0.5759,0.5246,0.0,0.0,0.0,0.0,0.0,0.0,0.0,0.0,0.0,0.0,0.0,0.0,0.0,0.0,0.0,0.0,0.0,0.0,0.0,0.2606,0.2545,0.2545,0.2505,0.2425,0.2108,0.1791,0.1474,0.1286,0.1009,0.0646,0.0403,0.0161,-0.0119,-0.0318,-0.0752,-0.1335,-0.1884,-0.2237,-0.247,-0.2787,-0.2904,-0.2943,0.0,0.0,0.0,0.0,0.0,0.0,0.0,0.0,0.0,0.0,0.0,0.0,0.0,0.0,0.0,0.0,0.0,0.0,0.0,-0.1962,-0.2099,-0.2184,-0.2521,-0.2719,-0.2754,-0.2753,-0.2851,-0.3091,-0.3049,-0.2884,-0.2661,-0.2478,-0.212,-0.158,-0.1379,-0.0942,-0.0303,-0.0101,0.027,0.0708,0.0909,0.1177,0.0,0.0,0.0,0.0,0.0,0.0,0.0,0.0,0.45,0.513,0.5524,0.5888,0.6247,0.6741,0.7167,0.7524,0.7792,0.8269,0.8701,0.8561,0.851,0.8466,0.8271,0.7974,0.7484,0.6668,0.6286,0.5899,0.5312,0.0,0.0,0.0,0.0,0.0,0.0,0.0,0.0,0.0,0.0,0.0,0.0,0.0,0.0,0.0,0.0,0.0,0.0,0.0,0.0,0.0,0.0,0.0,0.2511,0.255,0.2589,0.2589,0.2511,0.2237,0.1767,0.1532,0.1257,0.1021,0.0628,0.0353,0.0079,-0.0118,-0.0628,-0.1335,-0.1805,-0.2041,-0.2158,-0.2395,-0.2512,-0.2552,0.0,0.0,0.0,0.0,0.0,0.0,0.0,0.0,0.0,0.0,0.0,0.0,0.0,0.0,0.0,0.0,0.0,0.0,-0.1797,-0.2046,-0.2212,-0.2212,-0.2521,-0.2691,-0.2691,-0.2781,-0.2883,-0.3091,-0.3014,-0.2788,-0.2391,-0.2389,-0.2119,-0.158,-0.1379,-0.0942,-0.0303,-0.0101,0.0202,0.0506,0.0708,0.0909,0.1143,0.0,0.0,0.0,0.0,0.0,0.0,0.0,0.3866,0.44,0.4921,0.0,0.5683,0.6079,0.6441,0.6783,0.7175,0.7394,0.7584,0.7965,0.7793,0.7322,0.6661,0.6703,0.663,0.5777,0.5276,0.4888,0.4462,0.4543,0.0,0.0,0.0,0.0,0.0,0.0,0.0,0.0,0.0,0.0,0.0,0.0,0.0,0.0,0.0,0.0,0.0,0.0,0.0,0.0,0.0,0.0,0.2511,0.2707,0.2787,0.2787,0.3023,0.2787,0.2195,0.1806,0.1493,0.1296,0.1021,0.0668,0.0275,0.0079,-0.051,-0.1296,-0.1533,-0.1729,-0.1887,-0.1887,-0.1887,-0.1925,0.0,0.0,0.0,0.0,0.0,0.0,0.0,0.0,0.0,0.0,0.0,0.0,0.0,0.0,0.0,0.0,0.0,0.0,0.0,-0.2046,-0.2212,-0.2212,-0.2713,-0.2884,-0.2691,-0.2781,-0.2823,-0.2896,-0.2577,-0.2426,-0.2389,-0.2242,-0.2046,-0.1817,-0.1614,-0.1278,-0.0841,-0.064,-0.0371,-0.0034,0.0169,0.0505,0.0908,0.0,0.0,0.0,0.0,0.0,0.0,0.0,0.0,0.0,0.4484,0.0,0.5286,0.5557,0.5785,0.5958,0.6074,0.6343,0.6584,0.6658,0.6496,0.6191,0.5758,0.5935,0.5977,0.5124,0.4659,0.4272,0.4036,0.0,0.0,0.0,0.0,0.0,0.0,0.0,0.0,0.0,0.0,0.0,0.0,0.0,0.0,0.0,0.0,0.0,0.0,0.0,0.0,0.0,0.0,0.0,0.2904,0.2982,0.3023,0.3023,0.3062,0.2865,0.2392,0.2276,0.2042,0.1729,0.1493,0.1257,0.0943,0.0275,-0.0157,-0.0432,-0.0904,-0.1139,-0.1218,-0.1415,-0.1493,-0.1493,0.0,0.0,0.0,0.0,0.0,0.0,0.0,0.0,0.0,0.0,0.0,0.0,0.0,0.0,0.0,0.0,0.0,0.0,0.0,0.0,-0.2268,-0.238,-0.2798,-0.2968,-0.2856,-0.2801,-0.2783,-0.2799,-0.2473,-0.2293,-0.2244,-0.2133,-0.2017,-0.1853,-0.1674,-0.1446,-0.1176,-0.101,-0.0741,-0.0471,-0.0269,0.0067,0.0505,0.0,0.0,0.0,0.0,0.0,0.0,0.0,0.0,0.0,0.4022,0.4352,0.4656,0.4908,0.502,0.5117,0.5186,0.5359,0.554,0.5623,0.5475,0.5199,0.4789,0.489,0.4929,0.4426,0.3999,0.3649,0.353,0.3372,0.0,0.0,0.0,0.0,0.0,0.0,0.0,0.0,0.0,0.0,0.0,0.0,0.0,0.0,0.0,0.0,0.0,0.0,0.0,0.0,0.0,0.0,0.3102,0.3217,0.3256,0.3256,0.3335,0.3215,0.2901,0.2627,0.2354,0.212,0.1768,0.1571,0.1452,0.0589,0.0236,0.0196,-0.0353,-0.051,-0.0471,-0.0707,-0.0746,-0.0667,0.0,0.0,0.0,0.0,0.0,0.0,0.0,0.0,0.0,0.0,0.0,0.0,0.0,0.0,0.0,0.0,0.0,0.0,0.0,0.0,-0.2352,-0.2691,-0.283,-0.2998,-0.313,-0.2884,-0.276,-0.2813,-0.2564,-0.2298,-0.2005,-0.206,-0.1993,-0.1806,-0.166,-0.1513,-0.1344,-0.121,-0.1042,-0.084,-0.0638,-0.037,0.0,0.0504,0.0,0.0,0.0,0.0,0.0,0.0,0.0,0.0,0.345,0.3714,0.391,0.4142,0.4245,0.4287,0.4459,0.4473,0.4482,0.4742,0.4656,0.4407,0.3898,0.3763,0.3724,0.3724,0.0,0.3062,0.3062,0.0,0.0,0.0,0.0,0.0,0.0,0.0,0.0,0.0,0.0,0.0,0.0,0.0,0.0,0.0,0.0,0.0,0.0,0.0,0.0,0.0,0.0,0.0,0.318,0.3411,0.3526,0.0,0.3724,0.3724,0.3487,0.2862,0.2588,0.2511,0.1963,0.1805,0.1921,0.1099,0.0746,0.0667,0.0314,0.0236,0.0353,0.0196,0.0235,0.0312,0.0,0.0,0.0,0.0,0.0,0.0,0.0,0.0,0.0,0.0,0.0,0.0,0.0,0.0,0.0,0.0,0.0,0.0,0.0,0.0,-0.2352,-0.2691,-0.294,-0.3132,-0.333,-0.3132,-0.2974,-0.2882,-0.2365,-0.2115,-0.2157,-0.1892,-0.1891,-0.2033,-0.1727,-0.1648,-0.1749,-0.158,-0.148,-0.1412,-0.121,-0.0941,-0.0572,-0.0202,0.0168,0.0,0.0,0.0,0.0,0.0,0.0,0.0,0.2747,0.3133,0.3515,0.3568,0.3727,0.3892,0.3763,0.3845,0.3951,0.3955,0.4017,0.3955,0.3624,0.3411,0.3258,0.3258,0.3061,0.2865,0.0,0.0,0.0,0.0,0.0,0.0,0.0,0.0,0.0,0.0,0.0,0.0,0.0,0.0,0.0,0.0,0.0,0.0,0.0,0.0,0.0,0.0,0.0,0.4001,0.3884,0.3804,0.3724,0.0,0.3763,0.3763,0.3724,0.3409,0.3176,0.2943,0.2669,0.255,0.255,0.2079,0.1764,0.1608,0.1333,0.1177,0.1061,0.1021,0.0932,0.0763,0.0,0.0,0.0,0.0,0.0,0.0,0.0,0.0,0.0,0.0,0.0,0.0,0.0,0.0,0.0,0.0,0.0,0.0,0.0,0.0,0.0,0.0,-0.3299,0.0,0.0,-0.3519,-0.3408,-0.3322,-0.2794,-0.2441,-0.2232,-0.1927,-0.1848,-0.1937,-0.1693,-0.1715,-0.1884,-0.1783,-0.1748,-0.1748,-0.1614,-0.1379,-0.1008,-0.0672,-0.0303,0.0067,0.0539,0.0,0.0,0.0,0.0,0.0,0.0,0.0,0.2857,0.2973,0.3126,0.3203,0.3147,0.319,0.3278,0.3265,0.3427,0.3477,0.318,0.3084,0.3019,0.2857,0.2746,0.0,0.0,0.0,0.0,0.0,0.0,0.0,0.0,0.0,0.0,0.0,0.0,0.0,0.0,0.0,0.0,0.0,0.0,0.0,0.0,0.0,0.0,0.0,0.4272,0.404,0.396,0.3843,0.3802,0.3802,0.3802,0.3763,0.3643,0.3565,0.3372,0.3102,0.2982,0.3022,0.3096,0.2668,0.2353,0.2156,0.196,0.1803,0.1725,0.1589,0.1494,0.1434,0.0,0.0,0.0,0.0,0.0,0.0,0.0,0.0,0.0,0.0,0.0,0.0,0.0,0.0,0.0,0.0,0.0,0.0,0.0,0.0,0.0,0.0,-0.366,0.0,0.0,0.0,0.0,-0.3812,-0.3396,-0.2934,-0.2481,-0.209,-0.1879,-0.1839,-0.166,-0.1715,-0.1951,-0.1951,-0.1951,-0.1951,-0.1951,-0.1715,-0.1379,-0.1042,-0.0739,-0.037,0.0034,0.0463,0.0836,0.0848,0.0,0.0,0.0,0.0,0.2155,0.2382,0.2486,0.2542,0.2566,0.2591,0.2656,0.2813,0.3025,0.3096,0.2803,0.2866,0.2892,0.2524,0.2464,0.0,0.0,0.0,0.0,0.0,0.0,0.0,0.0,0.0,0.0,0.0,0.0,0.0,0.0,0.0,0.0,0.0,0.0,0.0,0.0,0.0,0.4621,0.4462,0.4233,0.4038,0.3843,0.3802,0.3802,0.3802,0.3763,0.3645,0.3448,0.3433,0.332,0.3178,0.3178,0.3333,0.3526,0.3137,0.2824,0.2589,0.2431,0.2308,0.2216,0.1983,0.1996,0.2045,0.0,0.0,0.0,0.0,0.0,0.0,0.0,0.0,0.0,0.0,0.0,0.0,0.0,0.0,0.0,0.0,0.0,0.0,-0.2663,0.0,0.0,-0.3385,-0.366,-0.3799,0.0,0.0,0.0,-0.3796,-0.3609,-0.3433,-0.3243,-0.2337,-0.1942,-0.2033,-0.1727,-0.1817,-0.2154,-0.2154,-0.2154,-0.2154,-0.2154,-0.2018,-0.1783,-0.158,-0.1277,-0.0941,-0.0403,-0.0066,0.0194,0.0579,0.085,0.0,0.0,0.0,0.1768,0.1796,0.2064,0.2298,0.2149,0.2226,0.2463,0.2939,0.3091,0.3083,0.2911,0.0,0.2841,0.0,0.0,0.0,0.0,0.0,0.0,0.0,0.0,0.0,0.0,0.0,0.0,0.0,0.0,0.0,0.0,0.0,0.0,0.0,0.0,0.0,0.0,0.4818,0.4701,0.4659,0.4314,0.4079,0.4079,0.3882,0.3802,0.3802,0.3604,0.3411,0.3137,0.3109,0.3191,0.3448,0.3448,0.3567,0.3763,0.3684,0.3413,0.3023,0.2982,0.275,0.2355,0.2347,0.2209,0.2018,0.0,0.0,0.0,0.0,0.0,0.0,0.0,0.0,0.0,0.0,0.0,0.0,0.0,0.0,0.0,-0.241,-0.238,-0.2493,-0.2802,-0.2996,-0.3217,-0.3512,-0.3692,-0.387,-0.4019,0.0,-0.4058,-0.4136,-0.4065,-0.3916,-0.361,-0.2985,-0.2501,-0.213,-0.1893,-0.185,-0.2052,-0.2154,-0.2188,-0.2188,-0.2188,-0.2154,-0.2052,-0.185,-0.1547,-0.1176,-0.0874,-0.0434,0.0,0.0097,0.0384,0.0693,0.0703,0.0,0.0,0.0,0.1618,0.1859,0.1888,0.1947,0.2116,0.2509,0.2638,0.2658,0.2445,0.2511,0.2457,0.0,0.0,0.0,0.0,0.0,0.0,0.0,0.0,0.0,0.0,0.0,0.0,0.0,0.0,0.0,0.0,0.0,0.0,0.0,0.0,0.0,0.5018,0.4701,0.4543,0.4543,0.4155,0.0,0.3921,0.3841,0.3802,0.3802,0.345,0.3195,0.3038,0.2775,0.2836,0.3134,0.3365,0.3523,0.3643,0.3763,0.353,0.3096,0.3054,0.2789,0.2374,0.231,0.2217,0.2099,0.0,0.0,0.0,0.0,0.0,0.0,0.0,0.0,0.0,0.0,0.0,0.0,0.0,0.0,0.0,0.0,-0.2324,-0.2549,-0.2888,-0.3023,-0.3249,-0.3597,-0.3717,-0.392,-0.4143,0.0,-0.4216,-0.4314,-0.4368,-0.4236,-0.395,-0.3611,-0.3118,-0.2552,-0.2152,-0.1985,-0.1985,-0.212,-0.2188,-0.2188,-0.2221,-0.2221,-0.2188,-0.2087,-0.1783,-0.1446,-0.1277,-0.0807,-0.0302,-0.0394,-0.0098,0.0292,0.0252,0.0437,0.0,0.0,0.0,0.1399,0.1704,0.1784,0.1865,0.2168,0.2322,0.2335,0.0,0.0,0.207,0.0,0.0,0.0,0.0,0.0,0.0,0.0,0.0,0.0,0.0,0.0,0.0,0.0,0.0,0.0,0.0,0.0,0.0,0.0,0.0,0.0,0.5018,0.4659,0.4462,0.4384,0.4075,0.3843,0.3802,0.3802,0.3802,0.3802,0.3315,0.3044,0.2989,0.2539,0.2484,0.2695,0.3061,0.3307,0.3494,0.3552,0.3401,0.3065,0.2951,0.2686,0.2327,0.2241,0.22,0.2181,0.0,0.0,0.0,0.0,0.0,0.0,0.0,0.0,0.0,0.0,0.0,0.0,-0.2212,-0.2099,-0.2071,-0.2184,-0.2212,-0.241,-0.286,-0.3023,-0.3249,-0.3597,-0.3717,0.0,-0.4004,-0.4021,-0.4041,-0.4113,-0.4295,-0.4378,-0.4375,-0.4017,-0.3738,-0.3489,-0.259,-0.2188,-0.2188,-0.2188,-0.2188,-0.2221,-0.2322,-0.2322,-0.2221,-0.2322,-0.2154,-0.185,-0.1648,-0.1344,-0.1008,-0.0839,-0.0537,-0.0268,-0.026,-0.0032,0.0223,0.0,0.0,0.0,0.155,0.1698,0.1817,0.2291,0.2391,0.2357,0.0,0.0,0.0,0.0,0.0,0.0,0.0,0.0,0.0,0.0,0.0,0.0,0.0,0.0,0.0,0.0,0.0,0.0,0.0,0.0,0.0,0.0,0.0,0.0,0.5018,0.4779,0.4582,0.4423,0.4194,0.3999,0.3802,0.3802,0.3802,0.3802,0.3257,0.2992,0.2986,0.2449,0.2252,0.2343,0.2557,0.2925,0.337,0.3139,0.3043,0.2987,0.2728,0.2445,0.2218,0.2212,0.2208,0.2192,0.0,0.0,0.0,0.0,0.0,0.0,0.0,0.0,0.0,0.0,0.0,0.0,0.0,-0.1962,-0.1878,-0.1936,-0.21,-0.2436,-0.2996,-0.3077,-0.3277,-0.3723,-0.3688,-0.3782,-0.399,-0.3955,-0.3988,-0.4108,-0.4467,-0.461,-0.4527,-0.4394,-0.4159,-0.3768,-0.2961,-0.248,-0.2322,-0.2453,-0.2388,-0.2221,-0.2488,-0.2421,-0.2221,-0.2357,-0.2188,-0.1884,0.0,0.0,-0.1244,-0.1277,-0.1076,-0.084,-0.0931,-0.0629,-0.0197,0.0124,0.038,0.0683,0.1123,0.1418,0.1657,0.199,0.2188,0.2188,0.1884,0.1718,0.0,0.0,0.0,0.0,0.0,0.0,0.0,0.0,0.0,0.0,0.0,0.0,0.0,0.0,0.0,0.0,0.0,0.0,0.0,0.0,0.0,0.0,0.5012,0.4818,0.4659,0.4582,0.4272,0.3969,0.3675,0.3675,0.3573,0.3405,0.3078,0.2855,0.2735,0.2369,0.2201,0.2254,0.2322,0.2556,0.2878,0.2961,0.2893,0.2725,0.2654,0.2437,0.2205,0.22,0.2207,0.2188,0.0,0.0,0.0,0.0,0.0,0.0,0.0,0.0,0.0,-0.1933,0.0,0.0,0.0,0.0,-0.1825,-0.1936,-0.2158,-0.2519,-0.3074,-0.316,-0.3386,-0.377,-0.3711,-0.3779,-0.399,-0.3952,-0.3962,-0.4042,-0.4491,-0.4688,-0.4601,-0.4621,-0.4467,-0.4115,-0.3468,-0.2932,-0.2555,-0.2643,-0.2587,-0.2388,-0.2621,-0.252,-0.2288,-0.2357,-0.2221,0.0,0.0,0.0,0.0,0.0,0.0,-0.1176,-0.1277,-0.0996,-0.0584,-0.0156,0.0118,0.0341,0.0729,0.1079,0.1408,0.1724,0.1951,0.2018,0.1749,0.0,0.0,0.0,0.0,0.0,0.0,0.0,0.0,0.0,0.0,0.0,0.0,0.0,0.0,0.0,0.0,0.0,0.0,0.0,0.0,0.0,0.0,0.0,0.4911,0.4799,0.4683,0.4568,0.4221,0.3868,0.3585,0.3509,0.337,0.3207,0.2923,0.2741,0.2588,0.2326,0.2192,0.2188,0.2188,0.2348,0.2621,0.2706,0.2675,0.2581,0.2443,0.2246,0.2105,0.21,0.2087,0.212,0.0,0.0,0.0,0.0,0.0,0.0,0.0,0.0,0.0,-0.1797,0.0,0.0,0.0,0.0,0.0,-0.2184,-0.238,-0.2659,-0.3074,-0.3299,-0.3526,-0.3776,-0.3793,-0.3872,-0.4001,-0.3986,-0.3977,-0.3902,-0.4375,-0.4593,-0.4601,-0.4675,-0.4657,-0.4571,-0.412,-0.3499,-0.2832,-0.2753,-0.272,-0.272,-0.272,-0.2587,-0.2391,0.0,0.0,0.0,-0.2188,-0.1951,0.0,-0.1614,0.0,0.0,0.0,0.0,0.0,0.0,0.0,0.0057,0.0,0.0,0.0,0.0,0.0,0.0,0.1879,0.0,0.0,0.0,0.0,0.0,0.0,0.0,0.0,0.0,0.0,0.0,0.0,0.0,0.0,0.0,0.0,0.0,0.0,0.0,0.0,0.0,0.0,0.4736,0.4785,0.479,0.4643,0.4307,0.4039,0.3771,0.3497,0.3312,0.3201,0.3197,0.2796,0.2586,0.2584,0.2316,0.2188,0.2188,0.2188,0.2356,0.2581,0.2313,0.2357,0.2545,0.2073,0.1884,0.1884,0.1884,0.1884,0.1918,0.0,0.0,0.0,0.0,0.0,0.0,0.0,0.0,-0.1431,0.0,0.0,0.0,-0.1629,-0.1741,-0.1908,-0.2184,-0.238,-0.2659,-0.3074,-0.3299,-0.3508,-0.3799,-0.3788,-0.3814,-0.386,-0.3945,-0.3928,-0.3744,-0.4328,-0.454,0.0,0.0,-0.4733,-0.451,-0.4347,-0.4011,-0.3592,-0.3357,-0.3125,-0.2922,-0.2922,-0.2723,0.0,0.0,0.0,0.0,0.0,-0.1918,-0.1783,0.0,-0.1547,-0.1513,0.0,0.0,-0.1497,0.0,0.0,-0.0469,0.0,0.0,0.0,0.0,0.0,0.0,0.0,0.0,0.0,0.0,0.0,0.0,0.0,0.0,0.0,0.0,0.0,0.0,0.0,0.0,0.0,0.0,0.0,0.0,0.0,0.0,0.0,0.0,0.4536,0.461,0.4734,0.4739,0.4556,0.4157,0.4084,0.3853,0.3439,0.3223,0.3015,0.2818,0.2594,0.2416,0.2313,0.2228,0.2188,0.2188,0.2188,0.2231,0.2312,0.2228,0.2162,0.2073,0.1957,0.1817,0.1681,0.1681,0.1681,0.1681,0.0,0.0,0.0,0.0,0.0,0.0,0.0,-0.1262,-0.1291,0.0,0.0,0.0,-0.1657,-0.1796,-0.1962,-0.2183,-0.249,-0.2796,-0.3074,-0.333,-0.358,-0.3796,-0.3863,-0.3866,-0.3795,-0.3931,-0.3879,0.0,0.0,0.0,0.0,0.0,0.0,-0.4584,-0.439,-0.4249,-0.4097,-0.3754,0.0,0.0,-0.2956,0.0,0.0,-0.2356,-0.2255,0.0,0.0,0.0,-0.1749,-0.1648,-0.1614,0.0,0.0,0.0,0.0,0.0,0.0,-0.0801,-0.0398,0.0091,0.0505,0.0,0.0,0.0,0.1481,0.1501,0.0,0.0,0.0,0.0,0.0,0.0,0.0,0.0,0.0,0.0,0.0,0.0,0.0,0.0,0.0,0.0,0.0,0.0,0.0,0.0,0.4432,0.4487,0.4605,0.466,0.4485,0.4046,0.4011,0.3785,0.3307,0.3063,0.2867,0.2686,0.2455,0.2288,0.2188,0.2188,0.2188,0.2188,0.2188,0.2188,0.2188,0.2188,0.2087,0.1884,0.1817,0.1648,0.148,0.148,0.148,0.148,0.0,0.0,0.0,0.0,0.0,0.0,0.0,0.0,-0.1234,0.0,-0.1431,-0.1628,-0.1769,-0.1933,-0.2071,-0.2212,-0.2629,-0.2935,-0.3077,-0.3385,-0.3635,-0.3741,-0.391,-0.3929,-0.3771,-0.3901,0.0,0.0,0.0,0.0,0.0,0.0,0.0,0.0,0.0,0.0,-0.4336,0.0,0.0,-0.3464,-0.2989,-0.2753,0.0,0.0,-0.2255,-0.2221,-0.2188,-0.1918,-0.158,-0.1547,-0.158,0.0,0.0,0.0,0.0,0.0,-0.1335,-0.1013,-0.0766,-0.0391,0.0,0.0,0.0,0.0,0.1372,0.147,0.1475,0.0,0.0,0.0,0.0,0.0,0.0,0.0,0.0,0.0,0.0,0.0,0.0,0.0,0.0,0.0,0.0,0.0,0.403,0.4267,0.43,0.4377,0.4513,0.4624,0.4458,0.3901,0.3899,0.3685,0.3194,0.2855,0.2686,0.2686,0.2354,0.2188,0.2188,0.2188,0.2188,0.2188,0.2188,0.2188,0.2188,0.2188,0.2053,0.185,0.1681,0.148,0.1277,0.1277,0.1277,0.1311,-0.0707,0.0,0.0,0.0,0.0,0.0,0.0,0.0,-0.087,-0.0954,-0.1206,-0.1459,-0.1769,-0.1933,-0.2127,-0.241,-0.2633,-0.28,-0.2942,-0.3249,-0.3441,-0.3469,-0.3716,-0.3781,-0.3632,-0.3777,-0.376,0.0,0.0,0.0,0.0,0.0,0.0,0.0,0.0,0.0,0.0,0.0,0.0,-0.3498,-0.3395,0.0,-0.2922,-0.2855,-0.2656,-0.2322,-0.2052,-0.1817,-0.1547,-0.1277,-0.1379,-0.1614,0.0,0.0,0.0,-0.1702,0.0,0.0,0.0,0.0,0.0,0.0,0.0,0.0,0.0972,0.1343,0.1636,0.0,0.0,0.0,0.0,0.0,0.0,0.0,0.0,0.0,0.0,0.0,0.0,0.0,0.0,0.0,0.0,0.0,0.373,0.4028,0.4361,0.4537,0.4596,0.4619,0.4386,0.3823,0.3823,0.3612,0.3192,0.2855,0.2686,0.2686,0.2354,0.2188,0.2188,0.2188,0.2188,0.2188,0.2188,0.2188,0.2188,0.2188,0.1985,0.1648,0.1614,0.1412,0.1143,0.1143,0.1143,0.1143,-0.0186,0.0,0.0,0.0,0.0,0.0,0.0,0.0,-0.0617,-0.0785,-0.1094,-0.1458,-0.185,-0.2017,-0.2212,-0.2465,-0.2691,-0.2833,-0.2888,-0.3221,-0.3413,-0.3413,-0.366,-0.3739,-0.3594,-0.3729,-0.3777,0.0,0.0,0.0,0.0,0.0,0.0,0.0,0.0,0.0,0.0,0.0,-0.3635,-0.3498,-0.3328,0.0,-0.2989,-0.279,-0.2591,-0.2357,-0.2018,-0.1715,-0.1412,-0.1244,-0.1379,0.0,0.0,-0.1951,-0.2114,0.0,-0.1564,-0.1413,0.0,0.0,0.0,-0.0252,0.0,0.0,0.0,0.1223,0.1552,0.0,0.0,0.0,0.0,0.0,0.0,0.0,0.0,0.0,0.0,0.0,0.0,0.0,0.0,0.0,0.0,0.0,0.346,0.3961,0.4361,0.4558,0.4464,0.4561,0.4359,0.3825,0.3792,0.3591,0.3192,0.2855,0.2686,0.2686,0.2354,0.2188,0.2188,0.2188,0.2188,0.2188,0.2188,0.2221,0.2288,0.2221,0.212,0.1985,0.1817,0.1513,0.121,0.1311,0.1277,0.121,0.0376,0.0,0.0,0.0,0.0,0.0,0.0,0.0,-0.0422,-0.0707,-0.1048,-0.1448,-0.1938,-0.2112,-0.2283,-0.2455,-0.2685,-0.2801,-0.2801,-0.3093,-0.3278,-0.3278,-0.3532,-0.3643,-0.3575,-0.3676,-0.3738,0.0,0.0,0.0,0.0,0.0,0.0,0.0,0.0,0.0,-0.3727,0.0,0.0,-0.3263,0.0,-0.2922,-0.2991,-0.2658,-0.249,-0.2389,-0.1985,-0.158,-0.1277,-0.1277,-0.1412,-0.1614,-0.1783,-0.1985,0.0,0.0,0.0,0.0,0.0,0.0,0.0,0.0,0.0,0.0308,0.0,0.0,0.0,0.0,0.0,0.0,0.0,0.0,0.0,0.0,0.0,0.0,0.0,0.0,0.0,0.0,0.0,0.0,0.0,0.0,0.3238,0.3866,0.4279,0.4461,0.4334,0.4483,0.4359,0.3825,0.3792,0.3591,0.3192,0.2855,0.2686,0.2686,0.2354,0.2188,0.2188,0.2221,0.2255,0.2255,0.2288,0.2389,0.249,0.2356,0.2389,0.2523,0.2119,0.1748,0.1446,0.1648,0.158,0.1446,0.0837,0.0923,0.0,0.0,0.0,0.0,0.0,0.0,-0.0255,-0.0817,-0.1084,-0.1391,-0.1854,-0.2073,-0.2257,-0.2411,0.0,0.0,-0.2471,0.0,-0.287,-0.287,-0.3069,-0.3267,-0.3423,-0.3428,-0.35,-0.362,0.0,0.0,0.0,0.0,0.0,0.0,-0.3814,0.0,0.0,0.0,-0.259,0.0,-0.2356,-0.2656,0.0,-0.2991,-0.2822,-0.2586,-0.1883,-0.1412,-0.1109,0.0,-0.1344,-0.1614,0.0,-0.1783,-0.1849,0.0,0.0,0.0,0.0,0.0,0.0,0.0,0.0,0.0,0.0,0.0,0.0,0.0,0.0,0.0,0.0,0.0,0.0,0.0,0.0,0.0,0.0,0.0,0.0,0.0,0.0,0.0,0.0,0.0,0.0,0.3516,0.3985,0.43,0.4368,0.4534,0.4359,0.3825,0.3792,0.3591,0.3192,0.2855,0.2686,0.2686,0.2354,0.2188,0.2188,0.2322,0.2391,0.2391,0.2554,0.2755,0.2922,0.2721,0.2822,0.306,0.2423,0.2018,0.185,0.2052,0.2018,0.185,0.1178,0.1178,0.1206,0.0,0.0,0.0,0.0,0.0,0.0,-0.0704,-0.0913,-0.1223,0.0,0.0,0.0,0.0,0.0,-0.2157,0.0,0.0,-0.2602,-0.2692,0.0,0.0,-0.3168,-0.318,-0.3325,-0.3591,-0.3724,0.0,0.0,0.0,0.0,0.0,-0.3712,0.0,-0.3087,0.0,-0.2528,0.0,0.0,0.0,0.0,-0.2421,-0.2151,-0.1848,-0.1681,-0.1312,-0.0942,0.0,-0.1109,0.0,0.0,0.0,0.0,0.0,0.0,0.0,0.0,0.0,0.0,0.0,0.0,0.0,0.0645,0.0,0.1402,0.0,0.0,0.0,0.0,0.0,0.0,0.0,0.0,0.0,0.0,0.0,0.0,0.0,0.0,0.0,0.0,0.0,0.0,0.0,0.0,0.4011,0.4113,0.4229,0.4156,0.3823,0.3694,0.3493,0.3192,0.2855,0.2686,0.2686,0.2354,0.2255,0.2322,0.2488,0.2622,0.2757,0.2922,0.3092,0.3261,0.3058,0.3224,0.3493,0.3094,0.2723,0.2386,0.2587,0.252,0.242,0.1459,0.1431,0.1431,0.0,0.0,0.0,0.0,0.0,0.0,0.0,0.0,0.0,-0.1478,-0.1611,0.0,0.0,-0.1831,-0.1894,0.0,0.0,-0.2248,0.0,0.0,0.0,0.0,0.0,-0.302,-0.3434,0.0,0.0,0.0,0.0,0.0,0.0,0.0,-0.3381,-0.3028,0.0,-0.2388,-0.2052,-0.1513,-0.148,-0.1749,-0.1918,-0.1715,-0.1412,-0.1547,-0.1245,-0.0809,-0.0908,-0.084,0.0,-0.084,0.0,0.0,0.0,0.0,0.0,0.0031,0.0,0.0,0.0,0.0,0.0,0.0,0.0,0.0,0.0,0.0,0.0,0.0,0.0,0.0,0.0,0.0,0.0,0.0,0.0,0.0,0.0,0.0,0.0,0.0,0.0,0.0,0.0,0.3172,0.0,0.3667,0.3858,0.3866,0.368,0.3582,0.3395,0.3192,0.2922,0.2787,0.2787,0.2488,0.2421,0.2557,0.2755,0.2989,0.3224,0.3324,0.3527,0.3763,0.3493,0.3658,0.4025,0.3696,0.3393,0.3157,0.319,0.309,0.2954,0.1797,0.1797,0.1797,0.0,0.0,0.0,0.0,0.0,0.0,0.0,0.0,0.0,0.0,0.0,0.0,0.0,0.0,-0.161,-0.161,0.0,-0.1737,0.0,0.0,-0.2094,0.0,0.0,0.0,0.0,0.0,0.0,0.0,0.0,0.0,0.0,-0.3587,-0.335,-0.2872,-0.2396,-0.1884,-0.1277,-0.0739,-0.0538,-0.0672,0.0,-0.1951,-0.158,-0.1614,0.0,0.0,-0.0572,-0.0504,0.0,0.0,0.0,0.0,0.0,0.0,0.0,0.0,0.0,0.0,0.0971,0.0,0.0,0.0,0.0,0.1656,0.0,0.0,0.0,0.0,0.0,0.2445,0.2514,0.0,0.0,0.0,0.0,0.0,0.0,0.0,0.0,0.0,0.0,0.0,0.1993,0.26,0.0,0.3121,0.3434,0.3547,0.3418,0.348,0.3395,0.3192,0.3058,0.2989,0.2989,0.2787,0.2787,0.2989,0.3125,0.3391,0.3792,0.3792,0.4092,0.4525,0.3992,0.4159,0.4697,0.4059,0.3995,0.4197,0.3892,0.3661,0.3485,0.1769,0.1797,0.1797,0.0,0.0,0.0,0.0,0.0686,0.0,0.0,0.0,0.0,0.0,-0.101,-0.1111,0.0,0.0,-0.1311,-0.1412,-0.1432,0.0,0.0,0.0,-0.1586,0.0,0.0,0.0,0.0,0.0,0.0,0.0,0.0,0.0,0.0,0.0,-0.3392,0.0,0.0,0.0,0.0,0.0,-0.0437,-0.0605,0.0,0.0,-0.1277,-0.1379,-0.101,0.0,-0.0236,-0.0034,0.0202,0.037,0.0437,0.047,0.0672,0.0868,0.0,0.0,0.0,0.1332,0.1274,0.0,0.0,0.0,0.0,0.0,0.0,0.0,0.0,0.0,0.0,0.2426,0.2321,0.2125,0.0,0.0,0.0,0.0,0.0,0.0,0.0,0.0,0.0,0.0,0.171,0.2093,0.2441,0.0,0.3058,0.3218,0.3185,0.328,0.3261,0.3192,0.3058,0.3058,0.3125,0.2989,0.3058,0.3328,0.3527,0.3725,0.3928,0.4064,0.4231,0.4398,0.4197,0.4328,0.4661,0.4425,0.4461,0.4564,0.4095,0.3848,0.3697,0.185,0.1906,0.0,0.0,0.0,0.0,0.0,0.0,0.0,0.0,-0.016,0.0,-0.0605,0.0,-0.0741,0.0,-0.0942,-0.1039,-0.1128,-0.1204,0.0,-0.1326,-0.1205,0.0,0.0,0.0,0.0,0.0,0.0,-0.2294,0.0,0.0,0.0,0.0,0.0,-0.3542,-0.2966,-0.252,-0.1813,0.0,0.0,-0.0067,0.0,0.0,-0.1109,-0.1109,0.0,-0.0706,-0.0135,0.0168,0.0471,0.0775,0.1076,0.1176,0.1244,0.1446,0.158,0.1675,0.1677,0.1796,0.0,0.0,0.1888,0.0,0.1942,0.0,0.0,0.0,0.0,0.0,0.0,0.0,0.0,0.2249,0.1894,0.1584,0.0,0.1241,0.0,0.0,0.0,0.0,0.0,0.0,0.1218,0.1486,0.1766,0.2065,0.0,0.0,0.2826,0.2884,0.2937,0.3029,0.3125,0.3058,0.3092,0.3295,0.3226,0.3362,0.3696,0.3828,0.3995,0.4228,0.4264,0.4367,0.4464,0.4431,0.4561,0.4758,0.4694,0.4761,0.4861,0.4428,0.4126,0.3929,0.2015,0.0,0.0,0.0,0.1518,0.0,0.0,0.0,0.0363,0.0,-0.0097,-0.0294,-0.0303,-0.0404,-0.0506,-0.0506,-0.0674,-0.08,-0.0778,-0.0961,0.0,0.0,-0.0764,-0.0775,-0.0773,0.0,0.0,0.0,0.0,0.0,0.0,0.0,0.0,0.0,-0.3859,0.0,-0.3005,-0.2755,-0.1914,-0.0672,0.0034,0.0539,0.0739,0.0034,0.0,-0.0975,-0.0806,-0.0404,0.0135,0.0672,0.0975,0.1244,0.1749,0.1918,0.1985,0.2188,0.2322,0.2424,0.2424,0.2507,0.2613,0.2613,0.0,0.0,0.0,0.0,0.2968,0.0,0.0,0.0,0.0,0.0,0.0,0.2279,0.1748,0.121,0.0,0.0,0.0,0.0,0.0,0.0,0.0,0.1008,0.1132,0.1281,0.1592,0.1843,0.0,0.0,0.0,0.249,0.2571,0.2743,0.3017,0.3021,0.3192,0.3531,0.3531,0.3696,0.4028,0.4028,0.4228,0.4561,0.4398,0.4495,0.4755,0.4658,0.4788,0.5077,0.4891,0.4927,0.5087,0.4855,0.4557,0.4196,0.21,0.2183,0.2156,0.0,0.1631,0.1285,0.0,0.0,0.0,0.0,-0.0033,-0.0134,-0.0269,-0.0337,-0.0404,-0.0506,-0.0539,0.0,0.0,0.0,0.0,-0.0567,-0.047,-0.0438,-0.0438,-0.0268,0.0,-0.0677,0.0,0.0,-0.201,0.0,0.0,0.0,0.0,0.0,-0.3328,-0.2577,-0.1308,0.0202,0.0706,0.0942,0.0,0.0,0.0538,0.0504,0.0134,0.037,0.0875,0.1278,0.1513,0.1749,0.2154,0.2388,0.252,0.2723,0.2824,0.2857,0.2857,0.283,0.2834,0.2834,0.2974,0.3136,0.0,0.0,0.0,0.0,0.0,0.0,0.0,0.0,0.0,0.2521,0.164,0.0,0.0,0.0,0.0,0.0,0.0,0.0,0.0,0.0857,0.0976,0.1219,0.1298,0.0,0.0,0.0,0.0,0.2411,0.2697,0.2908,0.3059,0.3259,0.3493,0.3727,0.3828,0.3997,0.4233,0.4233,0.4264,0.4367,0.4334,0.4347,0.4431,0.4554,0.4737,0.4948,0.5018,0.516,0.5279,0.4812,0.4536,0.4342,0.2298,0.0,0.0,0.2127,0.0,0.0,0.1083,0.0,0.0,0.0164,0.0134,0.0,-0.0135,-0.0169,-0.0202,-0.027,-0.0371,0.0,-0.0364,0.0,0.0,-0.0298,-0.0134,0.0,0.0034,0.0169,0.0,-0.023,0.0,0.0,-0.1823,0.0,0.0,0.0,0.0,-0.3541,-0.3192,-0.1879,-0.0504,0.0806,0.1277,0.0,0.0,0.148,0.1579,0.1746,0.1444,0.1378,0.1513,0.185,0.2085,0.2319,0.2658,0.2891,0.309,0.3291,0.3357,0.3357,0.3357,0.3319,0.3309,0.3377,0.3528,0.3703,0.3859,0.3953,0.4059,0.0,0.0,0.0,0.0,0.0,0.0,0.0,0.0,0.0,0.0,0.0,0.0,0.0,0.0,0.0,0.0,0.0,0.0908,0.0,0.0,0.0,0.0,0.0,0.0,0.2215,0.2447,0.2728,0.3089,0.324,0.3553,0.4028,0.4097,0.4237,0.4415,0.4415,0.4384,0.4333,0.4333,0.4353,0.4355,0.4524,0.4705,0.4932,0.5137,0.5292,0.5342,0.4964,0.4693,0.4524,0.2521,0.0,0.0,0.0,0.0,0.0,0.0,0.0986,0.0,0.037,0.0,0.027,0.0101,0.0067,0.0067,0.0067,0.0,-0.0167,-0.0098,-0.0166,-0.0133,0.0065,0.0266,0.0404,0.0539,0.0573,0.0,0.0,0.0,0.0,0.0,0.0,0.0,0.0,0.0,0.0,0.0,-0.0941,0.0302,0.0,0.1749,0.2186,0.2456,0.2356,0.2522,0.282,0.282,0.252,0.2119,0.2423,0.2656,0.2855,0.3192,0.3395,0.3598,0.3761,0.3859,0.3859,0.3859,0.3892,0.3925,0.4061,0.4153,0.4236,0.4455,0.4637,0.4716,0.4598,0.4791,0.0,0.0,0.0,0.0,0.0,0.0,0.0,0.0,0.0,0.0,0.0,0.0,0.0,0.0,0.0,0.0,0.0,0.0,0.0,0.0,0.0,0.0,0.0,0.2107,0.0,0.3102,0.0,0.3593,0.43,0.4317,0.4415,0.4591,0.4573,0.45,0.4388,0.4388,0.4409,0.4427,0.4589,0.4784,0.499,0.5278,0.5382,0.5347,0.5179,0.4933,0.4683,0.2635,0.0,0.0,0.0,0.0,0.1757,0.142,0.1035,0.0704,0.0505,0.0472,0.0438,0.0404,0.0404,0.0404,0.0404,0.0371,0.0,0.0,0.0,0.0,0.0402,0.0604,0.074,0.074,0.1009,0.1009,0.0,0.0,0.0,0.0,0.0,0.0,0.0,0.0,0.0,-0.1109,-0.0202,0.0,0.1547,0.2087,0.2557,0.2891,0.2857,0.3058,0.3395,0.3558,0.3324,0.2991,0.323,0.333,0.3395,0.3625,0.3794,0.393,0.3961,0.4097,0.4197,0.4197,0.4328,0.4459,0.4492,0.4577,0.4728,0.492,0.5006,0.5019,0.4992,0.5159,0.522,0.4875,0.0,0.0,0.0,0.0,0.0,0.0,0.0,0.0,0.0,0.0,0.0,0.0,0.0,0.0,0.0,0.0,0.0,0.0,0.0,0.0,0.0,0.0,0.0,0.0,0.0,0.0,0.43,0.4457,0.4551,0.4588,0.4476,0.4409,0.4388,0.4388,0.4384,0.4418,0.4717,0.5028,0.5325,0.5385,0.5284,0.5137,0.511,0.4931,0.4699,0.0,0.0,0.0,0.0,0.0,0.0,0.0,0.1345,0.0,0.084,0.0808,0.0808,0.0808,0.0808,0.0808,0.0808,0.0808,0.0808,0.0808,0.0875,0.0909,0.0909,0.1061,0.0,0.1151,0.1315,0.1283,0.1052,0.0,0.0,-0.0806,0.0,0.0,0.0,0.0,-0.0961,0.0,0.0,0.0,0.2217,0.2758,0.3161,0.3424,0.3491,0.3696,0.3933,0.4125,0.4125,0.4028,0.3928,0.3995,0.4095,0.4192,0.4295,0.4428,0.4428,0.4498,0.4564,0.4564,0.4631,0.4728,0.4824,0.4994,0.516,0.5319,0.5429,0.5474,0.5296,0.5397,0.5407,0.506,0.4511,0.0,0.0,0.0,0.0,0.0,0.0,0.0,0.0,0.0,0.0,0.0,0.0,0.0,0.0,0.0,0.0,0.0,0.0,0.0,0.0,0.0,0.0,0.0,0.0,0.0,0.4362,0.4521,0.4609,0.4658,0.4587,0.4516,0.4442,0.4442,0.4478,0.4594,0.4885,0.5115,0.5243,0.5243,0.5196,0.5079,0.5023,0.4905,0.481,0.0,0.2493,0.0,0.0,0.2058,0.0,0.1738,0.1659,0.1483,0.1228,0.116,0.1159,0.1198,0.1199,0.1202,0.1209,0.121,0.121,0.121,0.1311,0.1379,0.1379,0.1505,0.1579,0.1579,0.1643,0.1611,0.0,0.0,0.0,0.0,0.0,0.0,0.0,0.0,0.0,0.0,0.0,0.2417,0.2922,0.3393,0.3696,0.3928,0.4028,0.4197,0.4434,0.4694,0.4827,0.4897,0.4688,0.4655,0.4691,0.4691,0.4794,0.4861,0.4797,0.4831,0.4861,0.4861,0.4897,0.4964,0.5123,0.5289,0.5455,0.5583,0.5793,0.5851,0.5555,0.5584,0.556,0.5258,0.4877,0.0,0.0,0.0,0.0,0.0,0.0,0.0,0.0,0.0,0.0,0.0,0.0,0.0,0.0,0.0,0.0,0.0,0.0,0.0,0.0,0.0,0.0,0.3555,0.0,0.4139,0.0,0.4575,0.4654,0.4749,0.4718,0.4635,0.4546,0.457,0.465,0.4817,0.5113,0.5212,0.5208,0.5205,0.5174,0.5147,0.5029,0.4962,0.4962,0.0,0.0,0.0,0.0,0.0,0.0,0.0,0.1819,0.1752,0.1482,0.1424,0.1384,0.1451,0.1455,0.1471,0.1543,0.1547,0.1547,0.1547,0.158,0.158,0.158,0.1702,0.1772,0.1772,0.2063,0.2159,0.0,0.0,0.0,0.0,0.0,0.0,0.0,0.0,0.0,0.0,0.2619,0.3092,0.3429,0.3694,0.3961,0.4267,0.4267,0.4464,0.4797,0.5193,0.5329,0.5395,0.5657,0.5455,0.5054,0.5054,0.5054,0.5024,0.4861,0.4927,0.5087,0.5087,0.5193,0.5362,0.5362,0.5488,0.5583,0.5583,0.5862,0.6017,0.5803,0.5773,0.5724,0.5576,0.5262,0.4842,0.0,0.0,0.0,0.0,0.0,0.0,0.0,0.0,0.0,0.0,0.0,0.0,0.0,0.0,0.0,0.0,0.0,0.0,0.0,0.0,0.3295,0.3754,0.4219,0.0,0.4854,0.4749,0.4766,0.4865,0.4748,0.4702,0.4688,0.4822,0.4937,0.5083,0.547,0.5596,0.5548,0.5567,0.5487,0.5373,0.5284,0.5174,0.5148,0.0,0.0,0.0,0.0,0.0,0.0,0.0,0.2111,0.2107,0.1981,0.1935,0.192,0.2037,0.204,0.2096,0.2192,0.2198,0.2212,0.2249,0.2251,0.2235,0.2199,0.22,0.2178,0.2108,0.2301,0.2387,0.0,0.0,0.0,0.0,0.0,0.0,0.0,0.0,0.2446,0.2787,0.3357,0.3694,0.3828,0.4161,0.4361,0.4498,0.4694,0.4927,0.5196,0.5422,0.5591,0.5723,0.5984,0.5851,0.5587,0.5587,0.5587,0.5557,0.5491,0.5524,0.5554,0.5418,0.5554,0.5657,0.5554,0.5749,0.5947,0.5947,0.6113,0.6224,0.6008,0.5887,0.5795,0.5736,0.554,0.5234,0.0,0.0,0.0,0.0,0.0,0.0,0.0,0.0,0.0,0.0,0.0,0.0,0.0,0.0,0.0,0.0,0.0,0.0,0.2563,0.0,0.3739,0.4213,0.4576,0.4805,0.4901,0.4922,0.4977,0.5005,0.4966,0.4987,0.5077,0.5371,0.5543,0.5601,0.5966,0.609,0.6059,0.5849,0.5731,0.5701,0.5616,0.5567,0.5614,0.2603,0.0,0.2659,0.0,0.2541,0.2463,0.2463,0.2463,0.2501,0.2585,0.2528,0.2437,0.237,0.2374,0.2403,0.254,0.2548,0.2579,0.265,0.2656,0.2642,0.2646,0.2551,0.0,0.239,0.2573,0.2662,0.2686,0.2694,0.0,0.0,0.0,0.0,0.0,0.3023,0.3394,0.3563,0.3995,0.4195,0.4261,0.4528,0.4728,0.4861,0.509,0.5326,0.5557,0.5716,0.5885,0.602,0.6181,0.6152,0.6053,0.5987,0.5987,0.5987,0.5921,0.5888,0.5855,0.5719,0.5785,0.5855,0.5719,0.5947,0.621,0.621,0.6265,0.6252,0.6096,0.598,0.5932,0.5932,0.5818,0.5591,0.0,0.0,0.0,0.0,0.0,0.0,0.0,0.4177,0.4453,0.4477,0.0,0.0,0.0,0.0,0.0,0.0,0.0,0.0,0.0,0.0,0.0,0.0,0.0,0.5171,0.523,0.5234,0.5262,0.5317,0.5317,0.5395,0.5576,0.5986,0.6156,0.612,0.6468,0.6562,0.6492,0.6189,0.6075,0.6062,0.6012,0.6023,0.6127,0.2877,0.2991,0.3047,0.2905,0.2905,0.288,0.288,0.288,0.2999,0.3248,0.3171,0.2893,0.2346,0.2296,0.2325,0.24,0.2407,0.2469,0.2577,0.2615,0.2646,0.0,0.0,0.2534,0.2609,0.2845,0.3028,0.3089,0.0,0.0,0.3487,0.0,0.0,0.3487,0.3823,0.4095,0.43,0.4495,0.4661,0.4797,0.4797,0.503,0.5395,0.5395,0.5594,0.5921,0.6115,0.6178,0.6214,0.635,0.6387,0.6383,0.6247,0.621,0.6148,0.5954,0.5888,0.5888,0.5888,0.5888,0.5888,0.5888,0.605,0.621,0.621,0.6136,0.6075,0.6008,0.6096,0.6205,0.6205,0.6087,0.595,0.5822,0.0,0.0,0.0,0.0,0.0,0.0,0.4936,0.5093,0.5081,0.0,0.0,0.0,0.0,0.0,0.0,0.0,0.0,0.3193,0.4164,0.0,0.5277,0.5609,0.5859,0.5973,0.5732,0.5673,0.58,0.58,0.5937,0.6205,0.6619,0.6713,0.662,0.6945,0.6961,0.6786,0.6573,0.6506,0.6478,0.6409,0.6517,0.6729,0.3019,0.3074,0.3074,0.3047,0.3047,0.3047,0.3047,0.3107,0.3194,0.3285,0.3261,0.3165,0.2995,0.291,0.2881,0.0,0.3015,0.3056,0.0,0.3159,0.317,0.3168,0.3144,0.3158,0.3219,0.325,0.3281,0.331,0.0,0.0,0.0,0.4123,0.4256,0.4256,0.4461,0.4597,0.4664,0.4858,0.4957,0.5024,0.5256,0.5422,0.5554,0.569,0.5888,0.6115,0.6284,0.6412,0.6544,0.6576,0.6679,0.6695,0.6435,0.6444,0.6544,0.6478,0.6515,0.6515,0.6321,0.635,0.6379,0.6148,0.6218,0.635,0.635,0.6297,0.6227,0.6147,0.6173,0.6205,0.6205,0.625,0.6223,0.6091,0.0,0.0,0.0,0.0,0.0,0.0,0.5696,0.6182,0.0,0.6615,0.0,0.0,0.0,0.0,0.0,0.0,0.0,0.0,0.4946,0.0,0.5905,0.6105,0.6218,0.6273,0.6191,0.6245,0.6408,0.6559,0.6683,0.6825,0.7108,0.7184,0.717,0.7395,0.7481,0.7385,0.7189,0.7105,0.7108,0.7045,0.7068,0.7149,0.3436,0.3436,0.3436,0.3436,0.3436,0.3436,0.3436,0.3498,0.3593,0.3637,0.3603,0.3593,0.3637,0.3506,0.0,0.334,0.3376,0.3423,0.3442,0.3452,0.3439,0.3388,0.3388,0.3437,0.354,0.0,0.0,0.3664,0.3956,0.4188,0.4424,0.48,0.4987,0.4987,0.5057,0.509,0.5123,0.5219,0.5319,0.5422,0.562,0.5749,0.5848,0.5951,0.6119,0.628,0.6449,0.6581,0.6708,0.6741,0.6796,0.6746,0.6533,0.6556,0.6659,0.6563,0.6599,0.6635,0.6408,0.644,0.65,0.6277,0.6309,0.636,0.6289,0.628,0.626,0.6161,0.6173,0.62,0.6255,0.6332,0.6386,0.6386,0.0,0.6354,0.0,0.0,0.0,0.0,0.0,0.0,0.0,0.7536,0.0,0.0,0.0,0.0,0.0,0.0,0.0,0.5016,0.56,0.0,0.6458,0.6598,0.6698,0.6784,0.6865,0.6971,0.7087,0.7212,0.7261,0.7263,0.7483,0.7587,0.7598,0.7717,0.7772,0.775,0.752,0.7427,0.7433,0.7394,0.7446,0.7553,0.3993,0.4024,0.0,0.0,0.3996,0.0,0.4024,0.403,0.4082,0.421,0.4116,0.4085,0.4213,0.4106,0.3885,0.3497,0.0,0.0,0.0,0.3545,0.3507,0.3463,0.3468,0.0,0.366,0.3833,0.3979,0.4094,0.4642,0.4969,0.5103,0.5477,0.565,0.565,0.565,0.565,0.565,0.5683,0.5785,0.5958,0.5958,0.6053,0.6243,0.6214,0.628,0.6416,0.6642,0.6708,0.6708,0.683,0.6769,0.6612,0.6585,0.6577,0.6554,0.6362,0.6336,0.6336,0.6336,0.6306,0.6306,0.631,0.6306,0.6258,0.6149,0.6224,0.6256,0.6073,0.6114,0.6255,0.6386,0.6436,0.6517,0.668,0.6734,0.6625,0.6255,0.0,0.0,0.0,0.0,0.0,0.0,0.8023,0.8221,0.0,0.0,0.0,0.0,0.0,0.5401,0.551,0.6114,0.6603,0.6906,0.7052,0.723,0.7449,0.7744,0.781,0.7728,0.7751,0.7666,0.7559,0.7822,0.7919,0.7947,0.7947,0.7947,0.7924,0.766,0.7574,0.7574,0.7574,0.7708,0.7928,0.0,0.0,0.4166,0.4166,0.4079,0.4024,0.4138,0.4251,0.4356,0.4481,0.4394,0.4327,0.4362,0.4382,0.4353,0.4242,0.4021,0.3897,0.3873,0.3873,0.3932,0.4004,0.4009,0.4067,0.4221,0.4162,0.4142,0.4174,0.4725,0.502,0.5103,0.577,0.6046,0.6046,0.6148,0.6218,0.6218,0.6379,0.6478,0.6511,0.6511,0.6544,0.6576,0.6416,0.6383,0.6416,0.6642,0.6708,0.6687,0.667,0.6755,0.6764,0.6458,0.6444,0.6518,0.6527,0.6607,0.6671,0.6542,0.6542,0.6487,0.6336,0.6306,0.6288,0.6269,0.6282,0.6312,0.632,0.6327,0.6408,0.6598,0.6788,0.6923,0.6874,0.7014,0.6955,0.644,0.0,0.0,0.0,0.7004,0.7515,0.7824,0.815,0.8348,0.0,0.0,0.0,0.0,0.0,0.6839,0.655,0.6789,0.6977,0.7058,0.7245,0.754,0.7955,0.8325,0.8331,0.8022,0.8219,0.8198,0.8035,0.8096,0.8174,0.8282,0.8282,0.8282,0.8276,0.8213,0.8182,0.8182,0.8182,0.8235,0.8295,0.4794,0.4738,0.4632,0.4532,0.4463,0.4436,0.4519,0.4587,0.4664,0.4724,0.4667,0.4635,0.4635,0.4647,0.468,0.468,0.4515,0.438,0.4328,0.4328,0.4337,0.433,0.4365,0.4406,0.4478,0.4502,0.4558,0.4644,0.5152,0.5487,0.5611,0.6229,0.6576,0.6675,0.6839,0.6905,0.6905,0.7031,0.7003,0.6937,0.6937,0.6872,0.6778,0.6613,0.6548,0.6548,0.6675,0.6741,0.6793,0.6851,0.6858,0.6831,0.6609,0.6463,0.6389,0.6468,0.6506,0.651,0.6501,0.6501,0.6501,0.6501,0.6472,0.6473,0.6473,0.6477,0.6499,0.6542,0.6544,0.6598,0.6842,0.6999,0.7112,0.7171,0.7257,0.7149,0.6761,0.6928,0.0,0.6923,0.7434,0.7916,0.8196,0.8448,0.8586,0.8586,0.0,0.0,0.7916,0.7842,0.7601,0.7095,0.7225,0.7356,0.7466,0.7827,0.808,0.8274,0.8623,0.8568,0.8191,0.8441,0.8425,0.8195,0.8275,0.8348,0.8395,0.8395,0.8395,0.8395,0.8395,0.8395,0.8395,0.8395,0.848,0.8586,0.526,0.526,0.5214,0.5033,0.4979,0.4979,0.5007,0.5007,0.5011,0.5038,0.5011,0.5007,0.5007,0.5007,0.5007,0.5007,0.5038,0.4956,0.4743,0.4743,0.4684,0.457,0.4614,0.4653,0.4653,0.4836,0.5045,0.5275,0.5751,0.6085,0.6274,0.6789,0.7138,0.7335,0.7526,0.7619,0.7657,0.7619,0.7521,0.733,0.7302,0.7171,0.6975,0.6839,0.6773,0.6741,0.6741,0.6811,0.6942,0.7102,0.6998,0.6799,0.6768,0.6534,0.6298,0.6369,0.6332,0.6309,0.6408,0.6463,0.6517,0.668,0.6756,0.6756,0.6756,0.6756,0.6756,0.6783,0.6788,0.6869,0.7112,0.7192,0.7273,0.7467,0.7446,0.7338,0.7144,0.0,0.7392,0.7521,0.7922,0.8295,0.8547,0.8666,0.8725,0.8725,0.8639,0.0,0.0,0.8295,0.8008,0.7473,0.7521,0.7658,0.7949,0.8443,0.863,0.8575,0.8812,0.8699,0.8347,0.8543,0.8505,0.8275,0.8374,0.8448,0.8448,0.8448,0.848,0.8501,0.8501,0.8501,0.8527,0.8527,0.8666,0.8857,0.5499,0.5527,0.5514,0.5489,0.534,0.5281,0.5454,0.5485,0.554,0.5654,0.5567,0.5485,0.5485,0.5485,0.5485,0.5485,0.5599,0.543,0.4901,0.4873,0.4873,0.4846,0.484,0.4855,0.4855,0.5048,0.5317,0.5608,0.6148,0.649,0.6625,0.7274,0.7699,0.7889,0.8042,0.8177,0.8349,0.8177,0.8074,0.8009,0.7727,0.7531,0.7396,0.7199,0.7007,0.6881,0.6881,0.6881,0.6892,0.6953,0.6917,0.6838,0.6607,0.662,0.667,0.6462,0.6517,0.6625,0.6652,0.6739,0.6825,0.6847,0.6955,0.7031,0.7031,0.7031,0.7058,0.7176,0.7203,0.7257,0.7413,0.7628,0.7714,0.7521,0.7681,0.7687,0.0,0.0,0.7649,0.767,0.7975,0.8268,0.8421,0.8448,0.8448,0.8448,0.8448,0.8421,0.8395,0.8374,0.8321,0.8242,0.7863,0.7848,0.8217,0.8445,0.8633,0.8833,0.895,0.8846,0.8571,0.8704,0.8683,0.8547,0.8547,0.8633,0.8725,0.8725,0.8804,0.8903,0.8903,0.8982,0.908,0.908,0.9106,0.9133,0.5856,0.5916,0.5914,0.5726,0.57,0.5673,0.5704,0.5709,0.5736,0.5795,0.5736,0.5709,0.5709,0.5709,0.5709,0.5709,0.5768,0.5681,0.5403,0.5317,0.5234,0.5128,0.5207,0.5306,0.5373,0.5752,0.6023,0.6177,0.6931,0.7351,0.7415,0.8006,0.8344,0.8441,0.8565,0.8694,0.8765,0.8662,0.8533,0.8344,0.8187,0.7987,0.7754,0.7531,0.7405,0.7307,0.7237,0.7196,0.7172,0.7287,0.724,0.7102,0.6964,0.6909,0.6889,0.6723,0.6739,0.6815,0.6896,0.7009,0.7122,0.7198,0.7279,0.73,0.73,0.73,0.7333,0.7392,0.7419,0.7473,0.7681,0.7821,0.7928,0.7975,0.8029,0.0,0.0,0.7943,0.8096,0.8176,0.8448,0.8692,0.8817,0.8817,0.8817,0.8817,0.8817,0.8791,0.8718,0.8666,0.8586,0.8501,0.8373,0.838,0.8557,0.8766,0.888,0.8849,0.887,0.8748,0.8484,0.864,0.8644,0.86,0.8765,0.885,0.891,0.8982,0.9061,0.9113,0.9113,0.9185,0.9316,0.9316,0.9394,0.9532,0.6176,0.6294,0.6304,0.6064,0.6087,0.6136,0.6037,0.6009,0.6009,0.6009,0.6009,0.5982,0.5955,0.5927,0.5927,0.5905,0.5905,0.5877,0.585,0.5759,0.5622,0.5434,0.5595,0.5767,0.5957,0.6393,0.6713,0.6867,0.7661,0.806,0.8182,0.87,0.8931,0.8958,0.9081,0.9145,0.9177,0.9113,0.8926,0.8673,0.8608,0.8382,0.8084,0.7889,0.7792,0.7764,0.7657,0.7553,0.7455,0.7631,0.7519,0.7305,0.7254,0.7157,0.7064,0.6969,0.6987,0.7063,0.7166,0.7306,0.7473,0.7574,0.7655,0.7702,0.7681,0.7655,0.7655,0.7655,0.7655,0.7735,0.7981,0.8029,0.8135,0.8395,0.0,0.0,0.0,0.8454,0.858,0.8679,0.8896,0.9087,0.9185,0.9211,0.9211,0.9211,0.9211,0.9159,0.9061,0.8962,0.885,0.8732,0.8772,0.8809,0.8809,0.901,0.901,0.8809,0.8767,0.8653,0.8507,0.8633,0.8705,0.8758,0.8949,0.9035,0.9061,0.9185,0.9263,0.9283,0.9316,0.9446,0.9603,0.9603,0.9766,0.9981,0.6378,0.6542,0.6668,0.6625,0.6647,0.6652,0.662,0.662,0.662,0.662,0.662,0.6571,0.6386,0.6354,0.6305,0.6178,0.6178,0.6119,0.6005,0.5978,0.5896,0.5768,0.5896,0.6124,0.644,0.6597,0.7032,0.7711,0.7975,0.8317,0.8738,0.9087,0.9332,0.9454,0.9454,0.9562,0.9708,0.9408,0.9274,0.921,0.8899,0.8641,0.8447,0.8242,0.8074,0.7987,0.7954,0.7813,0.7596,0.7616,0.7456,0.7279,0.7077,0.7177,0.7318,0.7127,0.7273,0.7467,0.7467,0.7655,0.7848,0.7875,0.8109,0.8295,0.8168,0.8141,0.8141,0.8141,0.8141,0.8189,0.8348,0.8474,0.8547,0.8573,0.0,0.0,0.8752,0.8883,0.8956,0.8956,0.9113,0.9185,0.9211,0.9211,0.9211,0.9211,0.9211,0.9185,0.9185,0.9185,0.9159,0.9159,0.8935,0.8809,0.8809,0.8828,0.8828,0.8809,0.8676,0.8679,0.8778,0.8903,0.9028,0.9159,0.9185,0.9185,0.9185,0.9342,0.9465,0.9588,0.9706,0.9955,1.0239,1.0239,1.0316,1.047,0.6598,0.6707,0.6793,0.6701,0.6761,0.6793,0.6701,0.6701,0.6701,0.6701,0.6701,0.6674,0.6598,0.6598,0.6517,0.6332,0.644,0.6436,0.625,0.644,0.644,0.6196,0.6327,0.6606,0.6989,0.7298,0.7712,0.8231,0.8694,0.9095,0.9414,0.9632,0.9754,0.9817,0.9817,0.9792,0.9804,0.967,0.9504,0.9274,0.9022,0.8835,0.8673,0.8474,0.8349,0.8317,0.8447,0.8329,0.8099,0.8187,0.8086,0.7881,0.763,0.7638,0.7672,0.7529,0.7595,0.7768,0.7901,0.7928,0.7955,0.8162,0.8295,0.8401,0.8348,0.8321,0.8321,0.8321,0.8321,0.8374,0.8501,0.8639,0.8745,0.8844,0.0,0.9035,0.9035,0.9159,0.9237,0.9237,0.9453,0.9558,0.9558,0.9636,0.9706,0.9706,0.9706,0.9706,0.9706,0.961,0.9506,0.9342,0.921,0.9085,0.8931,0.883,0.883,0.8931,0.8871,0.8929,0.9061,0.9113,0.9185,0.9342,0.9413,0.9498,0.9584,0.9844,0.9999,1.0051,1.0283,1.0496,1.0667,1.0769,1.0922,1.1124,0.6896,0.7009,0.7063,0.6977,0.7036,0.7063,0.6977,0.695,0.695,0.6896,0.6896,0.6842,0.6761,0.6761,0.668,0.6517,0.6652,0.6707,0.6576,0.6901,0.6955,0.6701,0.6864,0.7198,0.7705,0.8017,0.8453,0.9021,0.9454,0.9786,1.0053,1.0149,1.018,1.018,1.011,1.0047,0.9958,0.9836,0.967,0.9434,0.9177,0.9055,0.8926,0.8738,0.8673,0.8673,0.8802,0.871,0.8502,0.8651,0.851,0.8275,0.8155,0.8068,0.8008,0.7934,0.7969,0.8082,0.8268,0.8242,0.8215,0.8421,0.8507,0.8507,0.8474,0.8474,0.8474,0.8474,0.8507,0.856,0.8712,0.885,0.8962,0.9113,0.9211,0.929,0.9309,0.9446,0.9524,0.9524,0.9714,0.9877,0.9877,1.009,1.0256,1.0256,1.0408,1.045,1.0316,1.0138,0.9921,0.9751,0.9673,0.955,0.9323,0.9061,0.8982,0.9061,0.9113,0.9185,0.9335,0.9368,0.9498,0.9681,0.9784,0.9888,1.0032,1.0368,1.0496,1.0522,1.082,1.1023,1.1175,1.1301,1.1494,1.1694,0.7317,0.7419,0.7494,0.7494,0.7494,0.7494,0.7494,0.7494,0.744,0.7317,0.7317,0.7203,0.6933,0.6906,0.6847,0.6701,0.682,0.6906,0.6906,0.7284,0.7467,0.7321,0.7434,0.7858,0.8593,0.8732,0.9268,1.0188,1.0188,1.0335,1.0593,1.0593,1.0593,1.0593,1.0403,1.0301,1.0276,0.9958,0.9804,0.9772,0.9434,0.9306,0.9274,0.9081,0.9017,0.9017,0.9017,0.8862,0.8719,0.8861,0.8625,0.8351,0.8546,0.8478,0.8321,0.8377,0.8395,0.8421,0.8573,0.8692,0.8778,0.8633,0.8718,0.8778,0.8633,0.86,0.86,0.86,0.8718,0.8831,0.8982,0.9106,0.9237,0.9387,0.9413,0.9439,0.9588,0.9706,0.9799,0.9799,0.9921,0.9999,1.0007,1.0481,1.0801,1.0809,1.1296,1.1427,1.1032,1.0705,1.0522,1.0496,1.0308,1.0154,0.9999,0.9472,0.9211,0.9211,0.9335,0.9484,0.9614,0.974,0.9981,1.029,1.0324,1.0368,1.0522,1.0794,1.0896,1.0947,1.1352,1.1603,1.1728,1.1852,1.2002,1.2126,0.744,0.7467,0.7494,0.7494,0.7494,0.7494,0.7494,0.7494,0.7494,0.744,0.744,0.7365,0.7203,0.7257,0.7225,0.7004,0.7268,0.7595,0.7922,0.8363,0.8688,0.8825,0.8578,0.8671,0.9211,0.9495,0.9908,1.0476,1.0476,1.0636,1.0933,1.0933,1.0933,1.0933,1.0744,1.0586,1.0498,1.0244,1.0085,0.9926,0.9734,0.9638,0.9606,0.9338,0.921,0.921,0.9332,0.9316,0.9291,0.9426,0.937,0.9264,0.9124,0.8902,0.8658,0.8686,0.8689,0.8699,0.8725,0.8903,0.9061,0.8929,0.8975,0.9054,0.9028,0.9028,0.9028,0.9028,0.9054,0.908,0.9133,0.9237,0.9361,0.9387,0.9491,0.9595,0.9706,0.9766,0.9851,0.9929,1.011,1.035,1.0656,1.0942,1.1245,1.1597,1.1628,1.1558,1.1442,1.1198,1.1023,1.0922,1.0871,1.0769,1.0641,0.9958,0.9621,0.961,0.9766,0.9914,1.0102,1.0334,1.0539,1.0726,1.082,1.0998,1.1226,1.1402,1.1528,1.1619,1.1952,1.215,1.2274,1.2397,1.2578,1.274,0.7655,0.7762,0.7863,0.7863,0.7863,0.7863,0.7863,0.7815,0.7735,0.7655,0.7622,0.7521,0.7392,0.7494,0.7515,0.7354,0.7777,0.8256,0.8685,0.9146,0.9563,0.9845,0.9848,0.9894,1.0044,1.0262,1.0567,1.0993,1.0993,1.1093,1.131,1.1216,1.1185,1.1185,1.0996,1.0839,1.0681,1.0491,1.0301,1.011,0.9958,0.9862,0.9862,0.9664,0.9562,0.9594,0.9652,0.9684,0.9729,0.9887,0.9991,1.0001,0.9701,0.9515,0.9389,0.9215,0.9166,0.9139,0.899,0.9106,0.9263,0.9185,0.9185,0.9211,0.9211,0.9211,0.9211,0.9211,0.9237,0.9283,0.9335,0.9472,0.9577,0.9629,0.9706,0.9784,0.987,0.9955,1.0032,1.011,1.0316,1.0631,1.1046,1.1377,1.192,1.2657,1.2355,1.2136,1.2136,1.1816,1.1578,1.1502,1.1502,1.1418,1.1301,1.0846,1.0498,1.0231,1.0385,1.0488,1.0624,1.0845,1.1049,1.1226,1.1301,1.1502,1.1753,1.1877,1.1977,1.2101,1.2397,1.2578,1.2676,1.2837,1.2973,1.3069,0.7955,0.8189,0.8395,0.8395,0.8395,0.8395,0.8395,0.8295,0.8141,0.7981,0.7836,0.7702,0.7568,0.7702,0.7777,0.7777,0.8335,0.8837,0.9237,0.9714,1.0119,1.0449,1.1066,1.1309,1.1001,1.1008,1.1176,1.1622,1.1622,1.1591,1.1591,1.1397,1.1334,1.1334,1.1185,1.1028,1.0839,1.0713,1.053,1.0371,1.0174,1.0079,1.0079,1.0047,1.0047,1.0015,1.0015,1.0015,1.0047,1.0269,1.0466,1.0602,1.0302,1.0292,1.0343,0.9897,0.975,0.9637,0.9357,0.9337,0.9413,0.9413,0.9335,0.9237,0.9237,0.9237,0.9237,0.9263,0.9361,0.9465,0.9614,0.9758,0.9877,0.9999,1.0025,1.0051,1.0051,1.0213,1.0342,1.0342,1.0573,1.0865,1.1231,1.19,1.274,1.3777,1.3395,1.3113,1.305,1.2518,1.2212,1.2175,1.215,1.2101,1.1977,1.1952,1.1628,1.0972,1.1099,1.1175,1.1175,1.1326,1.1528,1.1744,1.1778,1.1927,1.215,1.2298,1.2357,1.2397,1.2774,1.292,1.2968,1.3156,1.3242,1.3218,0.8295,0.8348,0.8395,0.8395,0.8395,0.8395,0.8395,0.8368,0.8348,0.8295,0.8262,0.8182,0.8062,0.8262,0.8362,0.8262,0.8837,0.9361,0.9636,1.0203,1.0634,1.0928,1.1383,1.1698,1.1851,1.1705,1.1642,1.1771,1.1654,1.1591,1.1591,1.156,1.1529,1.1529,1.1341,1.124,1.1178,1.1059,1.0965,1.0933,1.087,1.0776,1.0618,1.0523,1.0371,1.0238,1.0238,1.0238,1.0269,1.0586,1.0839,1.0989,1.092,1.0732,1.0539,1.0436,1.0137,0.9844,0.978,0.9652,0.9562,0.9562,0.9536,0.951,0.951,0.951,0.9543,0.9662,0.9688,0.9766,0.9888,1.0076,1.0187,1.0239,1.0316,1.0419,1.0539,1.059,1.0641,1.0769,1.082,1.1071,1.1622,1.2663,1.3507,1.4064,1.4039,1.3867,1.3576,1.3332,1.3038,1.2735,1.2627,1.2554,1.2529,1.2431,1.2076,1.1528,1.1653,1.1728,1.1719,1.1977,1.2101,1.2175,1.2274,1.2431,1.2578,1.27,1.2832,1.2954,1.3094,1.3204,1.33,1.3348,1.342,1.3491,0.8501,0.8553,0.8586,0.8586,0.8639,0.8685,0.8685,0.8685,0.8685,0.8685,0.8639,0.8586,0.8593,0.8765,0.8968,0.9159,0.955,0.9914,1.0205,1.0743,1.1093,1.1249,1.177,1.2107,1.2139,1.2158,1.2089,1.1934,1.1872,1.184,1.184,1.184,1.184,1.184,1.1716,1.1615,1.1522,1.1459,1.1341,1.1216,1.1216,1.109,1.0933,1.087,1.0782,1.0681,1.0681,1.0713,1.0807,1.0996,1.1209,1.1435,1.1373,1.1319,1.1275,1.1001,1.0828,1.0641,1.0247,1.0061,0.9944,0.9743,0.9706,0.9706,0.9706,0.9706,0.9732,0.987,0.9895,0.9973,1.0205,1.0316,1.047,1.0641,1.0744,1.082,1.0972,1.0998,1.1023,1.1074,1.115,1.1422,1.2044,1.3213,1.4022,1.4243,1.4288,1.4202,1.4007,1.3576,1.3259,1.3055,1.2973,1.2949,1.2949,1.2876,1.2696,1.2418,1.2264,1.2224,1.2283,1.2431,1.2544,1.2642,1.2715,1.2813,1.2949,1.2997,1.3079,1.3176,1.3252,1.3338,1.342,1.3539,1.3644,1.3692,0.8705,0.8798,0.8857,0.8857,0.8956,0.9035,0.9035,0.9061,0.9061,0.9061,0.8982,0.8982,0.9106,0.929,0.9577,1.0076,1.0231,1.0403,1.0718,1.1134,1.135,1.1389,1.2079,1.2402,1.2246,1.2528,1.2498,1.212,1.212,1.2096,1.2096,1.2096,1.2096,1.2096,1.2096,1.1996,1.1833,1.1833,1.1685,1.1428,1.1428,1.1341,1.1216,1.1216,1.1216,1.1192,1.1192,1.1279,1.1404,1.1404,1.1584,1.1833,1.1716,1.1872,1.2004,1.1571,1.1503,1.1461,1.0783,1.0521,1.0343,1.0019,0.9888,0.9851,0.9903,0.9877,0.987,1.0025,1.0076,1.018,1.047,1.059,1.0752,1.1074,1.1192,1.1276,1.1402,1.1427,1.1452,1.1452,1.1553,1.1879,1.2463,1.3504,1.4221,1.4344,1.44,1.4404,1.435,1.3766,1.3419,1.3348,1.329,1.3266,1.3266,1.3218,1.3194,1.3194,1.2803,1.2666,1.2798,1.2798,1.2886,1.3031,1.3031,1.3108,1.3194,1.3218,1.3242,1.3242,1.342,1.3467,1.3491,1.3763,1.3858,1.3858,0.9106,0.9133,0.9133,0.9133,0.9159,0.9185,0.9185,0.9256,0.9335,0.9335,0.9439,0.9536,0.9692,0.9906,1.0205,1.0565,1.0616,1.0693,1.0871,1.104,1.1215,1.1381,1.195,1.2309,1.2459,1.277,1.2705,1.2274,1.2151,1.2096,1.2096,1.2096,1.2096,1.2096,1.2096,1.2096,1.2058,1.2058,1.2027,1.1996,1.1996,1.1872,1.1709,1.1709,1.1622,1.1529,1.1529,1.1622,1.174,1.174,1.1872,1.2065,1.2027,1.2058,1.2081,1.2004,1.1813,1.159,1.1477,1.1018,1.0558,1.0513,1.0238,1.0051,1.0342,1.018,1.0025,1.0213,1.0342,1.0488,1.065,1.0972,1.12,1.1251,1.1553,1.1803,1.1828,1.1927,1.2002,1.2002,1.2101,1.2407,1.2945,1.3381,1.3864,1.4423,1.4738,1.4769,1.4478,1.4492,1.4314,1.3902,1.3668,1.3549,1.3549,1.3314,1.3194,1.3194,1.3146,1.3122,1.3122,1.3122,1.3146,1.317,1.317,1.317,1.3218,1.3338,1.3362,1.3396,1.3644,1.375,1.3787,1.4035,1.4152,1.4152,0.9185,0.9211,0.9211,0.9211,0.9309,0.9413,0.9413,0.9706,0.9895,0.9895,1.0017,1.0146,1.0293,1.048,1.0693,1.0896,1.0922,1.0972,1.1124,1.1175,1.1345,1.1612,1.2064,1.24,1.2605,1.298,1.3019,1.2674,1.256,1.2467,1.2375,1.2375,1.2375,1.2375,1.2375,1.2406,1.2498,1.2498,1.2498,1.2498,1.2498,1.2367,1.2205,1.2205,1.2143,1.2089,1.2089,1.2205,1.2336,1.2274,1.2398,1.256,1.2274,1.2336,1.2467,1.2274,1.2204,1.2101,1.1786,1.1507,1.121,1.0892,1.0689,1.0577,1.069,1.0616,1.0539,1.0624,1.0667,1.0794,1.0998,1.1251,1.1502,1.1694,1.1952,1.2175,1.2332,1.2406,1.2455,1.2529,1.2627,1.2807,1.313,1.3626,1.4094,1.4466,1.4701,1.4769,1.4609,1.4429,1.4209,1.4007,1.3892,1.3821,1.3821,1.3716,1.3644,1.3644,1.3644,1.3515,1.3314,1.3396,1.342,1.3433,1.3586,1.3563,1.3443,1.3644,1.3692,1.3644,1.3844,1.401,1.4163,1.4396,1.4524,1.4617]}]]